[[{"header":{"parameterUnit":"m.s-1","parameterCategory":1,"la1":30.6,"la2":29.2853,"lo1":-89.7004,"lo2":-87.6739,"dy":0.0162,"dx":0.0183,"nx":112,"ny":82,"refTime":"2023-06-19T12:00:00:Z","depth":0,"parameterNumber":2,"parameterNumberName":"U-component_of_WINDS"},"data":[0.0,0.0,0.0,0.0,0.0,0.0,0.0,0.0,0.0,0.0,0.0,0.0,0.0,0.0,0.0,0.0,0.0,0.0,0.0,0.0,0.0,0.0,0.0,0.0,0.0,0.0,0.0,0.0,0.0,0.0,0.0,0.0,0.0,0.0,0.0,0.0,0.0,0.0,0.0,0.0,0.0,0.0,0.0,0.0,0.0,0.0,0.0,0.0,0.0,0.0,0.0,0.0,0.0,0.0,0.0,0.0,0.0,0.0,0.0,0.0,0.0,0.0,0.0,0.0,0.0,0.0,0.0,0.0,0.0,0.0,0.0,0.0,0.0,0.0,0.0,0.0,0.0,0.0,0.0,0.0,0.0,0.0,0.0,0.0,0.0,0.0,0.0,0.0,0.0,0.0,-1.0343,-1.3105,-1.4695,-1.5964,-1.68,-1.7543,-1.7493,-1.6272,0.0,0.0,0.0,0.0,0.0,0.0,0.0,0.0,0.0,0.0,0.0,0.0,0.0,0.0,0.0,0.0,0.0,0.0,0.0,0.0,0.0,0.0,0.0,0.0,0.0,0.0,0.0,0.0,0.0,0.0,0.0,0.0,0.0,0.0,0.0,0.0,0.0,0.0,0.0,0.0,0.0,0.0,0.0,0.0,0.0,0.0,0.0,0.0,0.0,0.0,0.0,0.0,0.0,0.0,0.0,0.0,0.0,0.0,0.0,0.0,0.0,0.0,0.0,0.0,0.0,0.0,0.0,0.0,0.0,0.0,0.0,0.0,0.0,0.0,0.0,0.0,0.0,0.0,0.0,0.0,0.0,0.0,0.0,0.0,0.0,0.0,0.0,0.0,0.0,0.0,0.0,0.0,0.0,0.0,0.0,0.0,0.0,0.0,0.0,0.0,0.0,0.0,0.0,0.0,-1.1864,-1.4055,-1.505,-1.5964,-1.68,-1.7543,-1.7493,-1.6201,0.0,0.0,0.0,0.0,0.0,0.0,0.0,0.0,0.0,0.0,0.0,0.0,0.0,0.0,0.0,0.0,0.0,0.0,0.0,0.0,0.0,0.0,0.0,0.0,0.0,0.0,0.0,0.0,0.0,0.0,0.0,0.0,0.0,0.0,0.0,0.0,0.0,0.0,0.0,0.0,0.0,0.0,0.0,0.0,0.0,0.0,0.0,0.0,0.0,0.0,0.0,0.0,0.0,0.0,0.0,0.0,0.0,0.0,0.0,0.0,0.0,0.0,0.0,0.0,0.0,0.0,0.0,0.0,0.0,0.0,0.0,0.0,0.0,0.0,0.0,0.0,0.0,0.0,0.0,0.0,0.0,0.0,0.0,0.0,0.0,0.0,0.0,0.0,0.0,0.0,0.0,0.0,0.0,0.0,0.0,0.0,0.0,0.0,0.0,0.0,0.0,0.0,0.0,-1.1805,-1.3661,-1.4791,-1.526,-1.6078,-1.7405,-1.7796,-1.7642,-1.685,-1.6788,0.0,0.0,0.0,0.0,0.0,0.0,0.0,0.0,0.0,0.0,0.0,0.0,0.0,0.0,0.0,0.0,0.0,0.0,0.0,0.0,0.0,0.0,0.0,0.0,0.0,0.0,0.0,0.0,0.0,0.0,0.0,0.0,0.0,0.0,0.0,0.0,0.0,0.0,0.0,0.0,0.0,0.0,0.0,0.0,0.0,0.0,0.0,0.0,0.0,0.0,0.0,0.0,0.0,0.0,0.0,0.0,0.0,0.0,0.0,0.0,0.0,0.0,0.0,0.0,0.0,0.0,0.0,0.0,0.0,0.0,0.0,0.0,0.0,0.0,0.0,0.0,0.0,0.0,0.0,0.0,0.0,0.0,0.0,0.0,0.0,0.0,0.0,0.0,0.0,0.0,0.0,0.0,0.0,0.0,0.0,0.0,0.0,0.0,0.0,0.0,0.0,0.0,-1.3122,-1.4874,-1.5249,-1.5591,-1.6312,-1.7925,-1.8238,-1.8006,-1.7298,-1.7286,0.0,0.0,0.0,0.0,0.0,0.0,0.0,0.0,0.0,0.0,0.0,0.0,0.0,0.0,0.0,0.0,0.0,0.0,0.0,0.0,0.0,0.0,0.0,0.0,0.0,0.0,0.0,0.0,0.0,0.0,0.0,0.0,0.0,0.0,0.0,0.0,0.0,0.0,0.0,0.0,0.0,0.0,0.0,0.0,0.0,0.0,0.0,0.0,0.0,0.0,0.0,0.0,0.0,0.0,0.0,0.0,0.0,0.0,0.0,0.0,0.0,0.0,0.0,0.0,0.0,0.0,0.0,0.0,0.0,0.0,0.0,0.0,0.0,0.0,0.0,0.0,0.0,0.0,0.0,0.0,0.0,0.0,0.0,0.0,0.0,0.0,0.0,0.0,0.0,0.0,0.0,0.0,0.0,0.0,0.0,0.0,0.0,0.0,0.0,0.0,0.0,0.0,-1.3078,-1.4469,-1.5524,-1.6206,-1.7025,-1.8175,-1.8816,-1.8508,-1.6879,-1.7116,0.0,0.0,0.0,0.0,0.0,0.0,0.0,0.0,0.0,0.0,0.0,0.0,0.0,0.0,0.0,0.0,0.0,0.0,0.0,0.0,0.0,0.0,0.0,0.0,0.0,0.0,0.0,0.0,0.0,0.0,0.0,0.0,0.0,0.0,0.0,0.0,0.0,0.0,0.0,0.0,0.0,0.0,0.0,0.0,0.0,0.0,0.0,0.0,0.0,0.0,0.0,0.0,0.0,0.0,0.0,0.0,0.0,0.0,0.0,0.0,0.0,0.0,0.0,0.0,0.0,0.0,0.0,0.0,0.0,0.0,0.0,0.0,0.0,0.0,0.0,0.0,0.0,0.0,0.0,0.0,0.0,0.0,0.0,0.0,0.0,0.0,0.0,0.0,0.0,0.0,0.0,0.0,0.0,0.0,0.0,0.0,0.0,0.0,0.0,0.0,0.0,0.0,-1.3525,-1.5256,0.0,-1.6535,-1.7441,-1.9156,-1.9507,-1.9058,-1.7609,0.0,0.0,0.0,0.0,0.0,0.0,0.0,0.0,0.0,0.0,0.0,0.0,0.0,0.0,0.0,0.0,0.0,0.0,0.0,0.0,0.0,0.0,0.0,0.0,0.0,0.0,0.0,0.0,0.0,0.0,0.0,0.0,0.0,0.0,0.0,0.0,0.0,0.0,0.0,0.0,0.0,0.0,0.0,0.0,0.0,0.0,0.0,0.0,0.0,0.0,0.0,0.0,0.0,0.0,0.0,0.0,0.0,0.0,0.0,0.0,0.0,0.0,0.0,0.0,0.0,0.0,0.0,0.0,0.0,0.0,0.0,0.0,0.0,0.0,0.0,0.0,0.0,0.0,0.0,0.0,0.0,0.0,0.0,0.0,0.0,0.0,0.0,0.0,0.0,0.0,0.0,0.0,0.0,0.0,0.0,0.0,0.0,0.0,0.0,0.0,0.0,0.0,-1.2109,-1.4144,-1.5866,0.0,-1.7199,-1.812,-1.965,-2.0255,-1.9809,-1.8086,0.0,0.0,0.0,0.0,0.0,0.0,0.0,0.0,0.0,0.0,0.0,0.0,0.0,0.0,0.0,0.0,0.0,0.0,0.0,0.0,0.0,0.0,0.0,0.0,0.0,0.0,0.0,0.0,0.0,0.0,0.0,0.0,0.0,0.0,0.0,0.0,0.0,0.0,0.0,0.0,0.0,0.0,0.0,0.0,0.0,0.0,0.0,0.0,0.0,0.0,0.0,0.0,0.0,0.0,0.0,0.0,0.0,0.0,0.0,0.0,0.0,0.0,0.0,0.0,0.0,0.0,0.0,0.0,0.0,0.0,0.0,0.0,0.0,0.0,0.0,0.0,0.0,0.0,0.0,0.0,0.0,0.0,0.0,0.0,0.0,0.0,0.0,0.0,0.0,0.0,0.0,0.0,0.0,0.0,0.0,0.0,0.0,0.0,0.0,0.0,0.0,0.0,-1.2825,-1.4714,-1.6124,-1.669,-1.8181,-1.9213,-1.9504,-2.095,-2.0781,0.0,0.0,0.0,0.0,0.0,0.0,0.0,0.0,0.0,0.0,0.0,0.0,0.0,0.0,0.0,0.0,0.0,0.0,0.0,0.0,0.0,0.0,0.0,0.0,0.0,0.0,0.0,0.0,0.0,0.0,0.0,0.0,0.0,0.0,0.0,0.0,0.0,0.0,0.0,0.0,0.0,0.0,0.0,0.0,0.0,0.0,0.0,0.0,0.0,0.0,0.0,0.0,0.0,0.0,0.0,0.0,0.0,0.0,0.0,0.0,0.0,0.0,0.0,0.0,0.0,0.0,0.0,0.0,0.0,0.0,0.0,0.0,0.0,0.0,0.0,0.0,0.0,0.0,0.0,0.0,0.0,0.0,0.0,0.0,0.0,0.0,0.0,0.0,0.0,0.0,0.0,0.0,0.0,0.0,0.0,0.0,0.0,0.0,0.0,0.0,0.0,0.0,0.0,-1.3134,-1.5145,-1.6805,-1.7319,-1.8604,-1.9745,-2.0716,-2.2051,-2.171,-1.8974,0.0,0.0,0.0,0.0,0.0,0.0,0.0,0.0,0.0,0.0,0.0,0.0,0.0,0.0,0.0,0.0,0.0,0.0,0.0,0.0,0.0,0.0,0.0,0.0,0.0,0.0,0.0,0.0,0.0,0.0,0.0,0.0,0.0,0.0,0.0,0.0,0.0,0.0,0.0,0.0,0.0,0.0,0.0,0.0,0.0,0.0,0.0,0.0,0.0,0.0,0.0,0.0,0.0,0.0,0.0,0.0,0.0,0.0,0.0,0.0,0.0,0.0,0.0,0.0,0.0,0.0,0.0,0.0,0.0,0.0,0.0,0.0,0.0,0.0,0.0,0.0,0.0,0.0,0.0,0.0,0.0,0.0,0.0,0.0,0.0,0.0,0.0,0.0,0.0,0.0,0.0,0.0,0.0,0.0,0.0,0.0,0.0,0.0,0.0,0.0,0.0,0.0,-1.3532,-1.5975,-1.7856,-1.8338,-1.9739,-2.0966,-2.1736,-2.283,-2.2543,-2.04,0.0,0.0,0.0,0.0,0.0,0.0,0.0,0.0,0.0,0.0,0.0,0.0,0.0,0.0,0.0,0.0,0.0,0.0,0.0,0.0,0.0,0.0,0.0,0.0,0.0,0.0,0.0,0.0,0.0,0.0,0.0,0.0,0.0,0.0,0.0,0.0,0.0,0.0,0.0,0.0,0.0,0.0,0.0,0.0,0.0,0.0,0.0,0.0,0.0,0.0,0.0,0.0,0.0,0.0,0.0,0.0,0.0,0.0,0.0,0.0,0.0,0.0,0.0,0.0,0.0,0.0,0.0,0.0,0.0,0.0,0.0,0.0,0.0,0.0,0.0,0.0,0.0,0.0,0.0,0.0,0.0,0.0,0.0,0.0,0.0,0.0,0.0,0.0,0.0,0.0,0.0,0.0,0.0,0.0,0.0,0.0,0.0,0.0,0.0,0.0,0.0,0.0,-1.3973,-1.7016,-1.9158,-1.9497,-2.123,-2.2394,-2.2394,-2.3299,-2.3331,-2.1938,0.0,0.0,0.0,0.0,0.0,0.0,0.0,0.0,0.0,0.0,0.0,0.0,0.0,0.0,0.0,0.0,0.0,0.0,0.0,0.0,0.0,0.0,0.0,0.0,0.0,0.0,0.0,0.0,0.0,0.0,0.0,0.0,0.0,0.0,0.0,0.0,0.0,0.0,0.0,0.0,0.0,0.0,0.0,0.0,0.0,0.0,0.0,0.0,0.0,0.0,0.0,0.0,0.0,0.0,0.0,0.0,0.0,0.0,0.0,0.0,-0.4864,0.0,0.0,0.0,0.0,0.0,0.0,0.0,0.0,0.0,0.0,0.0,0.0,0.0,0.0,0.0,0.0,0.0,0.0,0.0,0.0,0.0,0.0,0.0,0.0,0.0,0.0,0.0,0.0,0.0,0.0,0.0,0.0,0.0,0.0,0.0,0.0,0.0,0.0,0.0,0.0,0.0,-1.3676,-1.7253,-1.962,-1.9521,-2.14,-2.2648,-2.2648,-2.3734,-2.3628,-2.1902,-2.1686,0.0,0.0,0.0,0.0,0.0,0.0,0.0,0.0,0.0,0.0,0.0,0.0,0.0,0.0,0.0,0.0,0.0,0.0,0.0,0.0,0.0,0.0,0.0,0.0,0.0,0.0,0.0,0.0,0.0,0.0,0.0,0.0,0.0,0.0,0.0,0.0,0.0,0.0,0.0,0.0,0.0,0.0,0.0,0.0,0.0,0.0,0.0,0.0,0.0,0.0,0.0,0.0,0.0,0.0,0.0,0.0,0.0,0.0,0.0,0.0,-0.4758,0.0,0.0,0.0,0.0,0.0,0.0,0.0,0.0,0.0,0.0,0.0,0.0,0.0,0.0,0.0,0.0,0.0,0.0,0.0,0.0,0.0,0.0,0.0,0.0,0.0,0.0,0.0,0.0,0.0,0.0,0.0,0.0,0.0,0.0,0.0,0.0,0.0,0.0,0.0,0.0,-1.4759,-1.8661,-2.14,-2.1221,-2.2658,-2.3551,-2.3551,-2.4176,-2.4136,-2.3184,-2.2237,0.0,0.0,0.0,0.0,0.0,0.0,0.0,0.0,0.0,0.0,0.0,0.0,0.0,0.0,0.0,0.0,0.0,0.0,0.0,0.0,0.0,0.0,0.0,0.0,0.0,0.0,0.0,0.0,0.0,0.0,0.0,0.0,0.0,0.0,0.0,0.0,0.0,0.0,0.0,0.0,0.0,0.0,0.0,0.0,0.0,0.0,0.0,0.0,0.0,0.0,0.0,0.0,0.0,-0.6746,-0.6979,-0.6639,-0.6635,-0.6789,-0.71,-0.6214,-0.6632,-0.7797,-0.5491,0.0,0.0,0.0,0.0,0.0,0.0,0.0,0.0,0.0,0.0,0.0,0.0,0.0,0.0,0.0,0.0,0.0,0.0,0.0,0.0,0.0,0.0,0.0,0.0,-1.2899,-1.3033,-1.3826,0.0,0.0,0.0,0.0,0.0,0.0,0.0,0.0,0.0,0.0,0.0,-1.5948,-2.0259,-2.3232,-2.332,-2.4139,-2.4778,-2.4778,-2.4778,-2.4778,-2.4778,-2.2928,-2.2082,0.0,0.0,0.0,0.0,0.0,0.0,0.0,0.0,0.0,0.0,0.0,0.0,0.0,0.0,0.0,0.0,0.0,0.0,0.0,0.0,0.0,0.0,0.0,0.0,0.0,0.0,0.0,0.0,0.0,0.0,0.0,0.0,-0.19,-0.3075,0.0,0.0,0.0,0.0,0.0,0.0,0.0,0.0,0.0,0.0,0.0,0.0,0.0,-0.5403,-0.5709,-0.7353,-0.791,-0.7364,-0.9326,-1.0063,-0.9715,-0.9715,-0.9814,-0.9937,-0.8604,0.0,-0.7228,-0.7704,0.0,0.0,0.0,0.0,0.0,0.0,0.0,0.0,0.0,0.0,0.0,0.0,0.0,0.0,0.0,0.0,0.0,0.0,0.0,0.0,0.0,0.0,-1.7157,-1.7783,-1.6635,-1.5862,0.0,-1.3477,-0.9899,-1.1479,-1.1462,0.0,0.0,0.0,0.0,0.0,0.0,0.0,-1.5563,-2.0325,-2.3898,-2.4281,-2.5148,-2.5699,-2.5699,-2.5699,-2.5699,-2.5699,-2.542,-2.4602,-2.3153,-2.4392,0.0,0.0,0.0,0.0,0.0,0.0,0.0,0.0,0.0,0.0,0.0,0.0,0.0,0.0,0.0,0.0,0.0,0.0,0.0,0.0,0.0,0.0,0.0,0.0,0.0,0.0,0.0,0.0,0.0,-0.2549,-0.5631,-0.6749,-0.4637,-0.2729,0.0,0.0,0.0,0.0,0.0,0.0,0.0,0.0,0.0,-0.6395,-0.6807,-0.7176,-0.7404,-0.8921,-0.9423,-0.888,-1.01,-1.0554,-1.026,-1.026,-1.0372,-1.0542,-0.9904,-0.9363,-0.8968,-0.822,-0.7761,-0.7647,0.0,0.0,0.0,0.0,-0.6445,-0.6711,-0.7711,-0.9146,-1.0483,-1.053,0.0,0.0,0.0,0.0,0.0,0.0,0.0,0.0,0.0,0.0,-1.6705,-1.8549,-1.8247,-1.781,-1.8843,-1.6095,-1.371,0.0,-1.3837,-1.2867,-1.1874,0.0,0.0,0.0,0.0,-1.8357,-1.9269,-2.2681,-2.5098,-2.53,-2.5694,-2.5875,-2.5875,-2.5875,-2.5875,-2.5875,-2.5875,-2.5523,-2.4736,-2.5393,-2.461,0.0,0.0,0.0,0.0,0.0,0.0,0.0,0.0,0.0,0.0,0.0,0.0,0.0,0.0,0.0,0.0,0.0,0.0,0.0,0.0,0.0,0.0,0.0,0.0,0.0,0.0,0.0,0.0,-0.4576,-0.799,-0.9028,-0.6901,-0.4908,0.0,0.0,0.0,0.0,0.0,0.0,-0.6746,-0.7534,-0.7861,-0.7683,-0.8307,-0.8742,-0.8871,-0.9963,-1.0313,-0.9976,-1.0532,-1.0632,-1.0353,-1.0529,-1.0615,-1.0575,-1.0575,-1.0608,-1.0579,-0.883,-0.8457,-0.8995,-0.8823,-0.8276,-0.7651,-0.8684,-0.8814,-0.8734,-1.0153,-1.1272,-1.2218,-1.2694,-1.2468,-1.1914,-1.1391,0.0,0.0,0.0,0.0,-1.1415,-1.3794,-1.4913,-1.6036,-1.8454,-1.8933,-1.8996,-1.9276,-1.8161,-1.708,0.0,-1.6277,-1.4854,-1.3644,0.0,0.0,0.0,0.0,-2.1111,-2.2289,-2.4589,-2.6103,-2.6216,-2.6227,-2.6227,-2.6227,-2.6227,-2.6227,-2.6227,-2.6227,-2.6227,-2.6227,-2.6074,-2.5421,-2.4206,0.0,0.0,0.0,0.0,0.0,0.0,0.0,0.0,0.0,0.0,0.0,0.0,0.0,0.0,0.0,0.0,0.0,0.0,0.0,0.0,0.0,0.0,0.0,0.0,0.0,0.0,0.0,0.0,0.0,-0.7941,-0.8481,0.0,0.0,0.0,0.0,-0.5266,-0.6021,-0.6802,-0.7535,-0.8389,-0.9216,-1.0135,-0.9883,-0.9921,-1.0196,-1.0288,-1.0329,-1.0244,-1.099,-1.1007,-1.056,-1.1017,-1.1022,-1.0575,-1.0575,-1.0688,-1.0858,-1.0589,-1.0485,-1.0419,-0.9555,-0.97,-1.039,-0.9357,-1.104,-1.3695,-1.3581,-1.4746,-1.6348,-1.6334,-1.4723,-1.2519,-1.0918,-1.0287,0.0,0.0,-1.2329,-1.3757,-1.4864,-1.6424,-1.7787,-1.8449,-1.8804,-1.9131,-1.9715,-1.8708,-1.8017,0.0,-1.8105,-1.7215,-1.7445,0.0,-1.8577,-1.6887,-1.9888,-2.2309,-2.2483,-2.4856,-2.6703,-2.7138,-2.7189,-2.7189,-2.7189,-2.7189,-2.7189,-2.7189,-2.7189,-2.7189,-2.7189,-2.7189,-2.7074,-2.6727,-2.5532,0.0,0.0,0.0,0.0,0.0,0.0,0.0,0.0,0.0,0.0,0.0,0.0,0.0,0.0,0.0,0.0,0.0,0.0,0.0,0.0,0.0,0.0,0.0,0.0,0.0,0.0,0.0,0.0,-0.8478,-0.9061,0.0,-0.7206,-0.7641,-0.7938,-0.7586,-0.8524,-0.9342,-0.9722,-0.9592,-0.9868,-1.0465,-1.0309,-1.0233,-1.0529,-1.0519,-1.0466,-1.0471,-1.0721,-1.0832,-1.0778,-1.0971,-1.1038,-1.0976,-1.0976,-1.1019,-1.1085,-1.1005,-1.135,-1.2073,-1.302,-1.3243,-1.3093,-1.3318,-1.3598,-1.4088,-1.4635,-1.5192,-1.5717,-1.6393,-1.6026,-1.5212,-1.4588,-1.4389,-1.4394,-1.4764,-1.5228,-1.5912,-1.6958,-1.7507,-1.813,-1.9299,-1.9489,-1.9478,-1.9965,-1.975,-1.9574,-1.9955,-1.8708,-1.7887,-1.869,-2.0056,-2.1022,-2.089,-2.2939,-2.4784,-2.5511,-2.6414,-2.7076,-2.7241,-2.7262,-2.7262,-2.7262,-2.7262,-2.7262,-2.7262,-2.7262,-2.7262,-2.7262,-2.7167,-2.689,-2.6602,-2.6661,-2.5767,0.0,0.0,0.0,0.0,0.0,0.0,0.0,0.0,0.0,0.0,0.0,0.0,0.0,0.0,0.0,0.0,0.0,0.0,0.0,0.0,0.0,0.0,0.0,0.0,0.0,0.0,-0.9515,-0.8573,-0.9763,-0.9878,-0.7974,-0.922,-0.9868,-0.9187,-1.0317,-1.0968,-1.0691,-1.054,-1.0537,-1.0634,-1.0462,-1.0438,-1.057,-1.0645,-1.0683,-1.0683,-1.0749,-1.0858,-1.0995,-1.0995,-1.0877,-1.0693,-1.1042,-1.1183,-1.116,-1.2083,-1.3046,-1.4002,-1.449,-1.474,-1.4937,-1.5507,-1.5507,-1.5134,-1.5728,-1.5863,-1.578,-1.6375,-1.6608,-1.6608,-1.6608,-1.6655,-1.6721,-1.6721,-1.6659,-1.6907,-1.7605,-1.7689,-1.7967,-1.9155,-1.9246,-1.9322,-2.0027,-1.9744,-1.9673,-2.0556,-1.9726,-1.891,-1.927,-2.0551,-2.1552,-2.168,-2.2958,-2.4145,-2.4867,-2.5637,-2.6123,-2.6123,-2.6806,-2.7262,-2.7262,-2.6558,-2.6444,-2.721,-2.6537,-2.6465,-2.7231,-2.6352,-2.5757,-2.5564,-2.5679,-2.5096,-2.3831,0.0,0.0,0.0,0.0,0.0,0.0,0.0,0.0,0.0,0.0,0.0,0.0,0.0,0.0,0.0,0.0,0.0,0.0,0.0,0.0,0.0,0.0,0.0,-0.5337,-0.7833,-0.933,-0.8157,-1.0667,-1.1599,-0.9255,-1.0805,-1.1404,-0.9981,-1.1255,-1.1549,-1.0348,-1.1049,-1.122,-1.0629,-1.0537,-1.0542,-1.0551,-1.0787,-1.0905,-1.091,-1.1104,-1.1194,-1.1194,-1.1203,-1.065,-0.9667,-1.0867,-1.1276,-1.1308,-1.3755,-1.5366,-1.6129,-1.3808,-1.4094,-1.592,-1.592,-1.6494,-1.7305,-1.6992,-1.6919,-1.7002,-1.6812,-1.6707,-1.6707,-1.6707,-1.6714,-1.672,-1.672,-1.6727,-1.6734,-1.6734,-1.6947,-1.7373,-1.7879,-1.8212,-1.8736,-1.9872,-1.8812,-1.8342,-2.0785,-2.1121,-2.0576,-1.948,-2.014,-2.0446,-1.9335,-1.9975,0.0,-2.0638,-2.2594,-2.3981,-2.3981,-2.5885,-2.7179,-2.7251,-2.5181,-2.484,-2.7117,-2.5202,-2.4964,-2.7169,-2.5052,-2.3803,-2.3719,-2.2606,-2.3475,-2.6586,0.0,0.0,0.0,0.0,0.0,0.0,0.0,0.0,0.0,0.0,0.0,0.0,0.0,0.0,0.0,0.0,0.0,0.0,0.0,0.0,0.0,0.0,-0.8695,-0.7917,-0.9325,-1.0195,-0.9443,-1.1301,-1.1787,-0.9805,-1.1366,-1.1832,-1.0348,-1.1499,-1.1805,-1.0567,-1.0374,-1.0196,-0.9889,-0.9748,-0.9814,-1.0121,-1.0783,-1.1113,-1.1113,-1.1165,-1.1194,-1.1198,-1.2231,-1.252,-1.2247,-1.3517,-1.4039,-1.4136,-1.4769,-1.5757,-1.6652,-1.6769,-1.7134,-1.7638,-1.7638,-1.754,-1.7294,-1.5972,-1.6161,-1.7103,-1.6993,-1.7114,-1.7306,-1.7306,-1.7264,-1.7231,-1.7231,-1.7284,-1.7445,-1.786,-1.8026,-1.8296,-1.9029,-1.9302,-1.9576,-2.0506,-2.0342,-2.0245,-2.1424,-2.203,-2.2455,-2.2979,-2.3757,-2.4516,-2.4925,-2.5201,0.0,-2.5378,-2.5937,-2.633,-2.633,-2.542,-2.5471,-2.7117,-2.5181,-2.484,-2.7117,-2.6496,-2.6351,-2.6965,-2.6007,-2.5302,-2.5135,-2.4703,-2.4967,0.0,0.0,0.0,0.0,0.0,0.0,0.0,0.0,0.0,0.0,0.0,0.0,0.0,0.0,0.0,0.0,0.0,0.0,0.0,0.0,0.0,0.0,-0.8559,-1.0302,-1.0024,-1.0867,-1.1214,-1.0529,-1.1815,-1.214,-1.0534,-1.194,-1.2412,-1.0796,-1.1874,-1.2037,-1.0791,-1.0578,-1.0269,-0.9564,-0.9946,-1.0012,-0.9823,-1.0735,-1.1241,-1.1331,-1.1331,-1.1373,-1.1458,-1.2279,-1.2574,-1.2723,-1.3962,-1.4745,-1.514,-1.5857,-1.6665,0.0,0.0,0.0,0.0,0.0,-1.791,-1.7499,-1.6347,-1.676,-1.7636,-1.7347,-1.7592,-1.789,-1.789,-1.7268,-1.6708,-1.6911,-1.6477,-1.6171,-1.7092,-1.7357,-1.7825,-1.9207,-1.9576,-1.9783,-2.0712,-2.0345,-2.0329,-2.2072,-2.2461,0.0,-2.484,-2.4648,-2.4315,-2.4368,-2.4395,-2.4395,-2.4395,-2.5244,-2.5844,-2.5844,-2.5434,-2.5653,-2.7063,-2.4907,0.0,0.0,0.0,-2.53,-2.5219,-2.4935,0.0,0.0,0.0,-2.4429,-2.5771,-2.613,0.0,0.0,-2.6863,-2.5961,0.0,0.0,0.0,0.0,0.0,0.0,0.0,0.0,0.0,0.0,0.0,0.0,0.0,0.0,0.0,0.0,-1.0113,-1.1206,-1.1688,-1.2272,-1.2272,-1.1344,-1.233,-1.2582,-1.1197,-1.2552,-1.2898,-1.1415,-1.224,-1.2281,-1.1015,0.0,0.0,0.0,0.0,-1.0598,-0.9634,-1.0721,-1.134,-1.1553,-1.1553,-1.1642,-1.2024,-1.2147,-1.2324,-1.2524,-1.3656,-1.4582,-1.5582,-1.6929,-1.8009,-1.8709,-1.75,-1.7696,-1.8486,-1.7923,-1.7874,-1.7932,-1.7528,0.0,0.0,-1.7816,-1.8003,-1.8422,-1.8422,-1.7172,-1.5832,-1.6392,-1.5399,-1.449,-1.5839,-1.6378,-1.7115,-1.8935,-1.9376,-1.9791,-2.0814,-1.9886,-1.9693,-2.2795,-2.2843,-2.3171,-2.5658,-2.4283,-2.2522,-2.1347,-2.1197,-2.1197,-2.1197,-2.2987,-2.426,-2.426,0.0,0.0,-2.688,-2.4553,-2.4122,-2.6355,-2.4546,-2.3378,-2.3236,-2.3236,-2.2459,-2.0836,-2.1816,-2.3749,-2.6668,-2.7664,-2.9364,-3.1577,-2.7789,-2.7043,0.0,0.0,0.0,0.0,0.0,0.0,0.0,0.0,0.0,0.0,0.0,0.0,0.0,0.0,0.0,-0.9623,-1.1278,-1.2588,-1.2475,-1.2802,-1.2547,-1.1428,-1.251,-1.285,-1.1357,-1.2647,-1.2791,-1.1135,-1.2681,-1.2903,-1.122,-1.1235,-1.0914,-1.0144,-1.0188,-1.0275,-1.0504,-1.1308,-1.176,-1.1761,0.0,0.0,-1.3254,-1.4263,-1.5354,-1.634,-1.7394,-1.8086,-1.8441,-1.8515,-1.8873,-1.9177,-1.8904,-1.9177,-1.9524,-1.7618,-1.7663,-1.8373,-1.6992,-1.7211,-1.815,-1.8199,-1.8318,-1.8422,-1.8422,-1.8109,0.0,-1.8498,-1.8268,-1.7889,-1.8521,-1.8999,-1.9378,-1.9605,-2.0094,-2.0814,-2.142,-2.1745,-2.2287,-2.3457,-2.4485,-2.55,-2.6021,-2.6219,-2.6259,-2.5999,-2.5937,-2.5937,-2.5937,-2.633,-2.661,-2.661,-2.5368,-2.5108,-2.6747,-2.473,-2.4307,-2.6355,-2.5894,-2.5382,-2.5212,-2.5117,-2.5361,-2.5795,-2.6761,-2.7966,-2.9447,-3.0446,-3.1168,-3.1637,-3.0819,-3.0651,0.0,0.0,0.0,0.0,0.0,0.0,0.0,0.0,0.0,0.0,0.0,-0.7945,0.0,0.0,-0.9888,-1.0668,-1.1733,-1.2569,-1.2819,-1.3256,-1.3077,-1.2203,-1.2931,-1.3069,-1.1945,-1.3094,-1.3298,-1.1916,-1.2987,-1.3211,-1.2068,-1.1729,-1.1258,-1.0487,-1.1431,-1.1465,-1.0452,-1.2252,-1.2981,-1.2794,-1.2794,-1.3477,-1.4746,-1.5392,-1.6298,-1.7466,-1.8248,-1.8952,-1.9279,-1.9175,-1.9279,-1.948,-1.9376,-1.948,-1.9583,-1.8563,-1.8569,-1.894,-1.8052,-1.8196,-1.8848,-1.8527,-1.884,-1.925,-1.925,-1.8787,-1.8237,-1.8551,-1.7943,-1.7393,-1.8038,-1.8641,-1.9244,-2.0296,-2.0712,-2.1224,-2.2426,-2.2929,-2.3429,-2.4716,-2.5509,-2.6197,-2.6678,-2.7061,-2.7262,-2.7262,-2.7262,-2.7262,-2.7262,-2.7262,-2.7345,-2.739,-2.63,-2.5991,-2.7039,-2.5954,-2.57,-2.6695,-2.6656,-2.6755,-2.713,-2.713,-2.7708,-2.8743,-2.9697,-3.0473,-3.1032,-3.1999,-3.2478,-3.2478,-3.2478,-3.2178,0.0,0.0,0.0,0.0,0.0,0.0,0.0,0.0,-0.8132,-0.8379,-0.8461,-0.8758,-0.9411,-0.9602,-1.0159,-1.1768,-1.2122,-1.2469,-1.3175,-1.351,-1.3554,-1.3159,-1.3432,-1.3344,-1.2642,-1.3635,-1.379,-1.2836,-1.3228,-1.3363,-1.2726,-1.2623,-1.2109,-1.1156,-1.3041,-1.3191,-1.1091,-1.3221,-1.4338,-1.4179,-1.4179,-1.4913,-1.618,-1.6393,-1.7035,-1.8101,-1.8506,-1.8938,-1.9279,-1.9376,-1.948,-1.9576,-1.948,-1.9376,-1.9383,-1.9583,-1.948,-1.9279,-1.9279,-1.948,-1.9576,-1.8945,-1.9354,-2.0078,-2.0078,-1.9223,-1.8326,-1.8442,-1.762,-1.6933,-1.7713,-1.8249,-1.9067,-2.107,-2.142,-2.1827,-2.352,-2.3926,-2.4313,-2.58,-2.6197,-2.6602,-2.727,-2.7386,-2.7365,-2.7272,-2.7334,-2.7386,-2.7386,-2.7469,-2.7569,-2.7645,-2.7479,-2.7322,-2.7369,-2.7104,-2.7012,-2.7012,-2.7012,-2.7399,-2.8276,-2.8276,-2.8875,-3.0252,-3.1027,-3.1708,-3.2111,-3.2887,-3.3284,-3.3284,-3.3284,-3.2815,-0.6063,-0.5502,-0.518,-0.6348,-0.6822,-0.7303,0.0,0.0,-1.0412,-1.0656,-1.1266,-1.1833,-1.2177,-1.2308,-1.2517,-1.3149,-1.3291,-1.3492,-1.3967,-1.3493,-1.3368,-1.397,-1.4093,-1.392,-1.3386,-1.3903,-1.3872,-1.2818,-1.3426,-1.3442,-1.2453,-1.3923,-1.4179,-1.2829,-1.4032,-1.4564,-1.4504,-1.432,-1.4716,-1.5707,-1.5707,-1.6262,-1.747,-1.7871,-1.8708,-1.9872,-1.9872,-1.9576,-1.8974,-1.968,-1.9783,-1.9376,-1.9879,-1.968,-1.9279,-1.9376,-1.9383,-1.9279,-1.9279,-1.948,-1.968,-1.9872,-1.9975,-2.0078,-2.0078,-1.9949,-1.9898,-2.042,-2.0488,-2.0377,-2.0769,-2.0825,-2.1167,-2.2148,-2.271,-2.332,-2.4501,-2.5294,-2.5897,-2.6091,-2.6678,-2.729,-2.7779,-2.7852,-2.7717,-2.7324,-2.7593,-2.7852,-2.7852,-2.8214,-2.8384,-2.8156,-2.8055,-2.7864,-2.7389,-2.7104,-2.7012,-2.7012,-2.7012,-2.7012,-2.7206,-2.7216,-2.8086,-3.0035,-3.023,-3.1219,-3.3098,-3.3284,-3.3284,-3.3284,-3.3284,-3.3224,-0.7101,-0.7999,0.0,0.0,-1.067,-1.1487,-1.1558,-1.2006,-1.2377,-1.2083,-1.2306,-1.2572,-1.2687,-1.2945,-1.322,0.0,-1.3796,-1.4058,-1.4115,-1.4214,-1.4297,-1.4483,-1.3865,-1.3212,-1.2589,-1.3315,-1.3288,-1.1978,-1.3702,-1.4368,-1.3098,-1.4313,-1.501,-1.478,-1.5384,-1.5816,-1.5996,-1.6415,-1.6898,-1.7338,-1.7338,-1.808,-1.9561,-1.945,-1.9872,-2.0506,-1.9887,-1.9783,-1.9998,-1.9783,-1.948,-1.9376,-1.9879,-1.9983,-1.9776,-2.0101,-2.0101,-2.0109,-2.0506,-2.0704,-2.0601,-2.0609,-2.0806,-2.1003,-2.0806,-2.1003,-2.1208,-2.1019,-2.1019,-2.1121,-2.0925,-2.142,-2.2123,-2.2619,-2.3311,-2.4106,-2.5294,-2.5693,-2.616,-2.7002,-2.7451,-2.779,-2.8245,-2.8328,-2.8266,-2.8079,-2.8204,-2.8328,-2.8328,-2.8304,-2.8329,-2.8084,-2.8241,-2.8172,-2.7953,-2.7859,-2.7764,-2.7764,-2.7764,-2.8058,-2.8662,-2.9373,-3.037,-3.187,-3.2569,-3.3273,-3.4186,-3.4186,-3.4186,-3.4186,-3.4186,-3.4186,-0.8432,0.0,0.0,-1.1868,-1.298,-1.3732,-1.3175,-1.3233,-1.3372,-1.3124,-1.3039,-1.3149,-1.356,-1.3649,-1.3857,-1.406,-1.45,-1.4754,-1.4438,-1.4801,-1.49,-1.4254,-1.3453,-1.2565,-1.1496,-1.2545,-1.2963,-1.2473,-1.4129,-1.4936,-1.4194,-1.5166,-1.5794,-1.5762,-1.6497,-1.7107,-1.741,-1.806,-1.8596,-1.8916,-1.8916,-1.9443,-2.0411,-2.0189,-2.0292,-2.0609,-1.9887,-1.9894,-2.0403,-1.9783,-1.948,-1.9383,-2.0086,-2.0189,-2.0181,-2.0814,-2.0822,-2.0719,-2.1326,-2.142,-2.1224,-2.1121,-2.1224,-2.142,-2.1224,-2.142,-2.1623,-2.1019,-2.1121,-2.1326,-2.1224,-2.1827,-2.2728,-2.352,-2.4106,-2.4922,-2.6336,-2.6463,-2.6681,-2.7832,-2.811,-2.8266,-2.8721,-2.8804,-2.8845,-2.898,-2.9001,-2.8949,-2.8724,-2.8523,-2.8317,-2.8222,-2.8212,-2.8291,-2.8291,-2.8291,-2.8291,-2.8291,-2.8291,-2.8601,-2.9418,-3.0245,-3.137,-3.2689,-3.3511,-3.4225,-3.4823,-3.4823,-3.4823,-3.4823,-3.4823,-3.4823,0.0,0.0,-0.9662,-1.1404,-1.2009,-1.212,-1.2056,-1.2369,-1.2954,-1.3795,-1.3964,-1.4382,-1.5604,-1.5226,-1.4984,-1.5567,-1.5687,-1.5613,-1.5008,-1.523,-1.481,-1.3145,-1.3064,-1.2447,0.0,-1.1605,-1.3361,-1.5286,-1.4765,-1.4819,-1.5816,-1.6876,-1.6918,-1.5423,-1.7325,-1.8589,-1.9124,-1.8596,-1.8916,-2.0078,-2.0078,-1.9776,-1.9383,-1.9879,-2.0086,-2.0078,-2.0086,-1.9776,-1.9376,-1.9879,-1.9783,-1.9376,-2.0506,-2.0609,-2.0181,-2.1011,-2.1121,-2.0917,-2.0925,-2.1121,-2.1326,-2.1318,-2.1121,-2.0925,-2.0917,-2.0925,-2.0917,-2.0925,-2.1121,-2.1522,-2.2526,-2.2627,-2.302,-2.5099,-2.5596,-2.6093,-2.7508,-2.7806,-2.794,-2.8504,-2.8597,-2.8742,-2.9208,-2.929,-2.9435,-2.9891,-2.9953,-2.9693,-2.8952,-2.8745,-2.8698,-2.8708,-2.8398,-2.8291,-2.8291,-2.8291,-2.8291,-2.8291,-2.8291,-2.8291,-2.8398,-2.8398,-2.9418,-3.1586,-3.1677,-3.2689,-3.4823,-3.4823,-3.4823,-3.4823,-3.4823,-3.4823,0.0,0.0,-1.2856,-1.4041,-1.4932,-1.5499,-1.5194,-1.5372,-1.5455,-1.5054,-1.4309,-1.381,-1.4089,-1.4087,-1.4187,-1.4613,-1.5072,-1.5346,-1.553,-1.4819,-1.4566,-1.4993,-1.4159,0.0,0.0,0.0,0.0,-1.3012,-1.598,-1.7191,-1.5463,-1.7488,-1.8572,-1.8164,-1.7982,-1.8617,-2.0285,-1.9465,-1.9361,-2.0078,-2.0498,-2.0403,-1.9879,-1.9983,-2.0078,-2.0078,-1.968,-1.968,-1.9879,-1.9983,-1.9983,-1.9983,-2.1011,-2.1318,-2.1208,-2.1623,-2.1725,-2.1623,-2.1522,-2.153,-2.1522,-2.1522,-2.1522,-2.142,-2.1224,-2.1121,-2.1326,-2.1827,-2.203,-2.2325,-2.3411,-2.4205,-2.4871,-2.5956,-2.6713,-2.7421,-2.8177,-2.838,-2.8514,-2.898,-2.9073,-2.9218,-2.9684,-2.9766,-2.9818,-2.9973,-2.9994,-2.9838,-2.9464,-2.9157,-2.893,-2.8737,-2.8514,-2.8291,-2.8291,-2.8291,-2.8291,-2.8291,-2.8291,-2.8291,-2.8291,-2.9006,-3.0037,-3.1575,-3.2286,-3.3411,-3.4823,-3.4823,-3.4823,-3.4823,-3.4823,-3.4823,-1.1783,-1.3189,-1.4527,-1.5535,-1.6361,-1.6804,-1.6206,-1.6288,-1.6335,-1.6126,-1.5233,-1.4553,-1.4569,-1.4414,-1.4359,-1.4566,-1.5072,-1.5594,-1.6174,-1.5712,-1.5539,-1.6038,-1.542,-1.542,0.0,0.0,0.0,-1.3878,-1.6682,-1.7695,-1.6047,-1.7417,-1.8636,-1.931,-1.8819,-1.925,-2.0925,-2.0205,-1.999,-2.0078,-2.0498,-2.03,-1.9776,-1.9776,-1.9453,-1.8927,-1.9228,-1.9147,-1.8942,-1.9732,-2.0078,-2.0181,-2.1113,-2.1522,-2.1725,-2.1725,-2.1827,-2.192,-2.1725,-2.1623,-2.1522,-2.1522,-2.1522,-2.142,-2.1224,-2.142,-2.1827,-2.2325,-2.2915,-2.3524,-2.4616,-2.5532,-2.632,-2.7003,-2.7679,-2.8297,-2.8763,-2.8856,-2.9001,-2.9466,-2.9652,-2.9746,-3.0037,-3.0088,-3.0088,-3.0088,-3.0099,-2.9879,-2.9448,-2.9132,-2.8824,-2.8621,-2.8408,-2.8291,-2.8291,-2.8291,-2.8291,-2.8291,-2.8291,-2.8291,-2.8291,-2.9313,-3.0442,-3.1575,-3.27,-3.3709,-3.4823,-3.4823,-3.4823,-3.4823,-3.4823,-3.4823,-1.4057,-1.466,-1.4684,-1.5802,-1.6131,-1.5966,-1.5289,-1.5394,-1.5899,-1.6996,-1.6615,-1.6224,0.0,0.0,-1.5128,-1.5173,-1.5569,-1.6163,-1.6842,-1.7542,-1.7512,0.0,0.0,0.0,0.0,0.0,0.0,-1.774,0.0,-1.6885,-1.7485,-1.7131,-1.7588,-1.8887,-1.9665,-2.0395,-2.0917,-2.0917,-2.0609,-2.0078,-2.0078,-1.9776,-1.9279,-1.9279,-1.8438,-1.6885,-1.8606,-1.8401,-1.7006,-1.923,-2.0078,-2.0181,-2.0712,-2.1232,-2.175,-2.1146,-2.1358,-2.1783,-2.1783,-2.1554,-2.1326,-2.1326,-2.113,-2.1051,-2.1051,-2.1758,-2.2679,-2.2679,-2.3741,-2.5144,-2.6267,-2.678,-2.7389,-2.8438,-2.8649,-2.8783,-2.9239,-2.9342,-2.9466,-2.9911,-3.0297,-3.0391,-3.0391,-3.0391,-3.0391,-3.0391,-3.0088,-2.9784,-2.9237,-2.893,-2.8621,-2.8408,-2.8291,-2.8291,-2.8291,-2.8291,-2.8291,-2.8291,-2.831,-2.831,-2.8398,-2.9333,-3.0463,-3.1677,-3.27,-3.3709,-3.4823,-3.4823,-3.4823,-3.4823,-3.4823,-3.4823,-1.332,-1.4808,-1.6516,-1.7106,-1.7212,-1.7139,-1.7204,-1.7664,-1.7581,-1.6276,-1.5315,-1.4309,0.0,0.0,0.0,-1.4441,-1.4576,0.0,-1.6391,-1.6597,0.0,-1.6382,0.0,-1.8727,-1.974,-2.0806,0.0,0.0,-2.05,-2.0563,-1.9459,-2.0061,-2.0628,-2.0987,-2.0388,-2.0601,-2.153,-2.0704,-2.0292,-2.0078,-1.968,-1.948,-1.9279,-1.9279,-1.9052,-1.8679,-1.9096,-1.9045,-1.8686,-1.9706,-2.0292,-2.0712,-2.1318,-2.2001,-2.2663,-2.2353,-2.252,-2.285,-2.2648,-2.1876,-2.1019,-2.1019,-2.1693,-2.2612,-2.2612,-2.3633,-2.4902,-2.5618,-2.6111,-2.6705,-2.7723,-2.8125,-2.8389,-2.8941,-2.9125,-2.9249,-3.0015,-3.0119,-3.0255,-3.0495,-3.062,-3.0609,-3.0391,-3.0391,-3.0287,-2.9869,-2.9774,-2.9669,-2.9448,-2.9237,-2.893,-2.8621,-2.8408,-2.8291,-2.8291,-2.8291,-2.8291,-2.8291,-2.8584,-2.8927,-2.9428,-3.0052,-3.1208,-3.2801,-3.3101,-3.3709,-3.4823,-3.4823,-3.4823,-3.4823,-3.4823,-3.4823,-1.4616,-1.5834,-1.7221,-1.7465,-1.7465,-1.7349,-1.725,-1.7536,-1.7278,-1.5429,-1.4379,0.0,0.0,0.0,0.0,0.0,0.0,0.0,-1.6485,-1.6517,-1.6679,0.0,-1.8271,0.0,-2.1482,-2.2013,-2.197,0.0,-2.1456,-2.1067,-1.9897,-2.0281,-2.0966,-2.1709,-2.1113,-2.1011,-2.1326,-2.0704,-2.0189,-1.9776,-1.9887,-1.9791,-1.9279,-1.9583,-1.9088,-1.8156,0.0,-1.8869,-1.8269,-1.9788,-2.0695,-2.1251,-2.1767,-2.2507,-2.3357,-2.3235,-2.3477,-2.3868,-2.3965,-2.3574,-2.2903,-2.2507,-2.3151,-2.4239,-2.4239,-2.5124,-2.6247,-2.6861,-2.7518,-2.8188,-2.8705,-2.9063,-2.929,-2.9539,-2.9611,-2.9684,-3.0141,-3.0287,-3.0505,-3.0724,-3.0724,-3.0609,-3.0609,-3.0505,-3.0287,-2.9973,-2.9764,-2.9554,-2.9448,-2.9142,-2.8824,-2.8514,-2.8408,-2.8291,-2.8291,-2.8291,-2.8495,-2.9006,-2.9236,-2.9778,-3.066,-3.1309,-3.2156,-3.3201,-3.3709,-3.4213,-3.4823,-3.4823,-3.4823,-3.4823,-3.4823,-3.4823,-1.649,-1.6912,-1.7139,-1.7383,-1.7473,-1.7313,-1.669,-1.6524,-1.6046,-1.4592,0.0,-1.2668,-1.1256,-1.1344,-1.2012,-1.31,0.0,-1.5276,-1.6337,-1.6855,-1.7417,-1.8189,-1.8862,-1.9975,-2.1816,-2.215,-2.2329,-2.2526,-2.1241,-2.0315,-1.9953,-1.9759,-2.0325,-2.1684,-2.1725,-2.142,-2.0925,-2.0925,-2.0403,-1.948,-2.0506,-2.0411,-1.9376,-1.9879,-1.8987,-1.7166,-1.8765,-1.8603,-1.7448,-1.9961,-2.1291,-2.1715,-2.2248,-2.3102,-2.4052,-2.392,-2.4369,-2.5062,-2.5577,-2.5785,-2.5767,-2.4727,-2.5032,-2.5806,-2.5806,-2.6567,-2.7353,-2.7353,-2.8359,-2.9394,-2.9394,-2.9694,-2.9994,-2.9994,-2.9994,-2.9994,-3.0099,-3.0297,-3.0505,-3.0724,-3.0609,-3.0505,-3.0724,-3.0505,-3.0391,-3.0287,-2.9869,-2.9448,-2.9026,-2.8824,-2.8621,-2.8291,-2.8291,-2.8291,-2.8291,-2.8291,-2.8727,-2.97,-2.991,-3.0537,-3.1673,-3.269,-3.3369,-3.3411,-3.4323,-3.4823,-3.4823,-3.4823,-3.4823,-3.4823,-3.4823,-3.4823,-1.5402,-1.6158,-1.7221,-1.7538,-1.7619,-1.7733,-1.8087,-1.7483,0.0,0.0,0.0,-1.1736,-1.0327,-1.0555,0.0,-1.3314,0.0,0.0,0.0,0.0,-1.7895,0.0,0.0,0.0,0.0,0.0,0.0,0.0,0.0,-2.2158,-2.2059,-2.2051,-2.187,-2.1717,-2.1725,-2.142,-2.0925,-2.0925,-2.0822,-2.0609,-2.0822,-2.0609,-1.9983,-2.0078,-1.9618,-1.8869,-1.9656,0.0,-2.0101,-2.101,-2.1869,-2.2618,-2.2724,-2.3998,-2.56,-2.529,-2.6032,-2.7176,-2.7059,-2.7496,-2.7814,-2.5945,-2.6154,-2.7367,-2.7367,-2.8371,-2.9434,-2.9434,-2.9704,-2.988,-2.988,-2.9932,-2.9994,-2.9994,-2.9994,-3.0099,-3.0297,-3.0505,-3.0724,-3.0827,-3.0724,-3.0713,-3.0505,-3.0391,-3.0183,-2.9438,-2.9237,-2.9026,-2.8504,-2.8621,-2.8621,-2.8291,-2.8291,-2.8291,-2.8291,-2.8291,-2.8545,-2.8996,-2.9967,-3.1011,-3.2049,-3.3083,-3.3928,-3.4531,-3.4726,-3.4823,-3.4823,-3.4823,-3.4823,-3.4823,-3.4823,-3.4823,-1.546,-1.6187,-1.7302,-1.7619,-1.77,-1.7519,-1.6706,0.0,0.0,0.0,-1.1274,-1.0422,-0.9459,0.0,0.0,0.0,0.0,0.0,0.0,0.0,0.0,0.0,0.0,0.0,0.0,0.0,0.0,0.0,0.0,-2.1713,-2.2501,-2.2644,-2.2342,-2.1725,-2.1725,-2.142,-2.0925,-2.0925,-2.0925,-2.0925,-2.1224,-2.0909,-2.0086,-2.0395,-2.0189,-1.9687,-2.0172,-2.0059,-1.9675,-2.1466,-2.2004,-2.1783,-2.3773,-2.5237,-2.6341,-2.7081,-2.7844,-2.8455,-2.8688,-2.9016,-2.9167,-2.8202,-2.8306,-2.8904,-2.8904,-2.938,-2.9994,-2.9994,-2.9994,-2.9994,-2.9994,-2.9994,-2.9994,-2.9994,-2.9994,-3.0088,-3.0287,-3.0401,-3.0412,-3.0609,-3.0516,-3.0308,-3.0193,-3.0078,-2.9869,-2.9448,-2.9132,-2.8824,-2.8514,-2.8514,-2.8408,-2.8291,-2.8291,-2.8291,-2.8291,-2.8291,-2.8583,-2.9403,-3.0464,-3.1603,-3.2632,-3.3758,-3.4461,-3.4823,-3.4823,-3.4823,-3.4823,-3.4823,-3.4823,-3.4823,-3.4823,-3.4823,-1.6092,-1.6731,-1.7546,-1.77,-1.7781,-1.7282,-1.56,-1.4982,0.0,0.0,-1.0234,-0.9485,-0.9214,0.0,0.0,0.0,0.0,0.0,0.0,0.0,0.0,0.0,0.0,0.0,0.0,0.0,0.0,0.0,0.0,0.0,-2.2484,-2.2644,-2.2342,-2.1928,-2.1725,-2.1522,-2.1121,-2.1121,-2.1121,-2.1121,-2.1623,-2.142,-2.049,-2.0917,-2.0854,-2.0408,-2.0903,-2.0233,-1.9028,-2.1969,-2.2381,-2.1421,-2.4742,-2.6565,-2.7375,-2.8658,-2.9303,-2.9523,-2.9879,-2.9994,-2.9994,-2.9994,-2.9994,-2.9994,-2.9994,-2.9994,-2.9994,-2.9994,-2.9994,-2.9994,-2.9994,-2.9994,-2.9994,-2.9994,-2.9994,-3.0099,-3.0297,-3.0193,-3.0088,-3.0297,-3.0193,-3.0099,-2.9889,-2.9774,-2.9554,-2.9459,-2.9046,-2.8737,-2.8621,-2.8398,-2.8291,-2.8291,-2.8291,-2.8291,-2.8291,-2.8291,-2.8844,-2.9962,-3.1013,-3.2128,-3.325,-3.4284,-3.4823,-3.4823,-3.4823,-3.4823,-3.4823,-3.4823,-3.4823,-3.4823,-3.4823,-3.4823,-1.7054,-1.7624,-1.77,-1.7951,-1.7951,-1.78,-1.707,0.0,0.0,-1.2948,-1.105,-0.9757,-1.0174,-1.0007,0.0,0.0,0.0,0.0,0.0,0.0,0.0,0.0,0.0,0.0,0.0,0.0,0.0,0.0,0.0,0.0,-2.2544,-2.2644,-2.2544,-2.2544,-2.203,-2.1725,-2.1623,-2.1623,-2.1623,-2.1623,-2.2232,-2.2139,-2.1514,-2.1623,-2.1496,-2.1385,-2.1957,-2.1424,0.0,-2.2963,-2.3687,-2.3453,-2.5569,-2.7766,-2.9503,-2.9187,-2.9743,-3.062,-3.0203,-2.9994,-2.9994,-2.9994,-2.9994,-2.9994,-2.9994,-2.9994,-2.9994,-2.9994,-2.9994,-2.9994,-2.9994,-2.9994,-2.9994,-2.9994,-2.9994,-2.9994,-2.9994,-3.0193,-3.0297,-3.0099,-3.0193,-3.0183,-2.9764,-2.9659,-2.9448,-2.8834,-2.8737,-2.8621,-2.8408,-2.8291,-2.8291,-2.8291,-2.8291,-2.8291,-2.8291,-2.8291,-2.8973,-3.0415,-3.1195,-3.2272,-3.364,-3.4461,-3.4823,-3.4823,-3.4823,-3.4823,-3.4823,-3.4823,-3.4823,-3.4823,-3.4823,-3.4823,-1.5724,-1.6835,-1.787,-1.7959,-1.8203,-1.7877,-1.6145,0.0,0.0,-1.1987,-1.0562,-0.9662,-0.9498,-0.9029,-0.9345,-1.1188,0.0,0.0,0.0,0.0,0.0,0.0,0.0,0.0,0.0,0.0,0.0,0.0,0.0,0.0,-2.2601,-2.2644,-2.2443,-2.2038,-2.1827,-2.1725,-2.1725,-2.1725,-2.1928,-2.2241,-2.2443,-2.2241,-2.1725,-2.1725,-2.1821,-2.1981,-2.2509,-2.1238,0.0,-2.3729,-2.4061,-2.2078,-2.6773,-2.9071,-2.9932,-3.0057,-3.0401,-3.0724,-3.0203,-2.9994,-2.9994,-2.9994,-2.9994,-2.9994,-2.9994,-2.9994,-2.9994,-2.9994,-2.9994,-2.9994,-2.9994,-2.9994,-2.9994,-2.9994,-2.9994,-2.9994,-2.9994,-3.0099,-3.0088,-2.9994,-2.9984,-2.9869,-2.9659,-2.9353,-2.894,-2.8737,-2.8514,-2.8408,-2.8291,-2.8291,-2.8291,-2.8291,-2.8291,-2.8291,-2.8291,-2.8291,-2.8883,-3.0085,-3.1056,-3.2172,-3.3387,-3.4331,-3.4823,-3.4823,-3.4823,-3.4823,-3.4823,-3.4823,-3.4823,-3.4823,-3.4823,-3.5004,-1.5112,-1.6485,-1.804,-1.804,-1.8066,-1.7526,0.0,0.0,0.0,-1.1395,-1.0252,-0.9555,-0.8928,-0.8262,-0.841,-1.0292,0.0,-1.1922,0.0,0.0,0.0,0.0,0.0,0.0,0.0,0.0,0.0,0.0,0.0,0.0,-2.2383,-2.2443,-2.2342,-2.1928,-2.1928,-2.1928,-2.1928,-2.1928,-2.2139,-2.2644,-2.2644,-2.2113,-2.1197,-2.1728,-2.1953,-2.2045,-2.2736,-2.1727,0.0,-2.4575,-2.4774,-2.2833,-2.7893,-3.0141,-3.0463,-3.0713,-3.0838,-3.0724,-3.0203,-2.9994,-2.9994,-2.9994,-2.9994,-2.9994,-2.9994,-2.9994,-2.9994,-2.9994,-2.9994,-2.9994,-2.9994,-2.9994,-2.9994,-2.9994,-3.0099,-3.0099,-2.9994,-3.0099,-3.0203,-2.9994,-2.9889,-2.9659,-2.9448,-2.9036,-2.8621,-2.8621,-2.8408,-2.8291,-2.8291,-2.8291,-2.8291,-2.8291,-2.8291,-2.8291,-2.8291,-2.8601,-2.9207,-3.0338,-3.1462,-3.2588,-3.361,-3.4421,-3.4823,-3.4823,-3.4823,-3.4823,-3.4823,-3.4823,-3.4907,-3.5064,-3.5064,-3.5425,-1.5934,-1.7167,-1.804,-1.804,-1.7483,-1.6627,0.0,0.0,0.0,-1.1714,-1.0459,-0.9458,-0.8876,-0.8096,-0.802,-0.9487,-0.9977,0.0,0.0,0.0,0.0,0.0,0.0,0.0,0.0,0.0,0.0,0.0,0.0,0.0,-2.2123,-2.2131,-2.2232,-2.2544,-2.2544,-2.2544,-2.2544,-2.2544,-2.2544,-2.2644,-2.2644,-2.1764,-2.0186,-2.1859,-2.2133,-2.1323,-2.2619,-2.3314,0.0,-2.5358,-2.6423,-2.7085,-2.9123,-3.0557,-3.1527,-3.1023,-3.0838,-3.0724,-3.0203,-2.9994,-2.9994,-2.9994,-2.9994,-2.9994,-2.9994,-2.9994,-2.9994,-2.9994,-2.9994,-2.9994,-2.9994,-2.9994,-2.9994,-2.9994,-3.0193,-3.0287,-3.0099,-3.0412,-3.062,-3.0099,-2.9994,-2.9784,-2.9237,-2.8834,-2.8631,-2.8291,-2.8291,-2.8291,-2.8291,-2.8291,-2.8291,-2.8291,-2.8291,-2.8291,-2.8291,-2.9313,-3.0338,-3.1472,-3.2588,-3.3709,-3.4726,-3.4823,-3.4823,-3.4823,-3.4823,-3.4823,-3.4823,-3.4823,-3.51,-3.5605,-3.5605,-3.617,-1.3339,-1.4543,-1.5617,-1.5171,-1.5635,-1.5651,-1.3909,0.0,0.0,-1.0747,-0.9627,-0.8823,-0.8196,-0.7729,-0.7908,-0.9235,-0.953,0.0,0.0,0.0,0.0,0.0,0.0,0.0,0.0,0.0,0.0,0.0,0.0,0.0,-2.2072,-2.2333,-2.2443,-2.2232,-2.2232,-2.2333,-2.2644,-2.2644,-2.2644,-2.2644,-2.2644,-2.1756,-2.0169,-2.2025,-2.2172,-2.1017,-2.3885,-2.4365,-2.3444,-2.7117,-2.7965,-2.721,-2.996,-3.1208,-3.1333,-3.0931,-3.0724,-3.0505,-3.0099,-2.9994,-2.9994,-2.9994,-2.9994,-2.9994,-2.9994,-2.9994,-2.9994,-2.9994,-2.9994,-2.9994,-2.9994,-2.9994,-2.9994,-2.9994,-3.0099,-3.0088,-2.9994,-3.0099,-3.0203,-2.9994,-2.9669,-2.9343,-2.9132,-2.8717,-2.8408,-2.8291,-2.8291,-2.8291,-2.8291,-2.8291,-2.8291,-2.8291,-2.8291,-2.8291,-2.8291,-2.8601,-2.9628,-3.1472,-3.188,-3.2901,-3.4726,-3.4823,-3.4823,-3.4823,-3.4823,-3.5004,-3.5364,-3.5364,-3.5641,-3.6158,-3.6519,-3.6867,0.0,-1.3169,-1.4286,-1.387,-1.4247,0.0,0.0,0.0,0.0,0.0,-0.97,-0.9082,-0.7901,-0.7885,-0.8172,-0.8531,-0.9285,0.0,0.0,0.0,0.0,0.0,0.0,0.0,0.0,0.0,0.0,0.0,0.0,0.0,-2.1777,-2.203,-2.203,-2.192,-2.2131,-2.2333,-2.2443,-2.2544,-2.2443,-2.2241,-2.2443,-2.1658,-1.9987,-2.2533,-2.2868,-2.1586,-2.4827,-2.5937,0.0,-2.8291,-2.9185,-2.8839,-3.0727,-3.1322,-3.1127,-3.0931,-3.0609,-3.0391,-3.0099,-2.9994,-2.9994,-2.9994,-2.9994,-2.9994,-2.9994,-2.9994,-2.9994,-2.9994,-2.9994,-2.9994,-2.9994,-2.9994,-2.9994,-2.9994,-3.0099,-3.0088,-2.9994,-3.0099,-3.0088,-2.9879,-2.9459,-2.9026,-2.893,-2.8611,-2.8291,-2.8291,-2.8291,-2.8291,-2.8291,-2.8291,-2.8291,-2.8291,-2.8291,-2.8291,-2.8291,-2.9122,-3.0141,-3.1472,-3.2387,-3.3411,-3.4726,-3.4823,-3.4823,-3.4823,-3.5028,-3.5292,-3.5617,-3.6014,-3.6386,-3.6711,-3.724,-3.7493,0.0,0.0,0.0,0.0,0.0,0.0,0.0,0.0,0.0,0.0,0.0,0.0,0.0,-0.8583,-0.8828,-0.7795,-0.9472,0.0,0.0,0.0,0.0,0.0,0.0,0.0,0.0,0.0,0.0,0.0,0.0,0.0,-2.1326,-2.1326,-2.142,-2.1623,-2.2232,-2.2434,-2.2123,-2.2443,-2.2181,-2.1577,-2.219,-2.1493,-1.9637,-2.3144,-2.3943,0.0,-2.5628,-2.7927,-2.9418,-2.9081,-2.9922,-3.1527,-3.1322,-3.123,-3.1127,-3.0931,-3.0609,-3.0297,-3.0099,-2.9994,-2.9994,-2.9994,-2.9994,-2.9994,-2.9994,-2.9994,-2.9994,-2.9994,-2.9994,-2.9994,-2.9994,-2.9994,-2.9994,-2.9994,-3.0193,-3.0287,-3.0099,-3.0193,-3.0183,-2.9659,-2.9343,-2.9036,-2.8727,-2.8514,-2.8291,-2.8291,-2.8291,-2.8291,-2.8291,-2.8291,-2.8291,-2.8291,-2.8291,-2.8301,-2.833,-3.0193,-3.1505,-3.1575,-3.3534,-3.4664,-3.4823,-3.4871,-3.4883,-3.4883,-3.5437,-3.5725,-3.5737,-3.6747,-3.7252,-3.7264,-3.7757,-3.7986,-0.9698,0.0,-1.0876,-1.0398,-1.1,0.0,0.0,0.0,0.0,0.0,0.0,0.0,0.0,0.0,0.0,0.0,0.0,0.0,0.0,0.0,0.0,0.0,0.0,0.0,0.0,0.0,0.0,0.0,0.0,-2.1623,-2.1326,-2.1522,-2.1522,-2.142,-2.1725,-2.1928,-2.2123,-2.1928,-2.1263,-2.0074,-2.1288,-2.0933,-1.9368,-2.2643,-2.3835,-2.3551,-2.6851,-2.8565,-2.8976,-3.0151,-3.0806,-3.1034,-3.1127,-3.092,-3.0609,-3.0724,-3.0516,-3.0099,-2.9994,-2.9994,-2.9994,-2.9994,-2.9994,-2.9994,-2.9994,-2.9994,-2.9994,-2.9994,-2.9994,-2.9994,-2.9994,-2.9994,-2.9994,-2.9994,-3.0099,-3.0099,-2.9994,-2.9879,-2.9764,-2.9659,-2.9142,-2.8727,-2.8727,-2.8514,-2.8291,-2.8291,-2.8291,-2.8291,-2.8291,-2.8291,-2.8291,-2.8291,-2.8291,-2.8418,-2.874,-2.9183,-3.0093,-3.1494,-3.2325,-3.3389,-3.4738,-3.5208,-3.5425,-3.5425,-3.635,-3.6819,-3.6819,-3.7481,-3.7793,-3.7805,-3.7926,-3.7986,-0.8939,-0.9412,-0.9981,-1.0237,-1.062,-1.0896,0.0,0.0,0.0,0.0,0.0,0.0,0.0,0.0,0.0,0.0,0.0,0.0,0.0,0.0,0.0,0.0,0.0,0.0,0.0,0.0,0.0,0.0,0.0,-2.142,-2.1121,-2.1224,-2.1326,-2.1326,-2.1326,-2.142,-2.1725,-2.1725,-2.0892,-1.9296,-2.1416,-2.1587,-1.9969,-2.3765,-2.5343,-2.5383,-2.6952,-2.8366,-2.9431,-2.9237,-2.9849,-3.1034,-3.1034,-3.0817,-3.0609,-3.0724,-3.0412,-2.9994,-2.9994,-2.9994,-2.9994,-2.9994,-2.9994,-2.9994,-2.9994,-2.9994,-2.9994,-2.9994,-2.9994,-2.9994,-2.9994,-2.9994,-2.9994,-2.9994,-2.9994,-2.9994,-2.9879,-2.9669,-2.9554,-2.9248,-2.894,-2.8621,-2.8514,-2.8408,-2.8291,-2.8291,-2.8291,-2.8291,-2.8291,-2.8291,-2.8291,-2.8291,-2.8467,-2.8672,-2.8896,-2.952,-3.0504,-3.1821,-3.2858,-3.3893,-3.5098,-3.5473,-3.5845,-3.6326,-3.6904,-3.7312,-3.7553,-3.7841,-3.7986,-3.7986,-3.7986,-3.7986,-0.8749,-0.922,-0.9955,-1.1267,-1.1032,-1.0822,0.0,0.0,0.0,0.0,0.0,0.0,0.0,0.0,0.0,0.0,0.0,0.0,0.0,0.0,0.0,0.0,0.0,0.0,0.0,0.0,0.0,0.0,0.0,-2.1121,-2.0917,-2.0925,-2.1019,-2.1224,-2.1224,-2.1224,-2.1522,-2.1522,-2.0704,-1.912,-2.1807,-2.2504,-2.141,-2.5273,-2.7212,-2.7613,0.0,0.0,-3.014,-2.8077,-2.8726,-3.1023,-3.0827,-3.0724,-3.0724,-3.0827,-3.0412,-2.9994,-2.9994,-2.9994,-2.9994,-2.9994,-2.9994,-2.9994,-2.9994,-2.9994,-2.9994,-2.9994,-2.9994,-2.9994,-2.9994,-2.9994,-2.9994,-2.9994,-2.9994,-2.9994,-2.9659,-2.9554,-2.9343,-2.8834,-2.8727,-2.8514,-2.8291,-2.8291,-2.8291,-2.8291,-2.8291,-2.8291,-2.8291,-2.8291,-2.8291,-2.8291,-2.8672,-2.9025,-2.9124,-3.0584,-3.175,-3.2509,-3.3974,-3.5095,-3.5833,-3.5857,-3.6314,-3.7288,-3.7312,-3.7529,-3.7986,-3.7986,-3.7986,-3.7986,-3.7986,-3.7986,-0.8986,-0.9236,-0.9754,-1.103,-1.0937,-1.0723,-1.154,0.0,0.0,0.0,0.0,0.0,0.0,0.0,0.0,0.0,0.0,0.0,0.0,0.0,0.0,0.0,0.0,0.0,0.0,0.0,0.0,0.0,-2.1121,-2.0917,-2.0925,-2.0925,-2.0925,-2.0917,-2.1827,-2.2224,-2.2325,-2.142,-2.0704,-2.0201,-2.1807,-2.2967,-2.36,-2.5159,-2.6921,-2.8707,0.0,-2.9168,-3.0068,-2.991,-3.0076,-3.0495,-3.0724,-3.062,-3.0505,-3.0724,-3.0412,-2.9994,-2.9994,-2.9994,-2.9994,-2.9994,-2.9994,-2.9994,-2.9994,-2.9994,-2.9994,-2.9994,-2.9994,-2.9994,-2.9994,-2.9994,-2.9994,-2.9994,-2.9994,-2.9994,-2.9994,-2.9564,-2.9132,-2.9026,-2.8717,-2.8408,-2.8291,-2.8291,-2.8291,-2.8291,-2.8291,-2.8291,-2.8291,-2.8291,-2.8291,-2.8291,-2.8672,-2.9233,-3.0294,-3.1763,-3.3164,-3.415,-3.4498,-3.5327,-3.6928,-3.6952,-3.724,-3.7853,-3.7866,-3.7902,-3.7986,-3.7986,-3.7986,-3.7986,-3.7986,-3.7986,-0.8799,-0.9122,-0.99,-1.1995,-1.1498,-1.1191,-1.383,0.0,0.0,0.0,0.0,0.0,0.0,0.0,0.0,0.0,0.0,0.0,0.0,0.0,0.0,0.0,0.0,0.0,0.0,0.0,0.0,0.0,-2.1623,-2.1725,-2.1725,-2.2316,-2.2601,-2.2601,-2.3103,-2.3402,-2.3402,-2.2911,-2.2136,-2.1266,-2.324,-2.4117,-2.3881,-2.5754,-2.7227,-2.8204,0.0,-2.7852,-2.9332,-2.8645,-2.9168,-3.0391,-3.0505,-3.0505,-3.0391,-3.0412,-3.0203,-2.9994,-2.9994,-2.9994,-2.9994,-2.9994,-2.9994,-2.9994,-2.9994,-2.9889,-2.9774,-2.9774,-2.9774,-2.9774,-2.9994,-2.9879,-2.9774,-2.9994,-2.9994,-2.9889,-2.9564,-2.9343,-2.9026,-2.8717,-2.8504,-2.8291,-2.8291,-2.8291,-2.8291,-2.8291,-2.8291,-2.8291,-2.8291,-2.8291,-2.8379,-2.8603,-2.9014,-2.9788,-3.121,-3.2598,-3.4006,-3.5453,-3.5803,-3.6386,-3.718,-3.7469,-3.7733,-3.7974,-3.7986,-3.7986,-3.7986,-3.7986,-3.7986,-3.7986,-3.7986,-3.7986,-0.8692,-0.904,-0.9891,-1.2444,0.0,-1.1604,-1.5897,0.0,0.0,0.0,0.0,0.0,0.0,0.0,0.0,0.0,0.0,0.0,0.0,0.0,0.0,0.0,0.0,0.0,0.0,0.0,0.0,-2.1522,-2.2123,-2.2627,-2.282,-2.3701,-2.4088,-2.4088,-2.4393,-2.4492,-2.4492,-2.4679,-2.4145,-2.29,-2.4764,-2.5293,-2.4504,-2.6434,-2.7414,-2.757,-2.6486,-2.7071,-2.8778,-2.7796,-2.8598,-3.0391,-3.0391,-3.0391,-3.0391,-3.0099,-2.9994,-2.9994,-2.9994,-2.9994,-2.9994,-2.9994,-2.9994,-2.9994,-2.9889,-2.9774,-2.9554,-2.9448,-2.9448,-2.9459,-2.9679,-2.9669,-2.9659,-2.9879,-2.9889,-2.9774,-2.9343,-2.9132,-2.893,-2.8504,-2.8291,-2.8291,-2.8291,-2.8291,-2.8291,-2.8291,-2.8291,-2.8291,-2.8291,-2.8291,-2.8447,-2.8877,-2.9307,-3.0428,-3.2399,-3.3759,-3.5101,-3.668,-3.7036,-3.7252,-3.7372,-3.7769,-3.7986,-3.7986,-3.7986,-3.7986,-3.7986,-3.7986,-3.7986,-3.7986,-3.7986,-3.7986,-0.8929,-0.9056,-0.9487,-1.1422,-1.1184,0.0,-1.5897,0.0,0.0,0.0,0.0,0.0,0.0,0.0,0.0,0.0,0.0,0.0,0.0,0.0,0.0,0.0,0.0,0.0,0.0,0.0,-2.1326,-2.2325,-2.2426,-2.292,-2.389,-2.4088,-2.4088,-2.4088,-2.5089,-2.5596,-2.5596,-2.6572,-2.6512,-2.5411,-2.5635,-2.6214,-2.7065,-2.72,-2.7414,-2.7652,-2.8146,-2.851,-2.8901,-2.9518,-3.0047,-3.0391,-3.0391,-3.0391,-3.0391,-3.0099,-2.9994,-2.9994,-2.9994,-2.9994,-2.9994,-2.9994,-2.9994,-2.9994,-2.9669,-2.9659,-2.9554,-2.9237,-2.893,-2.8834,-2.9132,-2.9343,-2.9554,-2.9659,-2.9659,-2.9659,-2.9554,-2.9142,-2.8737,-2.8737,-2.8514,-2.8291,-2.8291,-2.8291,-2.8291,-2.8291,-2.8291,-2.8291,-2.8291,-2.8291,-2.8447,-2.8877,-2.9307,-3.0883,-3.3982,-3.5833,-3.7163,-3.7841,-3.7445,-3.7409,-3.7902,-3.7962,-3.7986,-3.7986,-3.7986,-3.7986,-3.7986,-3.7986,-3.7986,-3.7986,-3.7986,-3.7986,-0.87,-0.8914,-0.9641,-1.2235,0.0,0.0,0.0,0.0,0.0,0.0,0.0,0.0,0.0,0.0,0.0,0.0,0.0,0.0,0.0,0.0,0.0,0.0,0.0,0.0,0.0,0.0,-2.2417,-2.361,-2.4205,-2.4698,-2.5089,-2.5781,-2.6071,-2.6071,-2.6466,-2.6668,-2.6668,-2.7061,-2.7061,-2.6668,-2.6668,-2.687,-2.7262,-2.7262,-2.7164,-2.6962,-2.7703,-2.8054,-2.831,-2.9065,-2.9621,-3.0193,-3.0193,-3.0193,-3.0099,-2.9994,-2.9994,-2.9994,-2.9994,-2.9879,-2.9774,-2.9774,-2.9564,-2.9448,-2.9343,-2.9132,-2.9036,-2.894,-2.8809,-2.8947,-2.9308,-2.9248,-2.9142,-2.9554,-2.9448,-2.9237,-2.9046,-2.8834,-2.8621,-2.8514,-2.8408,-2.8291,-2.8291,-2.8291,-2.8291,-2.8291,-2.8291,-2.8291,-2.8291,-2.8291,-2.8555,-2.9248,-3.1258,-3.3056,-3.4303,-3.6479,-3.7769,-3.7974,-3.7793,-3.7781,-3.7974,-3.7986,-3.7986,-3.7986,-3.7986,-3.7986,-3.7986,-3.7986,-3.7986,-3.7986,-3.7986,-3.7986,-0.8525,-0.8814,-0.9589,0.0,0.0,0.0,0.0,0.0,0.0,0.0,0.0,0.0,0.0,0.0,0.0,0.0,0.0,0.0,0.0,0.0,0.0,0.0,0.0,0.0,0.0,-2.312,-2.3511,-2.4786,-2.5392,-2.5887,-2.6187,-2.687,-2.7262,-2.7262,-2.7262,-2.7262,-2.7262,-2.7262,-2.7262,-2.7262,-2.7262,-2.7262,-2.7262,-2.7262,-2.6976,-2.6526,-2.7252,-2.771,-2.7976,-2.8594,-2.9363,-2.9994,-2.9994,-2.9994,-2.9994,-2.9994,-2.9994,-2.9994,-2.9889,-2.9774,-2.9554,-2.9448,-2.9237,-2.9132,-2.9036,-2.8834,-2.8737,-2.8621,-2.8711,-2.8927,-2.9252,-2.9146,-2.9013,-2.9278,-2.9132,-2.893,-2.8727,-2.8621,-2.8514,-2.8291,-2.8291,-2.8291,-2.8291,-2.8291,-2.8291,-2.8291,-2.8291,-2.8291,-2.8291,-2.8408,-2.8927,-3.0217,-3.2748,-3.4558,-3.4891,-3.6881,-3.7986,-3.7986,-3.7986,-3.7986,-3.7986,-3.7986,-3.7986,-3.7986,-3.7986,-3.7986,-3.7986,-3.7986,-3.7986,-3.7986,-3.7986,-3.7986,-0.8542,-0.883,0.0,0.0,0.0,0.0,0.0,0.0,0.0,0.0,0.0,0.0,0.0,0.0,0.0,0.0,0.0,0.0,0.0,0.0,0.0,0.0,0.0,0.0,0.0,-2.4285,-2.459,-2.5596,-2.5693,-2.6187,-2.7251,-2.7262,-2.7262,-2.7262,-2.7262,-2.7262,-2.7262,-2.7262,-2.7262,-2.7262,-2.7262,-2.7262,-2.7262,-2.7262,-2.6976,-2.6526,-2.7242,-2.7699,-2.7965,-2.8594,-2.9363,-2.9994,-2.9994,-2.9994,-2.9994,-2.9994,-2.9994,-2.9994,-2.9659,-2.9554,-2.9554,-2.9237,-2.9132,-2.9026,-2.8727,-2.8737,-2.8621,-2.8408,-2.8603,-2.8828,-2.8739,-2.9064,-2.9283,-2.8836,-2.8737,-2.8737,-2.8737,-2.8514,-2.8291,-2.8291,-2.8291,-2.8291,-2.8291,-2.8291,-2.8291,-2.8291,-2.8291,-2.8291,-2.8301,-2.8662,-2.9679,-3.1746,-3.3487,-3.4891,-3.6122,-3.7322,-3.7986,-3.7986,-3.7986,-3.7986,-3.7986,-3.7986,-3.7986,-3.7986,-3.7986,-3.7986,-3.7986,-3.7986,-3.7986,-3.7986,-3.7986,-3.7986,-0.9806,0.0,0.0,0.0,0.0,0.0,0.0,0.0,0.0,0.0,0.0,0.0,0.0,0.0,0.0,0.0,0.0,0.0,0.0,0.0,0.0,0.0,0.0,0.0,-2.5294,-2.5285,-2.5684,-2.6764,-2.687,-2.6965,-2.7262,-2.7262,-2.7262,-2.7262,-2.7262,-2.7262,-2.7262,-2.7262,-2.7262,-2.7262,-2.7262,-2.7262,-2.7262,-2.7262,-2.7071,-2.6805,-2.683,-2.7047,-2.7531,-2.8462,-2.9363,-2.9994,-2.9994,-2.9994,-2.9994,-2.9994,-2.9879,-2.9669,-2.9659,-2.9353,-2.894,-2.8834,-2.8717,-2.8504,-2.8398,-2.8408,-2.8466,-2.8652,-2.9043,-2.9277,-2.8957,-2.9172,-2.9429,-2.8799,-2.8514,-2.8408,-2.8408,-2.8398,-2.8291,-2.8291,-2.8291,-2.8291,-2.8291,-2.8291,-2.8291,-2.8291,-2.8291,-2.8398,-2.8701,-3.0118,-3.1328,-3.1919,-3.4152,-3.5795,-3.6122,-3.7322,-3.7986,-3.7986,-3.7986,-3.7986,-3.7986,-3.7986,-3.7986,-3.7986,-3.8371,-3.8383,-3.7986,-3.8572,-3.856,-3.7986,-3.8584,-3.8766,-1.0294,0.0,0.0,0.0,0.0,0.0,0.0,0.0,0.0,0.0,0.0,0.0,0.0,0.0,0.0,0.0,0.0,0.0,0.0,0.0,0.0,0.0,0.0,0.0,-2.6274,-2.638,-2.6572,-2.7262,-2.7262,-2.7262,-2.7262,-2.7262,-2.7262,-2.7262,-2.7262,-2.7262,-2.7262,-2.7262,-2.7262,-2.7262,-2.7262,-2.7262,-2.7262,-2.7262,-2.7177,-2.6911,-2.6784,-2.7019,-2.7592,-2.8482,-2.9363,-2.9994,-2.9994,-2.9994,-2.9994,-2.9879,-2.9774,-2.9554,-2.9353,-2.9046,-2.8737,-2.8621,-2.8398,-2.8291,-2.8291,-2.8408,-2.8594,-2.8848,-2.9355,-2.9678,-2.9072,-2.9248,-2.9466,-2.8721,-2.8408,-2.8291,-2.8291,-2.8291,-2.8291,-2.8291,-2.8291,-2.8291,-2.8291,-2.8291,-2.8291,-2.8291,-2.8437,-2.876,-2.9346,-3.0964,-3.2246,-3.287,-3.4934,-3.634,-3.6881,-3.7548,-3.7986,-3.7986,-3.7986,-3.7986,-3.7986,-3.7986,-3.8082,-3.831,-3.8755,-3.8959,-3.8826,-3.9369,-3.9465,-3.9041,-3.9477,-3.9635,0.0,0.0,0.0,0.0,0.0,0.0,0.0,0.0,0.0,0.0,0.0,0.0,0.0,0.0,0.0,0.0,0.0,0.0,0.0,0.0,0.0,0.0,0.0,-2.6486,-2.7262,-2.7262,-2.7262,-2.7262,-2.7262,-2.7262,-2.7262,-2.7262,-2.7262,-2.7262,-2.7262,-2.7262,-2.7262,-2.7262,-2.7262,-2.7262,-2.7262,-2.7262,-2.7262,-2.7262,-2.7177,-2.6825,-2.7037,-2.7361,-2.7915,-2.8543,-2.9291,-2.9942,-2.9973,-2.9994,-2.9994,-2.9669,-2.9554,-2.9448,-2.894,-2.8737,-2.8621,-2.8398,-2.8291,-2.8291,-2.8291,-2.8584,-2.8926,-2.8965,-2.956,-3.001,-2.9189,-2.9277,-2.9355,-2.8496,-2.8291,-2.8291,-2.8291,-2.8291,-2.8291,-2.8291,-2.8291,-2.8291,-2.8291,-2.8291,-2.8301,-2.834,-2.874,-2.9316,-3.0201,-3.1442,-3.2839,-3.4403,-3.5674,-3.6785,-3.788,-3.7986,-3.7986,-3.7986,-3.7986,-3.7986,-3.7986,-3.8034,-3.8298,-3.8815,-3.9237,-3.9588,-4.0001,-4.0379,-4.0597,-4.0548,-4.0609,-4.0634,0.0,0.0,0.0,0.0,0.0,0.0,0.0,0.0,0.0,0.0,0.0,0.0,0.0,0.0,0.0,0.0,0.0,0.0,0.0,0.0,0.0,0.0,0.0,-2.7061,-2.7262,-2.7262,-2.7262,-2.7262,-2.7262,-2.7262,-2.7262,-2.7262,-2.7262,-2.7262,-2.7262,-2.7262,-2.7262,-2.7262,-2.7262,-2.7262,-2.7262,-2.7262,-2.7262,-2.7262,-2.7071,-2.6602,-2.6607,-2.6899,-2.7351,-2.7895,-2.8635,-2.9487,-2.9849,-2.9994,-2.9994,-2.9669,-2.9448,-2.9132,-2.8834,-2.8514,-2.8398,-2.8291,-2.8291,-2.8291,-2.8291,-2.8584,-2.8994,-2.9336,-2.9805,-3.0078,-2.956,-2.9502,-2.9355,-2.8496,-2.8291,-2.8291,-2.8291,-2.8291,-2.8291,-2.8291,-2.8291,-2.8291,-2.8291,-2.8291,-2.8408,-2.874,-2.9434,-3.031,-3.1493,-3.2944,-3.4327,-3.5663,-3.6881,-3.7761,-3.7986,-3.7986,-3.7986,-3.7986,-3.7986,-3.7986,-3.7986,-3.8407,-3.8695,-3.8815,-3.994,-4.0317,-4.0001,-4.0991,-4.1089,-4.0572,-4.1113,-4.1323,0.0,0.0,0.0,0.0,0.0,0.0,0.0,0.0,0.0,0.0,0.0,0.0,0.0,0.0,0.0,0.0,0.0,0.0,0.0,0.0,0.0,0.0,-2.7061,-2.7262,-2.7262,-2.7262,-2.7262,-2.7262,-2.7262,-2.7262,-2.7262,-2.7262,-2.7262,-2.7262,-2.7262,-2.7262,-2.7262,-2.7262,-2.7262,-2.7262,-2.7262,-2.7262,-2.7262,-2.7262,-2.6976,-2.6496,-2.6496,-2.6758,-2.721,-2.7763,-2.8503,-2.9352,-2.9818,-2.9889,-2.9774,-2.9448,-2.9132,-2.8824,-2.8621,-2.8408,-2.8291,-2.8291,-2.8291,-2.833,-2.8535,-2.8887,-2.9316,-2.9746,-3.0185,-3.0381,-2.9736,-2.957,-2.9355,-2.8496,-2.8291,-2.8291,-2.8291,-2.8291,-2.8291,-2.8291,-2.8291,-2.8291,-2.8291,-2.8457,-2.8809,-2.9434,-3.0456,-3.138,-3.2271,-3.4072,-3.5454,-3.6122,-3.7322,-3.7986,-3.7986,-3.7986,-3.7986,-3.7986,-3.7986,-3.8106,-3.8371,-3.89,-3.9188,-3.9395,-4.0525,-4.1139,-4.1225,-4.1954,-4.2065,-4.1668,-4.2409,-4.2559,0.0,0.0,0.0,0.0,0.0,0.0,0.0,0.0,0.0,0.0,0.0,0.0,0.0,0.0,0.0,0.0,0.0,0.0,0.0,0.0,0.0,0.0,-2.7452,-2.7262,-2.7262,-2.7262,-2.7262,-2.7262,-2.7262,-2.7262,-2.7262,-2.7262,-2.7262,-2.7262,-2.7262,-2.7262,-2.7262,-2.7262,-2.7262,-2.7262,-2.7262,-2.7262,-2.7262,-2.7262,-2.7071,-2.6602,-2.6496,-2.6707,-2.7198,-2.7723,-2.8452,-2.9239,-2.9787,-2.9879,-2.9659,-2.9237,-2.893,-2.8727,-2.8398,-2.8291,-2.8291,-2.8291,-2.834,-2.8467,-2.8809,-2.9277,-2.9756,-3.0098,-3.0478,-3.0586,-2.9775,-2.9512,-2.9258,-2.8476,-2.8291,-2.8291,-2.8291,-2.8291,-2.8291,-2.8291,-2.835,-2.8398,-2.8398,-2.8809,-2.9375,-3.0088,-3.1257,-3.2332,-3.2964,-3.4902,-3.6231,-3.6449,-3.7429,-3.7986,-3.7986,-3.7986,-3.7986,-3.7986,-3.7986,-3.8238,-3.8791,-3.932,-3.9756,-4.0257,-4.1041,-4.1755,-4.2525,-4.2974,-4.3209,-4.3209,-4.3666,-4.3666,0.0,0.0,0.0,0.0,0.0,0.0,0.0,0.0,0.0,0.0,0.0,0.0,0.0,0.0,0.0,0.0,0.0,0.0,0.0,0.0,0.0,0.0,-2.7357,-2.7262,-2.7262,-2.7262,-2.7262,-2.7262,-2.7262,-2.7262,-2.7262,-2.7262,-2.7262,-2.7262,-2.7262,-2.7262,-2.7262,-2.7262,-2.7262,-2.7262,-2.7262,-2.7262,-2.7262,-2.7262,-2.7167,-2.6805,-2.6602,-2.6633,-2.6957,-2.7592,-2.8167,-2.8794,-2.9653,-2.9994,-2.9889,-2.9343,-2.9026,-2.9026,-2.8504,-2.8291,-2.8291,-2.8291,-2.8535,-2.8848,-2.8896,-2.9473,-3.0127,-3.0176,-3.0244,-3.0185,-2.9697,-2.9287,-2.8887,-2.8408,-2.8291,-2.8291,-2.8291,-2.8291,-2.8291,-2.8291,-2.8584,-2.8838,-2.8838,-2.9492,-3.0068,-3.0176,-3.1539,-3.2943,-3.4,-3.5344,-3.6557,-3.7655,-3.7868,-3.7986,-3.7986,-3.7986,-3.7986,-3.7986,-3.7986,-3.8238,-3.8791,-3.932,-4.0048,-4.1065,-4.1717,-4.2137,-4.2525,-4.3321,-4.3776,-4.3776,-4.3899,-4.3899,0.0,0.0,0.0,0.0,0.0,0.0,0.0,0.0,0.0,0.0,0.0,0.0,0.0,0.0,0.0,0.0,0.0,0.0,0.0,0.0,0.0,0.0,-2.7107,-2.7262,-2.7262,-2.7262,-2.7262,-2.7262,-2.7262,-2.7262,-2.7262,-2.7262,-2.7262,-2.7262,-2.7262,-2.7262,-2.7262,-2.7262,-2.7262,-2.7262,-2.7262,-2.7262,-2.7262,-2.7262,-2.7177,-2.69,-2.6602,-2.6699,-2.6972,-2.7572,-2.8127,-2.8711,-2.9632,-2.9774,-2.9459,-2.9237,-2.892,-2.8611,-2.8398,-2.8291,-2.8291,-2.8291,-2.8574,-2.8965,-2.9209,-2.9717,-3.0244,-3.0518,-3.04,-3.0098,-2.9678,-2.9248,-2.8809,-2.8398,-2.8291,-2.8291,-2.8291,-2.8291,-2.8291,-2.8291,-2.8633,-2.8994,-2.9248,-2.9795,-3.0502,-3.1435,-3.2767,-3.4123,-3.5234,-3.6449,-3.7429,-3.7974,-3.7986,-3.7986,-3.7986,-3.7986,-3.7986,-3.7986,-3.8274,-3.8695,-3.9236,-3.9765,-4.0519,-4.1492,-4.1862,-4.2312,-4.275,-4.3555,-4.3679,-4.3432,-4.4094,-4.4216,0.0,0.0,0.0,0.0,0.0,0.0,0.0,0.0,0.0,0.0,0.0,0.0,0.0,0.0,0.0,0.0,0.0,0.0,0.0,0.0,0.0,0.0,-2.6879,-2.7127,-2.7251,-2.7262,-2.7262,-2.7262,-2.7262,-2.7262,-2.7262,-2.7262,-2.7262,-2.7262,-2.7262,-2.7262,-2.7262,-2.7262,-2.7262,-2.7262,-2.7262,-2.7262,-2.7262,-2.7262,-2.7167,-2.6986,-2.6699,-2.6688,-2.7058,-2.7671,-2.8127,-2.8711,-2.9632,-2.9669,-2.9237,-2.9132,-2.8814,-2.8398,-2.8291,-2.8291,-2.831,-2.8418,-2.874,-2.917,-2.96,-3.0029,-3.0449,-3.0791,-3.0478,-2.9961,-2.9648,-2.917,-2.8682,-2.8369,-2.8291,-2.8291,-2.8291,-2.8291,-2.833,-2.8428,-2.8799,-2.9219,-2.9648,-3.0088,-3.0938,-3.2519,-3.3674,-3.4891,-3.6013,-3.7215,-3.7986,-3.7986,-3.7986,-3.7986,-3.7986,-3.7986,-3.8046,-3.819,-3.8587,-3.9116,-3.9777,-4.0186,-4.0745,-4.1594,-4.1972,-4.2324,-4.2862,-4.3653,-4.3776,-4.3209,-4.4409,-4.4626,0.0,0.0,0.0,0.0,0.0,0.0,0.0,0.0,0.0,0.0,0.0,0.0,0.0,0.0,0.0,0.0,0.0,0.0,0.0,0.0,0.0,-2.6228,-2.6486,-2.6775,-2.722,-2.7262,-2.7262,-2.7262,-2.7262,-2.7262,-2.7262,-2.7262,-2.7262,-2.7262,-2.7262,-2.7262,-2.7262,-2.7262,-2.7262,-2.7262,-2.7262,-2.7262,-2.7262,-2.7262,-2.7262,-2.7262,-2.6688,-2.6784,-2.7334,-2.7771,-2.8127,-2.8711,-2.9632,-2.9774,-2.9554,-2.9237,-2.893,-2.8621,-2.8408,-2.8291,-2.8359,-2.876,-2.918,-2.9619,-3.0039,-3.0488,-3.0859,-3.0889,-3.0273,-2.96,-2.958,-2.8945,-2.832,-2.8301,-2.8291,-2.8291,-2.8291,-2.8291,-2.8408,-2.8809,-2.9238,-2.9668,-3.0098,-3.0547,-3.1315,-3.2457,-3.3674,-3.4891,-3.6013,-3.7215,-3.7986,-3.7986,-3.7986,-3.7986,-3.7986,-3.7986,-3.8214,-3.8743,-3.8803,-3.9284,-4.0306,-4.0379,-4.0745,-4.1594,-4.1972,-4.2211,-4.2525,-4.3958,-4.4422,-4.3899,-4.5072,-4.5274,0.0,0.0,0.0,0.0,0.0,0.0,0.0,0.0,0.0,0.0,0.0,0.0,0.0,0.0,0.0,0.0,0.0,0.0,0.0,0.0,0.0,-2.5048,-2.5665,-2.6164,-2.6337,-2.6611,-2.689,-2.6986,-2.59,-2.5736,-2.72,-2.6053,-2.596,-2.722,-2.7262,-2.7262,-2.7262,-2.7262,-2.7262,-2.7262,-2.7262,-2.7262,-2.7262,-2.7262,-2.7262,-2.7262,-2.6688,-2.6699,-2.7058,-2.7671,-2.8127,-2.8489,-2.9528,-2.9669,-2.9237,-2.9132,-2.8814,-2.8408,-2.8291,-2.8291,-2.8359,-2.8779,-2.9219,-2.9648,-3.0068,-3.0518,-3.083,-3.0537,-3.0019,-2.9502,-2.9228,-2.8721,-2.8291,-2.8291,-2.8291,-2.8291,-2.8291,-2.8506,-2.874,-2.8887,-2.9492,-3.0019,-3.0166,-3.1247,-3.2457,-3.3561,-3.4792,-3.6002,-3.7215,-3.7761,-3.7986,-3.7986,-3.7986,-3.7986,-3.7986,-3.7986,-3.8214,-3.8779,-3.9128,-3.9645,-4.0367,-4.0715,-4.1106,-4.139,-4.2174,-4.2737,-4.3073,-4.3861,-4.4107,-4.3899,-4.4626,-4.4951,0.0,0.0,0.0,0.0,0.0,0.0,0.0,0.0,0.0,0.0,0.0,0.0,0.0,0.0,0.0,0.0,0.0,0.0,0.0,0.0,0.0,-2.4405,-2.4937,-2.55,-2.5792,-2.6094,-2.6431,-2.6688,-2.5492,0.0,-2.7105,-2.593,-2.5828,-2.722,-2.7262,-2.7262,-2.7262,-2.7262,-2.7262,-2.7262,-2.7262,-2.7262,-2.7357,-2.7631,-2.7809,-2.7715,-2.761,-2.7431,-2.744,-2.8048,-2.8507,-2.878,-2.9921,-2.9973,-2.9237,-2.9132,-2.8814,-2.8408,-2.8291,-2.8389,-2.8574,-2.9004,-2.9434,-2.9863,-3.0293,-3.0644,-3.0791,-3.0332,-2.9893,-2.9473,-2.9033,-2.8603,-2.8291,-2.8291,-2.8291,-2.833,-2.8476,-2.8721,-2.8965,-2.9111,-2.9707,-3.0358,-3.0953,-3.1909,-3.3243,-3.4781,-3.5674,-3.6677,-3.7868,-3.7986,-3.7986,-3.7986,-3.7986,-3.7986,-3.7986,-3.8154,-3.8491,-3.9044,-3.9573,-4.0114,-4.0643,-4.0992,-4.1299,-4.1287,-4.2174,-4.2949,-4.3713,-4.3971,-4.4107,-4.3899,-4.4531,-4.5056,0.0,0.0,0.0,0.0,0.0,0.0,0.0,0.0,0.0,0.0,0.0,0.0,0.0,0.0,0.0,0.0,0.0,0.0,0.0,0.0,0.0,-2.4088,-2.4326,-2.4847,-2.5702,-2.5718,-2.6013,-2.6446,-2.6446,-2.6542,-2.69,-2.69,-2.6986,-2.7262,-2.7262,-2.7262,-2.7262,-2.7262,-2.7262,-2.7262,-2.7262,-2.7262,-2.7357,-2.8269,-2.8724,-2.8724,-2.9143,-2.9084,-2.8481,-2.89,-2.937,-2.9762,-3.0809,-3.0474,-2.9554,-2.9237,-2.893,-2.8621,-2.8398,-2.8564,-2.8994,-2.9434,-2.9853,-3.0283,-3.0752,-3.0879,-3.0771,-3.0312,-2.9873,-2.9453,-2.9014,-2.8603,-2.8291,-2.8291,-2.8291,-2.8408,-2.8828,-2.8926,-2.9062,-2.9613,-3.0035,-3.0799,-3.2488,-3.2799,-3.3572,-3.5904,-3.6231,-3.6677,-3.7868,-3.7986,-3.7986,-3.7986,-3.7986,-3.7986,-3.7998,-3.8503,-3.9056,-3.9597,-4.0114,-4.0631,-4.116,-4.1184,-4.1287,-4.1606,-4.1972,-4.2862,-4.4261,-4.4505,-4.4409,-4.401,-4.4774,-4.5631,-0.8242,0.0,0.0,0.0,0.0,0.0,0.0,0.0,0.0,0.0,0.0,0.0,0.0,0.0,0.0,0.0,0.0,0.0,0.0,0.0,0.0,-2.3399,-2.3782,-2.4067,-2.4303,-2.4893,-2.5401,0.0,-2.4661,-2.4864,-2.6829,-2.7081,-2.7262,-2.7262,-2.7262,-2.7262,-2.7262,-2.7262,-2.7262,-2.7262,-2.7262,-2.7262,-2.7357,-2.8269,-2.8642,-2.8477,-2.9154,-2.9827,-3.0523,-2.9613,-2.9282,-2.9476,-3.0126,-2.9869,-2.9237,-2.9132,-2.8824,-2.8408,-2.8291,-2.8564,-2.8994,-2.9434,-3.0508,-3.138,-3.0974,-3.1327,-3.14,-3.0079,-2.9434,-2.9004,-2.8584,-2.8379,-2.8291,-2.8291,-2.8291,-2.8408,-2.8828,-2.9799,-3.0799,-3.1248,-3.1717,-3.2416,-3.3765,-3.4681,-3.5454,-3.6122,-3.6893,-3.7655,-3.7986,-3.7986,-3.7986,-3.7986,-3.7986,-3.8154,-3.8551,-3.8731,-3.92,-4.0114,-4.0319,-4.0631,-4.116,-4.1184,-4.1287,-4.1606,-4.2712,-4.3492,-4.392,-4.3835,-4.4177,-4.4869,-4.5276,-4.577,0.0,0.0,0.0,0.0,0.0,0.0,-1.0447,-1.3303,0.0,0.0,0.0,0.0,0.0,0.0,0.0,0.0,0.0,0.0,0.0,0.0,0.0,0.0,-2.3359,-2.3584,-2.3769,-2.4238,-2.4771,-2.5332,-2.4467,-2.474,-2.6628,-2.7071,-2.7262,-2.7262,-2.7262,-2.7262,-2.7262,-2.7262,-2.7262,-2.7262,-2.7726,-2.7904,-2.7904,-2.9268,-2.9818,-2.9646,-3.0351,-3.1207,-3.1932,-3.0813,-3.0557,-3.0822,-3.0906,-3.0785,-3.0359,-2.9848,-2.9428,-2.9112,-2.8495,-2.8682,-2.9339,-3.0138,-3.1187,-3.22,-3.1812,-3.1787,-3.1634,-3.0013,-2.9131,-2.8603,-2.8359,-2.8291,-2.8291,-2.8291,-2.8428,-2.878,-2.9729,-3.0819,-3.175,-3.1899,-3.2784,-3.3786,-3.4902,-3.5674,-3.6352,-3.6893,-3.7548,-3.7986,-3.7986,-3.7986,-3.7986,-3.7986,-3.819,-3.8467,-3.8791,-3.9224,-3.9741,-4.0355,-4.0595,-4.086,-4.1172,-4.1184,-4.1402,-4.1948,-4.2837,-4.3492,-4.4055,-4.4068,-4.4526,-4.5223,-4.533,-4.5846,0.0,0.0,0.0,0.0,0.0,0.0,-1.0539,-1.4202,-1.7331,0.0,0.0,0.0,0.0,0.0,0.0,0.0,0.0,0.0,0.0,0.0,0.0,0.0,-2.2988,-2.3291,-2.3682,-2.376,-2.4131,-2.4932,-2.5183,-2.5599,-2.6476,-2.6976,-2.7262,-2.7262,-2.7262,-2.7262,-2.7262,-2.7262,-2.7347,-2.7441,-2.8258,-2.8724,-2.8899,-3.0722,-3.1436,-3.1258,-3.2025,-3.2555,-3.278,-3.2277,-3.2283,-3.2792,-3.2508,-3.2409,-3.2207,-3.0856,-3.0453,-3.0349,-2.9066,-2.9213,-3.0117,-3.135,-3.2295,-3.3006,-3.2737,-3.2486,-3.1996,-3.0097,-2.9095,-2.8495,-2.8495,-2.8398,-2.8398,-2.8601,-2.8927,-2.956,-3.1184,-3.196,-3.2406,-3.2458,-3.3587,-3.5002,-3.6231,-3.6352,-3.6773,-3.7868,-3.7986,-3.7986,-3.7986,-3.7986,-3.7986,-3.7986,-3.8479,-3.8839,-3.89,-3.9826,-4.0427,-4.0487,-4.092,-4.1184,-4.1299,-4.1299,-4.1745,-4.2638,-4.2638,-4.3333,-4.4513,-4.5056,-4.521,-4.5278,-4.5395,-4.6117,0.0,0.0,0.0,0.0,0.0,0.0,-1.076,-1.2199,-1.3683,0.0,0.0,0.0,0.0,0.0,0.0,0.0,0.0,0.0,0.0,0.0,0.0,0.0,-2.2006,-2.3174,-2.3262,-2.3584,-2.4004,-2.4502,-2.5575,-2.631,-2.6496,-2.6976,-2.7262,-2.7262,-2.7262,-2.7262,-2.7262,-2.7262,-2.7726,-2.8445,-2.8631,-2.9084,-2.9897,-3.089,-3.1258,-3.0991,-3.1749,-3.2507,-3.3128,-3.2336,-3.2283,-3.2792,-3.2508,-3.2297,-3.1971,-3.0856,-3.0867,-3.1219,-3.0452,-3.1144,-3.2416,-3.3117,-3.4295,-3.5046,-3.287,-3.3073,-3.3587,-3.062,-2.9751,-2.9618,-2.9618,-2.891,-2.8708,-3.0546,-3.0695,-3.0826,-3.2351,-3.3796,-3.5029,-3.5339,-3.5606,-3.6231,-3.7429,-3.7655,-3.7761,-3.7986,-3.7986,-3.7986,-3.7986,-3.7986,-3.7986,-3.7986,-3.8479,-3.8984,-3.9417,-4.003,-4.0571,-4.1004,-4.1124,-4.1414,-4.1871,-4.1871,-4.23,-4.3172,-4.3751,-4.4533,-4.566,-4.577,-4.5726,-4.5526,-4.6452,-4.6999,0.0,0.0,0.0,-0.9571,0.0,0.0,0.0,-1.2175,-1.3487,-1.3626,-1.4964,0.0,0.0,0.0,0.0,0.0,0.0,0.0,0.0,0.0,0.0,0.0,-2.2395,-2.3135,-2.3135,-2.333,-2.373,-2.4365,-2.5407,-2.6169,-2.6486,-2.689,-2.7167,-2.7262,-2.7262,-2.7262,-2.7262,-2.7262,-2.7809,-2.8724,-2.9176,-2.9897,-3.08,-3.1625,-3.1813,-3.1484,-3.2128,-3.272,-3.3308,-3.3055,-3.335,-3.375,-3.3208,-3.3201,-3.33,-3.2185,-3.2083,-3.2353,-3.1704,-3.2168,-3.3178,-3.4307,-3.5364,-3.5911,-3.4174,-3.363,-3.312,-3.1256,-3.0753,-3.0753,-3.0753,-3.0349,-3.0297,-3.1674,-3.1876,-3.234,-3.3994,-3.5153,-3.6137,-3.6942,-3.7108,-3.7322,-3.788,-3.7986,-3.7986,-3.7986,-3.7986,-3.7986,-3.7986,-3.7986,-3.8082,-3.8371,-3.8888,-3.9429,-3.9958,-4.0487,-4.0896,-4.1172,-4.1528,-4.1757,-4.211,-4.2437,-4.2874,-4.3615,-4.4474,-4.5213,-4.5844,-4.6409,-4.6586,-4.6486,-4.7061,-4.7479,0.0,0.0,0.0,0.0,0.0,-1.0554,0.0,0.0,0.0,-1.2991,0.0,0.0,0.0,0.0,0.0,0.0,0.0,0.0,0.0,0.0,0.0,0.0,-2.1627,-2.1934,-2.2021,-2.2402,-2.3135,-2.4326,-2.5115,-2.5739,-2.637,-2.6699,-2.6996,-2.7262,-2.7262,-2.7262,-2.7262,-2.7452,-2.7998,-2.8899,-2.9897,-3.0722,-3.1536,-3.2264,-3.2376,-3.2062,-3.2519,-3.2962,-3.3332,-3.3837,-3.4354,-3.4726,-3.4103,-3.4213,-3.4628,-3.361,-3.3369,-3.3619,-3.3093,-3.326,-3.4067,-3.5534,-3.5975,-3.5841,-3.5525,-3.3989,-3.2366,-3.1991,-3.188,-3.188,-3.188,-3.1779,-3.1797,-3.2797,-3.3182,-3.3766,-3.5559,-3.6198,-3.6773,-3.7761,-3.7986,-3.7986,-3.7986,-3.7986,-3.7986,-3.7986,-3.7986,-3.7986,-3.7986,-3.807,-3.831,-3.8767,-3.9381,-3.9934,-4.0355,-4.0998,-4.1299,-4.1184,-4.1871,-4.2324,-4.2324,-4.2974,-4.353,-4.4068,-4.509,-4.5689,-4.5794,-4.6826,-4.7336,-4.7336,-4.7453,-4.7741,0.0,0.0,0.0,0.0,-1.1057,0.0,0.0,0.0,-1.2206,-1.1297,0.0,0.0,0.0,0.0,0.0,0.0,0.0,0.0,0.0,0.0,0.0,-1.5071,-1.6461,-1.7617,-1.7998,-1.9746,-2.1846,-2.4238,-2.5115,-2.5645,-2.6071,-2.6602,-2.69,-2.69,-2.7167,-2.7262,-2.7262,-2.7925,-2.8746,-2.9715,-3.0441,-3.1359,-3.23,-3.2125,-3.2038,-3.1974,-3.2352,-3.2803,-3.3332,-3.3837,-3.4354,-3.4823,-3.4726,-3.4726,-3.4628,-3.361,-3.41,-3.5282,-3.4762,-3.548,-3.6856,-3.7498,-3.6426,-3.4993,-3.5426,-3.4457,-3.3069,-3.3012,-3.3001,-3.3001,-3.3001,-3.2286,-3.2205,-3.4663,-3.4862,-3.5051,-3.6645,-3.7391,-3.7868,-3.7986,-3.7986,-3.7986,-3.7986,-3.7986,-3.7986,-3.7986,-3.7986,-3.7986,-3.7986,-3.8419,-3.8743,-3.8815,-3.9717,-4.0331,-4.0391,-4.1339,-4.1757,-4.1184,-4.2312,-4.2874,-4.2874,-4.3958,-4.4505,-4.4613,-4.5213,-4.5872,-4.6382,-4.7022,-4.7336,-4.7349,-4.7858,-4.812,0.0,0.0,0.0,0.0,0.0,0.0,-1.2496,0.0,-1.1054,0.0,0.0,0.0,0.0,0.0,0.0,0.0,-1.1123,0.0,0.0,0.0,0.0,0.0,0.0,0.0,-1.9121,-1.8926,-1.9785,-2.2373,-2.3065,-2.3673,-2.4197,-2.5802,-2.6699,-2.69,-2.7167,-2.7547,-2.7925,-2.8207,-2.9106,-3.0441,-3.0722,-3.1371,-3.2125,-3.2038,-3.2119,-3.228,-3.2719,-3.3248,-3.3765,-3.4282,-3.4631,-3.4823,-3.4823,-3.4823,-3.4726,-3.4323,-3.4754,-3.5589,-3.5687,-3.6323,-3.7228,-3.7457,-3.6486,-3.5277,-3.5577,-3.4936,-3.4115,-3.4115,-3.4115,-3.4115,-3.4115,-3.403,-3.428,-3.574,-3.6152,-3.6469,-3.7424,-3.7829,-3.7986,-3.7986,-3.7986,-3.7986,-3.7986,-3.7986,-3.7986,-3.7986,-3.7986,-3.8094,-3.8419,-3.8671,-3.9056,-3.9669,-4.0126,-4.0636,-4.1278,-4.1862,-4.2098,-4.2199,-4.3085,-4.3628,-4.3958,-4.4396,-4.4892,-4.5245,-4.582,-4.6408,-4.6983,-4.7545,-4.7819,-4.7832,-4.8068,-4.8185,-1.4486,0.0,0.0,0.0,0.0,0.0,0.0,0.0,0.0,0.0,0.0,0.0,0.0,0.0,-1.0947,-1.1116,0.0,-1.1832,0.0,0.0,0.0,0.0,0.0,0.0,0.0,-1.8008,-1.8262,-2.0294,-2.1367,-2.2154,-2.2755,-2.5115,-2.6602,-2.6805,-2.7357,-2.7831,-2.8395,-2.8757,-2.9566,-3.0812,-3.0991,-3.1371,-3.1937,-3.1937,-3.2152,-3.2527,-3.3056,-3.3573,-3.4078,-3.4607,-3.4823,-3.4823,-3.4823,-3.4823,-3.4847,-3.4992,-3.5376,-3.5905,-3.6435,-3.6867,-3.7168,-3.7024,-3.6362,-3.5593,-3.5449,-3.5136,-3.4823,-3.4823,-3.4823,-3.4823,-3.4823,-3.522,-3.5749,-3.6278,-3.6807,-3.7336,-3.7866,-3.7986,-3.7986,-3.7986,-3.7986,-3.7986,-3.7986,-3.7986,-3.7986,-3.7986,-3.8118,-3.8298,-3.8563,-3.8984,-3.9489,-4.0114,-4.0439,-4.0991,-4.172,-4.1984,-4.2437,-4.3209,-4.353,-4.3958,-4.4626,-4.4892,-4.5179,-4.5624,-4.6342,-4.6917,-4.7336,-4.7911,-4.8185,-4.8185,-4.8185,-4.8185,0.0,0.0,0.0,-1.4039,0.0,0.0,0.0,0.0,-1.2181,0.0,0.0,0.0,0.0,-1.0665,-1.1055,-1.1581,-1.1969,0.0,0.0,0.0,0.0,0.0,0.0,0.0,0.0,-1.6301,-1.7764,-1.8531,-2.0615,-2.207,-2.249,-2.5013,-2.6496,-2.6496,-2.7736,-2.8395,-2.8395,-2.9852,-3.0578,-3.0668,-3.1294,-3.1661,-3.1749,-3.1749,-3.1973,-3.2527,-3.3056,-3.3573,-3.4078,-3.4607,-3.4823,-3.4823,-3.4823,-3.4823,-3.4895,-3.54,-3.5918,-3.6459,-3.6988,-3.718,-3.7108,-3.6591,-3.6062,-3.5521,-3.5004,-3.4847,-3.4823,-3.4823,-3.4823,-3.4823,-3.4823,-3.522,-3.5749,-3.6278,-3.6807,-3.7336,-3.7866,-3.7986,-3.7986,-3.7986,-3.7986,-3.7986,-3.7986,-3.7986,-3.7986,-3.7986,-3.8443,-3.8599,-3.807,-3.9381,-4.0162,-3.9681,-4.0547,-4.116,-4.1184,-4.1757,-4.255,-4.3789,-4.3321,-4.353,-4.4613,-4.5284,-4.5611,-4.5624,-4.6734,-4.731,-4.7336,-4.7911,-4.8185,-4.8185,-4.8185,-4.8185,0.0,0.0,-1.9403,-1.8586,0.0,0.0,0.0,0.0,0.0,0.0,0.0,0.0,0.0,-1.1489,-1.1528,-1.1943,-1.2373,-1.2715,0.0,0.0,0.0,0.0,0.0,0.0,0.0,0.0,0.0,-1.6325,-1.7461,-1.8096,-1.8232,-2.2129,-2.4645,-2.5051,-2.7281,-2.885,-2.9852,-3.0397,-3.0847,-3.1306,-3.1572,-3.1661,-3.1673,-3.2058,-3.2515,-3.3056,-3.3561,-3.4078,-3.4571,-3.4763,-3.4823,-3.4823,-3.4823,-3.504,-3.5376,-3.5557,-3.5954,-3.6483,-3.7012,-3.6964,-3.6579,-3.605,-3.5521,-3.5064,-3.4883,-3.4823,-3.4823,-3.4823,-3.4823,-3.4907,-3.5256,-3.5749,-3.6266,-3.6795,-3.7324,-3.7757,-3.7938,-3.7986,-3.7986,-3.7986,-3.7986,-3.7986,-3.7986,-3.8286,-3.8539,-3.8539,-3.8383,-3.8587,-3.9465,-3.9753,-4.0066,-4.0595,-4.131,-4.1984,-4.2312,-4.3295,-4.3958,-4.4409,-4.419,-4.4287,-4.4722,-4.531,-4.5807,-4.6186,-4.6944,-4.7519,-4.7898,-4.8094,-4.8185,-4.8185,-4.8185,-4.8185,-2.1182,-2.1565,0.0,-2.0781,-1.9493,0.0,-1.7712,0.0,-1.3736,0.0,0.0,0.0,0.0,-1.2851,-1.2655,-1.2332,-1.2645,-1.2881,0.0,-1.2832,0.0,0.0,0.0,0.0,0.0,0.0,-1.3568,-1.4398,-1.5469,-1.6125,0.0,-2.0903,-2.3898,-2.4373,-2.7479,-2.9669,-3.0578,-3.0847,-3.1205,-3.1661,-3.1661,-3.1661,-3.1685,-3.225,-3.2791,-3.332,-3.3825,-3.4342,-3.4823,-3.4823,-3.4823,-3.4847,-3.504,-3.5316,-3.5641,-3.5821,-3.623,-3.6735,-3.7072,-3.6723,-3.6062,-3.5725,-3.5256,-3.4823,-3.4823,-3.4823,-3.4871,-3.5052,-3.5112,-3.5232,-3.5761,-3.629,-3.6771,-3.712,-3.7601,-3.7986,-3.7986,-3.7986,-3.7986,-3.7986,-3.7986,-3.7986,-3.7986,-3.8286,-3.8587,-3.8791,-3.8671,-3.8936,-3.9982,-3.9982,-4.025,-4.1153,-4.1749,-4.2324,-4.2986,-4.364,-4.419,-4.4422,-4.4409,-4.4609,-4.5036,-4.5624,-4.6199,-4.6774,-4.7336,-4.7819,-4.8185,-4.8185,-4.8185,-4.8185,-4.8185,-4.8185]},{"header":{"parameterUnit":"m.s-1","parameterCategory":1,"la1":30.6,"la2":29.2853,"lo1":-89.7004,"lo2":-87.6739,"dy":0.0162,"dx":0.0183,"nx":112,"ny":82,"refTime":"2023-06-19T12:00:00:Z","depth":0,"parameterNumber":3,"parameterNumberName":"V-component_of_WINDS"},"data":[0.0,0.0,0.0,0.0,0.0,0.0,0.0,0.0,0.0,0.0,0.0,0.0,0.0,0.0,0.0,0.0,0.0,0.0,0.0,0.0,0.0,0.0,0.0,0.0,0.0,0.0,0.0,0.0,0.0,0.0,0.0,0.0,0.0,0.0,0.0,0.0,0.0,0.0,0.0,0.0,0.0,0.0,0.0,0.0,0.0,0.0,0.0,0.0,0.0,0.0,0.0,0.0,0.0,0.0,0.0,0.0,0.0,0.0,0.0,0.0,0.0,0.0,0.0,0.0,0.0,0.0,0.0,0.0,0.0,0.0,0.0,0.0,0.0,0.0,0.0,0.0,0.0,0.0,0.0,0.0,0.0,0.0,0.0,0.0,0.0,0.0,0.0,0.0,0.0,0.0,-2.6091,-3.2032,-3.4203,-3.503,-3.4637,-3.4245,-3.2217,-2.8043,0.0,0.0,0.0,0.0,0.0,0.0,0.0,0.0,0.0,0.0,0.0,0.0,0.0,0.0,0.0,0.0,0.0,0.0,0.0,0.0,0.0,0.0,0.0,0.0,0.0,0.0,0.0,0.0,0.0,0.0,0.0,0.0,0.0,0.0,0.0,0.0,0.0,0.0,0.0,0.0,0.0,0.0,0.0,0.0,0.0,0.0,0.0,0.0,0.0,0.0,0.0,0.0,0.0,0.0,0.0,0.0,0.0,0.0,0.0,0.0,0.0,0.0,0.0,0.0,0.0,0.0,0.0,0.0,0.0,0.0,0.0,0.0,0.0,0.0,0.0,0.0,0.0,0.0,0.0,0.0,0.0,0.0,0.0,0.0,0.0,0.0,0.0,0.0,0.0,0.0,0.0,0.0,0.0,0.0,0.0,0.0,0.0,0.0,0.0,0.0,0.0,0.0,0.0,0.0,-3.0509,-3.4787,-3.5241,-3.503,-3.4637,-3.4245,-3.2217,-2.8061,0.0,0.0,0.0,0.0,0.0,0.0,0.0,0.0,0.0,0.0,0.0,0.0,0.0,0.0,0.0,0.0,0.0,0.0,0.0,0.0,0.0,0.0,0.0,0.0,0.0,0.0,0.0,0.0,0.0,0.0,0.0,0.0,0.0,0.0,0.0,0.0,0.0,0.0,0.0,0.0,0.0,0.0,0.0,0.0,0.0,0.0,0.0,0.0,0.0,0.0,0.0,0.0,0.0,0.0,0.0,0.0,0.0,0.0,0.0,0.0,0.0,0.0,0.0,0.0,0.0,0.0,0.0,0.0,0.0,0.0,0.0,0.0,0.0,0.0,0.0,0.0,0.0,0.0,0.0,0.0,0.0,0.0,0.0,0.0,0.0,0.0,0.0,0.0,0.0,0.0,0.0,0.0,0.0,0.0,0.0,0.0,0.0,0.0,0.0,0.0,0.0,0.0,0.0,-3.0553,-3.4461,-3.6154,-3.6615,-3.6541,-3.5884,-3.5692,-3.371,-2.9333,-2.8079,0.0,0.0,0.0,0.0,0.0,0.0,0.0,0.0,0.0,0.0,0.0,0.0,0.0,0.0,0.0,0.0,0.0,0.0,0.0,0.0,0.0,0.0,0.0,0.0,0.0,0.0,0.0,0.0,0.0,0.0,0.0,0.0,0.0,0.0,0.0,0.0,0.0,0.0,0.0,0.0,0.0,0.0,0.0,0.0,0.0,0.0,0.0,0.0,0.0,0.0,0.0,0.0,0.0,0.0,0.0,0.0,0.0,0.0,0.0,0.0,0.0,0.0,0.0,0.0,0.0,0.0,0.0,0.0,0.0,0.0,0.0,0.0,0.0,0.0,0.0,0.0,0.0,0.0,0.0,0.0,0.0,0.0,0.0,0.0,0.0,0.0,0.0,0.0,0.0,0.0,0.0,0.0,0.0,0.0,0.0,0.0,0.0,0.0,0.0,0.0,0.0,0.0,-3.3099,-3.6584,-3.7043,-3.7641,-3.7739,-3.6956,-3.6781,-3.4775,-3.0112,-2.9055,0.0,0.0,0.0,0.0,0.0,0.0,0.0,0.0,0.0,0.0,0.0,0.0,0.0,0.0,0.0,0.0,0.0,0.0,0.0,0.0,0.0,0.0,0.0,0.0,0.0,0.0,0.0,0.0,0.0,0.0,0.0,0.0,0.0,0.0,0.0,0.0,0.0,0.0,0.0,0.0,0.0,0.0,0.0,0.0,0.0,0.0,0.0,0.0,0.0,0.0,0.0,0.0,0.0,0.0,0.0,0.0,0.0,0.0,0.0,0.0,0.0,0.0,0.0,0.0,0.0,0.0,0.0,0.0,0.0,0.0,0.0,0.0,0.0,0.0,0.0,0.0,0.0,0.0,0.0,0.0,0.0,0.0,0.0,0.0,0.0,0.0,0.0,0.0,0.0,0.0,0.0,0.0,0.0,0.0,0.0,0.0,0.0,0.0,0.0,0.0,0.0,0.0,-3.3201,-3.5589,-3.7711,-3.7721,-3.7358,-3.6856,-3.6533,-3.4266,-2.9384,-2.877,0.0,0.0,0.0,0.0,0.0,0.0,0.0,0.0,0.0,0.0,0.0,0.0,0.0,0.0,0.0,0.0,0.0,0.0,0.0,0.0,0.0,0.0,0.0,0.0,0.0,0.0,0.0,0.0,0.0,0.0,0.0,0.0,0.0,0.0,0.0,0.0,0.0,0.0,0.0,0.0,0.0,0.0,0.0,0.0,0.0,0.0,0.0,0.0,0.0,0.0,0.0,0.0,0.0,0.0,0.0,0.0,0.0,0.0,0.0,0.0,0.0,0.0,0.0,0.0,0.0,0.0,0.0,0.0,0.0,0.0,0.0,0.0,0.0,0.0,0.0,0.0,0.0,0.0,0.0,0.0,0.0,0.0,0.0,0.0,0.0,0.0,0.0,0.0,0.0,0.0,0.0,0.0,0.0,0.0,0.0,0.0,0.0,0.0,0.0,0.0,0.0,0.0,-3.4557,-3.7061,0.0,-3.7578,-3.7403,-3.7193,-3.7076,-3.5101,-3.0654,0.0,0.0,0.0,0.0,0.0,0.0,0.0,0.0,0.0,0.0,0.0,0.0,0.0,0.0,0.0,0.0,0.0,0.0,0.0,0.0,0.0,0.0,0.0,0.0,0.0,0.0,0.0,0.0,0.0,0.0,0.0,0.0,0.0,0.0,0.0,0.0,0.0,0.0,0.0,0.0,0.0,0.0,0.0,0.0,0.0,0.0,0.0,0.0,0.0,0.0,0.0,0.0,0.0,0.0,0.0,0.0,0.0,0.0,0.0,0.0,0.0,0.0,0.0,0.0,0.0,0.0,0.0,0.0,0.0,0.0,0.0,0.0,0.0,0.0,0.0,0.0,0.0,0.0,0.0,0.0,0.0,0.0,0.0,0.0,0.0,0.0,0.0,0.0,0.0,0.0,0.0,0.0,0.0,0.0,0.0,0.0,0.0,0.0,0.0,0.0,0.0,0.0,-3.1545,-3.5678,-3.8542,0.0,-3.818,-3.799,-3.7949,-3.7696,-3.5736,-3.1484,0.0,0.0,0.0,0.0,0.0,0.0,0.0,0.0,0.0,0.0,0.0,0.0,0.0,0.0,0.0,0.0,0.0,0.0,0.0,0.0,0.0,0.0,0.0,0.0,0.0,0.0,0.0,0.0,0.0,0.0,0.0,0.0,0.0,0.0,0.0,0.0,0.0,0.0,0.0,0.0,0.0,0.0,0.0,0.0,0.0,0.0,0.0,0.0,0.0,0.0,0.0,0.0,0.0,0.0,0.0,0.0,0.0,0.0,0.0,0.0,0.0,0.0,0.0,0.0,0.0,0.0,0.0,0.0,0.0,0.0,0.0,0.0,0.0,0.0,0.0,0.0,0.0,0.0,0.0,0.0,0.0,0.0,0.0,0.0,0.0,0.0,0.0,0.0,0.0,0.0,0.0,0.0,0.0,0.0,0.0,0.0,0.0,0.0,0.0,0.0,0.0,0.0,-3.2145,-3.6417,-3.966,-4.0293,-3.9665,-3.9175,-3.9118,-3.8385,-3.5994,0.0,0.0,0.0,0.0,0.0,0.0,0.0,0.0,0.0,0.0,0.0,0.0,0.0,0.0,0.0,0.0,0.0,0.0,0.0,0.0,0.0,0.0,0.0,0.0,0.0,0.0,0.0,0.0,0.0,0.0,0.0,0.0,0.0,0.0,0.0,0.0,0.0,0.0,0.0,0.0,0.0,0.0,0.0,0.0,0.0,0.0,0.0,0.0,0.0,0.0,0.0,0.0,0.0,0.0,0.0,0.0,0.0,0.0,0.0,0.0,0.0,0.0,0.0,0.0,0.0,0.0,0.0,0.0,0.0,0.0,0.0,0.0,0.0,0.0,0.0,0.0,0.0,0.0,0.0,0.0,0.0,0.0,0.0,0.0,0.0,0.0,0.0,0.0,0.0,0.0,0.0,0.0,0.0,0.0,0.0,0.0,0.0,0.0,0.0,0.0,0.0,0.0,0.0,-3.2105,-3.679,-4.0076,-4.007,-3.9446,-3.9172,-3.9375,-3.8778,-3.6491,-3.2051,0.0,0.0,0.0,0.0,0.0,0.0,0.0,0.0,0.0,0.0,0.0,0.0,0.0,0.0,0.0,0.0,0.0,0.0,0.0,0.0,0.0,0.0,0.0,0.0,0.0,0.0,0.0,0.0,0.0,0.0,0.0,0.0,0.0,0.0,0.0,0.0,0.0,0.0,0.0,0.0,0.0,0.0,0.0,0.0,0.0,0.0,0.0,0.0,0.0,0.0,0.0,0.0,0.0,0.0,0.0,0.0,0.0,0.0,0.0,0.0,0.0,0.0,0.0,0.0,0.0,0.0,0.0,0.0,0.0,0.0,0.0,0.0,0.0,0.0,0.0,0.0,0.0,0.0,0.0,0.0,0.0,0.0,0.0,0.0,0.0,0.0,0.0,0.0,0.0,0.0,0.0,0.0,0.0,0.0,0.0,0.0,0.0,0.0,0.0,0.0,0.0,0.0,-3.2469,-3.7182,-4.0581,-4.0709,-4.0026,-3.964,-3.9825,-3.9344,-3.7518,-3.3952,0.0,0.0,0.0,0.0,0.0,0.0,0.0,0.0,0.0,0.0,0.0,0.0,0.0,0.0,0.0,0.0,0.0,0.0,0.0,0.0,0.0,0.0,0.0,0.0,0.0,0.0,0.0,0.0,0.0,0.0,0.0,0.0,0.0,0.0,0.0,0.0,0.0,0.0,0.0,0.0,0.0,0.0,0.0,0.0,0.0,0.0,0.0,0.0,0.0,0.0,0.0,0.0,0.0,0.0,0.0,0.0,0.0,0.0,0.0,0.0,0.0,0.0,0.0,0.0,0.0,0.0,0.0,0.0,0.0,0.0,0.0,0.0,0.0,0.0,0.0,0.0,0.0,0.0,0.0,0.0,0.0,0.0,0.0,0.0,0.0,0.0,0.0,0.0,0.0,0.0,0.0,0.0,0.0,0.0,0.0,0.0,0.0,0.0,0.0,0.0,0.0,0.0,-3.2919,-3.7555,-4.1085,-4.181,-4.1001,-4.04,-4.04,-3.9952,-3.8639,-3.6332,0.0,0.0,0.0,0.0,0.0,0.0,0.0,0.0,0.0,0.0,0.0,0.0,0.0,0.0,0.0,0.0,0.0,0.0,0.0,0.0,0.0,0.0,0.0,0.0,0.0,0.0,0.0,0.0,0.0,0.0,0.0,0.0,0.0,0.0,0.0,0.0,0.0,0.0,0.0,0.0,0.0,0.0,0.0,0.0,0.0,0.0,0.0,0.0,0.0,0.0,0.0,0.0,0.0,0.0,0.0,0.0,0.0,0.0,0.0,0.0,-2.7939,0.0,0.0,0.0,0.0,0.0,0.0,0.0,0.0,0.0,0.0,0.0,0.0,0.0,0.0,0.0,0.0,0.0,0.0,0.0,0.0,0.0,0.0,0.0,0.0,0.0,0.0,0.0,0.0,0.0,0.0,0.0,0.0,0.0,0.0,0.0,0.0,0.0,0.0,0.0,0.0,0.0,-3.2218,-3.764,-4.1601,-4.1864,-4.0891,-4.0235,-4.0235,-3.9696,-3.8183,-3.5393,-3.5044,0.0,0.0,0.0,0.0,0.0,0.0,0.0,0.0,0.0,0.0,0.0,0.0,0.0,0.0,0.0,0.0,0.0,0.0,0.0,0.0,0.0,0.0,0.0,0.0,0.0,0.0,0.0,0.0,0.0,0.0,0.0,0.0,0.0,0.0,0.0,0.0,0.0,0.0,0.0,0.0,0.0,0.0,0.0,0.0,0.0,0.0,0.0,0.0,0.0,0.0,0.0,0.0,0.0,0.0,0.0,0.0,0.0,0.0,0.0,0.0,-2.8056,0.0,0.0,0.0,0.0,0.0,0.0,0.0,0.0,0.0,0.0,0.0,0.0,0.0,0.0,0.0,0.0,0.0,0.0,0.0,0.0,0.0,0.0,0.0,0.0,0.0,0.0,0.0,0.0,0.0,0.0,0.0,0.0,0.0,0.0,0.0,0.0,0.0,0.0,0.0,0.0,-3.2016,-3.7225,-4.0891,-4.0984,-4.0252,-3.9782,-3.9782,-3.9451,-3.8626,-3.7102,-3.5759,0.0,0.0,0.0,0.0,0.0,0.0,0.0,0.0,0.0,0.0,0.0,0.0,0.0,0.0,0.0,0.0,0.0,0.0,0.0,0.0,0.0,0.0,0.0,0.0,0.0,0.0,0.0,0.0,0.0,0.0,0.0,0.0,0.0,0.0,0.0,0.0,0.0,0.0,0.0,0.0,0.0,0.0,0.0,0.0,0.0,0.0,0.0,0.0,0.0,0.0,0.0,0.0,0.0,-2.8931,-2.9639,-3.0577,-3.0557,-3.0624,-3.0753,-3.1602,-3.2235,-3.2476,-2.999,0.0,0.0,0.0,0.0,0.0,0.0,0.0,0.0,0.0,0.0,0.0,0.0,0.0,0.0,0.0,0.0,0.0,0.0,0.0,0.0,0.0,0.0,0.0,0.0,-3.2536,-3.166,-3.4437,0.0,0.0,0.0,0.0,0.0,0.0,0.0,0.0,0.0,0.0,0.0,-3.1812,-3.6737,-4.024,-4.0392,-3.9976,-3.9653,-3.9653,-3.9653,-3.9653,-3.9653,-3.6871,-3.551,0.0,0.0,0.0,0.0,0.0,0.0,0.0,0.0,0.0,0.0,0.0,0.0,0.0,0.0,0.0,0.0,0.0,0.0,0.0,0.0,0.0,0.0,0.0,0.0,0.0,0.0,0.0,0.0,0.0,0.0,0.0,0.0,-2.1714,-2.5046,0.0,0.0,0.0,0.0,0.0,0.0,0.0,0.0,0.0,0.0,0.0,0.0,0.0,-2.7163,-2.6861,-3.0051,-3.1724,-3.1895,-3.4504,-3.6287,-3.723,-3.723,-3.7608,-3.808,-3.4832,0.0,-3.3646,-3.3039,0.0,0.0,0.0,0.0,0.0,0.0,0.0,0.0,0.0,0.0,0.0,0.0,0.0,0.0,0.0,0.0,0.0,0.0,0.0,0.0,0.0,0.0,-3.9224,-4.0656,-3.8259,-3.6699,0.0,-3.3567,-2.7761,-3.1114,-3.0056,0.0,0.0,0.0,0.0,0.0,0.0,0.0,-3.1044,-3.6857,-4.1186,-4.1844,-4.1443,-4.1127,-4.1127,-4.1127,-4.1127,-4.1127,-4.068,-3.9371,-3.7052,-3.9226,0.0,0.0,0.0,0.0,0.0,0.0,0.0,0.0,0.0,0.0,0.0,0.0,0.0,0.0,0.0,0.0,0.0,0.0,0.0,0.0,0.0,0.0,0.0,0.0,0.0,0.0,0.0,0.0,0.0,-2.3279,-2.5139,-2.7323,-2.7344,-2.652,0.0,0.0,0.0,0.0,0.0,0.0,0.0,0.0,0.0,-2.7428,-2.9779,-3.0776,-3.026,-3.3884,-3.5792,-3.5951,-3.7694,-3.9048,-4.0034,-4.0034,-4.0469,-4.1131,-3.9359,-3.8627,-3.846,-3.5606,-3.5009,-3.5594,0.0,0.0,0.0,0.0,-2.8198,-2.966,-2.9032,-3.1634,-3.5109,-3.4176,0.0,0.0,0.0,0.0,0.0,0.0,0.0,0.0,0.0,0.0,-3.9355,-4.1663,-4.0985,-4.0238,-4.1831,-3.7237,-3.3304,0.0,-3.2997,-3.0312,-2.8144,0.0,0.0,0.0,0.0,-3.4525,-3.4584,-3.8504,-4.136,-4.1694,-4.1521,-4.1409,-4.1409,-4.1409,-4.1409,-4.1409,-4.1409,-4.0845,-3.9587,-4.0835,-3.9964,0.0,0.0,0.0,0.0,0.0,0.0,0.0,0.0,0.0,0.0,0.0,0.0,0.0,0.0,0.0,0.0,0.0,0.0,0.0,0.0,0.0,0.0,0.0,0.0,0.0,0.0,0.0,0.0,-2.6284,-2.7638,-2.953,-2.9597,-2.8566,0.0,0.0,0.0,0.0,0.0,0.0,-2.8931,-2.9664,-3.0124,-3.0251,-3.3316,-3.4737,-3.4301,-3.7508,-3.9173,-3.928,-4.0004,-4.0745,-4.1522,-4.1457,-4.1798,-4.2412,-4.2412,-4.2545,-4.2431,-3.8632,-3.7375,-3.7832,-3.7471,-3.5493,-3.2811,-3.2694,-3.3185,-3.3772,-3.3209,-3.5479,-3.8457,-3.7664,-3.673,-3.5866,-3.5585,0.0,0.0,0.0,0.0,-3.387,-3.665,-3.8103,-3.9443,-4.194,-4.2775,-4.2917,-4.2792,-4.0317,-3.8362,0.0,-3.656,-3.3559,-3.0826,0.0,0.0,0.0,0.0,-3.7313,-3.7465,-3.9931,-4.1773,-4.1955,-4.1972,-4.1972,-4.1972,-4.1972,-4.1972,-4.1972,-4.1972,-4.1972,-4.1972,-4.2136,-4.1483,-3.989,0.0,0.0,0.0,0.0,0.0,0.0,0.0,0.0,0.0,0.0,0.0,0.0,0.0,0.0,0.0,0.0,0.0,0.0,0.0,0.0,0.0,0.0,0.0,0.0,0.0,0.0,0.0,0.0,0.0,-3.1555,-3.3393,0.0,0.0,0.0,0.0,-2.876,-2.8632,-3.006,-3.3299,-3.3336,-3.4695,-3.7826,-3.8215,-3.871,-3.9425,-4.0511,-4.1044,-4.1086,-4.1742,-4.2181,-4.2356,-4.2219,-4.2238,-4.2412,-4.2412,-4.2867,-4.3549,-4.2469,-4.2052,-4.1787,-3.8681,-3.7173,-3.6235,-3.2366,-3.3481,-3.6875,-3.6083,-3.8921,-4.2867,-4.2831,-4.0451,-3.6878,-3.311,-3.1898,0.0,0.0,-3.4815,-3.7289,-3.7976,-4.0908,-4.3749,-4.3728,-4.4299,-4.4797,-4.4543,-4.2019,-4.0467,0.0,-4.0663,-3.8665,-3.9182,0.0,-3.7463,-3.3504,-3.5513,-3.7498,-3.7417,-4.0363,-4.2734,-4.3429,-4.3512,-4.3512,-4.3512,-4.3512,-4.3512,-4.3512,-4.3512,-4.3512,-4.3512,-4.3512,-4.3538,-4.3614,-4.1461,0.0,0.0,0.0,0.0,0.0,0.0,0.0,0.0,0.0,0.0,0.0,0.0,0.0,0.0,0.0,0.0,0.0,0.0,0.0,0.0,0.0,0.0,0.0,0.0,0.0,0.0,0.0,0.0,-3.192,-3.2673,0.0,-3.2172,-3.2452,-3.2441,-3.1903,-3.3261,-3.4864,-3.6602,-3.6757,-3.7816,-4.0102,-4.0223,-4.0666,-4.1457,-4.1802,-4.1977,-4.1996,-4.2214,-4.265,-4.3227,-4.3199,-4.3464,-4.4023,-4.4023,-4.4194,-4.4459,-4.4137,-4.3888,-4.3533,-4.1931,-4.137,-4.1212,-3.9515,-4.0059,-4.1502,-4.1043,-4.2026,-4.3477,-4.3268,-4.23,-4.0958,-3.9543,-3.9533,-4.0092,-4.029,-4.1556,-4.2844,-4.2777,-4.3883,-4.4874,-4.4384,-4.4557,-4.4796,-4.4581,-4.41,-4.3964,-4.4821,-4.2019,-3.9477,-3.9405,-4.135,-4.1481,-3.7303,-3.9732,-4.1866,-4.1427,-4.2477,-4.333,-4.3595,-4.3628,-4.3628,-4.3628,-4.3628,-4.3628,-4.3628,-4.3628,-4.3628,-4.3628,-4.3687,-4.3881,-4.4056,-4.2875,-4.0252,0.0,0.0,0.0,0.0,0.0,0.0,0.0,0.0,0.0,0.0,0.0,0.0,0.0,0.0,0.0,0.0,0.0,0.0,0.0,0.0,0.0,0.0,0.0,0.0,0.0,0.0,-2.9068,-3.2562,-3.3224,-3.3618,-3.42,-3.4411,-3.4698,-3.5208,-3.6581,-3.7938,-3.9213,-3.9335,-4.0023,-4.1491,-4.1575,-4.1863,-4.2393,-4.2697,-4.2848,-4.2848,-4.3114,-4.3549,-4.4099,-4.4099,-4.3625,-4.2886,-4.4289,-4.4032,-4.2767,-4.432,-4.4758,-4.4407,-4.3942,-4.3735,-4.3689,-4.349,-4.349,-4.3642,-4.3805,-4.3881,-4.3952,-4.4089,-4.4126,-4.4126,-4.4126,-4.4547,-4.5022,-4.5022,-4.5462,-4.5828,-4.5565,-4.5783,-4.5906,-4.5402,-4.5618,-4.5798,-4.5515,-4.4872,-4.4711,-4.59,-4.4046,-4.1736,-3.9951,-4.1673,-4.1846,-3.755,-3.8975,-4.0383,-3.9989,-4.1028,-4.1806,-4.1806,-4.2899,-4.3628,-4.3628,-4.2502,-4.2319,-4.3545,-4.2469,-4.2353,-4.3578,-4.2584,-4.2032,-4.2128,-4.0308,-3.7916,-3.5001,0.0,0.0,0.0,0.0,0.0,0.0,0.0,0.0,0.0,0.0,0.0,0.0,0.0,0.0,0.0,0.0,0.0,0.0,0.0,0.0,0.0,0.0,0.0,-2.4843,-2.898,-3.2272,-3.3654,-3.5441,-3.6789,-3.7468,-3.7071,-3.73,-3.8593,-3.8302,-3.8989,-4.112,-4.0877,-4.1154,-4.2238,-4.2261,-4.228,-4.2318,-4.3265,-4.3739,-4.3758,-4.4535,-4.4895,-4.4895,-4.4933,-4.2716,-3.9136,-4.3185,-4.2454,-3.8796,-4.3297,-4.4946,-4.4616,-4.4468,-4.403,-4.3444,-4.3444,-4.3251,-4.3101,-4.398,-4.4364,-4.4583,-4.5572,-4.5902,-4.5902,-4.5902,-4.592,-4.5938,-4.5938,-4.5957,-4.5975,-4.5975,-4.6562,-4.7093,-4.6882,-4.7445,-4.787,-4.7389,-4.4317,-4.2691,-4.614,-4.6888,-4.5677,-4.1538,-4.0394,-3.8656,-3.4525,-3.3409,0.0,-3.3027,-3.6158,-3.8377,-3.8377,-4.1425,-4.3495,-4.3611,-4.0299,-3.9752,-4.3396,-4.0332,-3.9951,-4.3479,-4.0287,-3.8465,-3.8517,-3.4153,-3.3371,-3.6258,0.0,0.0,0.0,0.0,0.0,0.0,0.0,0.0,0.0,0.0,0.0,0.0,0.0,0.0,0.0,0.0,0.0,0.0,0.0,0.0,0.0,0.0,-2.912,-3.0069,-3.0501,-3.2091,-3.5867,-3.6963,-3.7671,-3.8256,-3.8371,-3.9006,-4.0375,-4.0103,-4.0502,-4.1992,-3.9056,-3.8052,-3.9665,-3.9096,-3.9361,-4.0593,-4.3246,-4.4573,-4.4573,-4.4781,-4.4895,-4.4914,-4.5251,-4.4766,-4.3788,-4.5271,-4.5214,-4.416,-4.5454,-4.5762,-4.5443,-4.5151,-4.4929,-4.4776,-4.4776,-4.4815,-4.4471,-4.1882,-4.2938,-4.5443,-4.5755,-4.5772,-4.5679,-4.5679,-4.6175,-4.6708,-4.6708,-4.7167,-4.7607,-4.7453,-4.7579,-4.7664,-4.7397,-4.7476,-4.7554,-4.716,-4.623,-4.5739,-4.6471,-4.6447,-4.5786,-4.4143,-4.3529,-4.2678,-4.1076,-4.0724,0.0,-4.0613,-4.1508,-4.2137,-4.2137,-4.068,-4.0763,-4.3396,-4.0299,-3.9752,-4.3396,-4.2816,-4.2791,-4.3789,-4.3069,-4.274,-4.2884,-3.8776,-3.7015,0.0,0.0,0.0,0.0,0.0,0.0,0.0,0.0,0.0,0.0,0.0,0.0,0.0,0.0,0.0,0.0,0.0,0.0,0.0,0.0,0.0,0.0,-2.9364,-3.2426,-3.4389,-3.3948,-3.4513,-3.7333,-3.8051,-3.8503,-3.8973,-3.9362,-3.9973,-4.1005,-4.1072,-4.1635,-4.2882,-4.0537,-3.9003,-3.8719,-3.9892,-4.0157,-3.9399,-4.3057,-4.5085,-4.5445,-4.5445,-4.5615,-4.5956,-4.6229,-4.5339,-4.3652,-4.5667,-4.5379,-4.366,-4.5727,-4.6415,0.0,0.0,0.0,0.0,0.0,-4.5467,-4.5292,-4.3432,-4.4236,-4.6243,-4.6707,-4.674,-4.6606,-4.6606,-4.5881,-4.4986,-4.4931,-4.4071,-4.3539,-4.5113,-4.5513,-4.5836,-4.7241,-4.7554,-4.7468,-4.707,-4.5695,-4.4867,-4.6015,-4.4562,0.0,-4.4582,-4.3345,-4.1485,-3.9379,-3.904,-3.904,-3.904,-4.0398,-4.1359,-4.1359,-4.0901,-4.1455,-4.3522,-4.0446,0.0,0.0,0.0,-4.1694,-4.1765,-4.1913,0.0,0.0,0.0,-3.6388,-3.7673,-3.4992,0.0,0.0,-3.4383,-3.3229,0.0,0.0,0.0,0.0,0.0,0.0,0.0,0.0,0.0,0.0,0.0,0.0,0.0,0.0,0.0,0.0,-3.1359,-3.3734,-3.7641,-3.805,-3.805,-3.8297,-3.8811,-3.9305,-3.9701,-4.0113,-4.0598,-4.1161,-4.1657,-4.2479,-4.3772,0.0,0.0,0.0,0.0,-4.2507,-3.9003,-4.3,-4.5483,-4.6335,-4.6335,-4.6695,-4.7345,-4.7394,-4.5205,-4.1613,-4.5372,-4.4549,-4.086,-4.5278,-4.6916,-4.6599,-4.619,-4.5802,-4.5468,-4.521,-4.5376,-4.5815,-4.6264,0.0,0.0,-4.797,-4.8151,-4.7992,-4.7992,-4.5625,-4.2915,-4.2704,-4.0115,-3.8245,-4.1807,-4.2667,-4.345,-4.6866,-4.7657,-4.7486,-4.7025,-4.4146,-4.2473,-4.5224,-4.2513,-4.0747,-4.3777,-4.1639,-3.8235,-3.4496,-3.3922,-3.3922,-3.3922,-3.6787,-3.8825,-3.8825,0.0,0.0,-4.3864,-4.0662,-4.0146,-4.3863,-4.1054,-3.9294,-3.9446,-3.9446,-3.775,-3.4168,-3.3434,-3.4394,-3.7044,-3.638,-3.7584,-4.0416,-3.5568,-3.4614,0.0,0.0,0.0,0.0,0.0,0.0,0.0,0.0,0.0,0.0,0.0,0.0,0.0,0.0,0.0,-3.3285,-3.5231,-3.7082,-3.8682,-3.8823,-3.8906,-3.9208,-3.9676,-4.0142,-4.061,-4.1045,-4.1838,-4.3056,-4.281,-4.3212,-4.4586,-4.1211,-3.9354,-3.958,-3.975,-4.0091,-4.0617,-4.4121,-4.6303,-4.7169,0.0,0.0,-4.6995,-4.7392,-4.6906,-4.5826,-4.7148,-4.7117,-4.6223,-4.7306,-4.7606,-4.7464,-4.7384,-4.7168,-4.656,-4.3607,-4.4556,-4.6943,-4.398,-4.513,-4.7907,-4.8035,-4.8032,-4.7992,-4.7992,-4.7484,0.0,-4.6662,-4.6081,-4.5706,-4.6422,-4.644,-4.6495,-4.7331,-4.7338,-4.7025,-4.6731,-4.5847,-4.5194,-4.5545,-4.4399,-4.3507,-4.4175,-4.3421,-4.2434,-4.1607,-4.1508,-4.1508,-4.1508,-4.2137,-4.2585,-4.2585,-4.0597,-4.0574,-4.3648,-4.0554,-4.0057,-4.3863,-4.3524,-4.3305,-4.3449,-4.3504,-4.2841,-4.1481,-4.0818,-4.0501,-4.053,-3.9858,-3.9893,-4.0493,-3.9447,-3.9231,0.0,0.0,0.0,0.0,0.0,0.0,0.0,0.0,0.0,0.0,0.0,-2.9394,0.0,0.0,-3.2596,-3.4624,-3.5843,-3.7294,-3.9454,-3.9618,-3.9657,-3.9914,-4.0095,-4.0523,-4.1316,-4.1847,-4.2499,-4.3333,-4.3493,-4.3895,-4.4648,-4.2655,-4.0941,-3.9834,-4.1218,-4.1695,-4.1154,-4.4557,-4.6807,-4.7749,-4.7749,-4.7784,-4.7858,-4.8085,-4.8012,-4.7662,-4.7849,-4.7806,-4.7717,-4.7759,-4.7717,-4.7615,-4.7657,-4.7615,-4.7277,-4.5373,-4.5961,-4.7474,-4.5537,-4.6194,-4.7847,-4.7951,-4.7829,-4.7645,-4.7645,-4.621,-4.4578,-4.4511,-4.3051,-4.199,-4.409,-4.4453,-4.4791,-4.6677,-4.707,-4.6842,-4.6235,-4.5988,-4.5735,-4.5052,-4.4631,-4.4253,-4.3964,-4.373,-4.3628,-4.3628,-4.3628,-4.3628,-4.3628,-4.3628,-4.3761,-4.4261,-4.2708,-4.2622,-4.5001,-4.3625,-4.3412,-4.532,-4.5479,-4.5421,-4.5152,-4.5152,-4.4776,-4.4049,-4.3412,-4.2919,-4.2516,-4.1891,-4.1571,-4.1571,-4.1571,-4.1186,0.0,0.0,0.0,0.0,0.0,0.0,0.0,0.0,-3.1163,-3.0734,-3.1035,-3.1581,-3.2289,-3.2416,-3.3228,-3.5688,-3.6229,-3.7266,-3.9954,-4.0378,-4.0507,-4.0802,-4.0733,-4.107,-4.2006,-4.2597,-4.3081,-4.3334,-4.3951,-4.44,-4.4749,-4.4758,-4.3664,-4.1273,-4.4027,-4.4533,-4.2502,-4.5358,-4.7268,-4.8253,-4.8253,-4.8399,-4.8711,-4.864,-4.844,-4.8093,-4.7897,-4.777,-4.7717,-4.7657,-4.7615,-4.7554,-4.7615,-4.7657,-4.7675,-4.7572,-4.7615,-4.7717,-4.7717,-4.7615,-4.7554,-4.7788,-4.7603,-4.7302,-4.7302,-4.5012,-4.24,-4.2414,-4.0045,-3.8256,-4.1728,-4.2476,-4.3078,-4.5968,-4.6731,-4.6542,-4.5666,-4.5477,-4.5249,-4.4463,-4.4253,-4.4056,-4.3853,-4.3827,-4.3794,-4.3645,-4.3744,-4.3827,-4.3827,-4.3959,-4.4334,-4.5113,-4.5284,-4.5697,-4.6464,-4.671,-4.6786,-4.6786,-4.6786,-4.6514,-4.5918,-4.5918,-4.5544,-4.4641,-4.4106,-4.3643,-4.3396,-4.286,-4.2602,-4.2602,-4.2602,-4.2001,-2.6002,-2.3365,-2.2437,-2.4544,-2.6862,-2.8755,0.0,0.0,-3.5721,-3.4055,-3.546,-3.7247,-3.804,-3.8162,-3.8238,-3.8459,-3.9153,-3.9745,-3.9995,-4.0919,-4.176,-4.2365,-4.2427,-4.2526,-4.2779,-4.3434,-4.3998,-4.4337,-4.4258,-4.4662,-4.5677,-4.5189,-4.5314,-4.6262,-4.6258,-4.6544,-4.7074,-4.7579,-4.8133,-4.8702,-4.8702,-4.8601,-4.8326,-4.8117,-4.7797,-4.7389,-4.7389,-4.7554,-4.7861,-4.7511,-4.7468,-4.7657,-4.7407,-4.7511,-4.7717,-4.7657,-4.7675,-4.7717,-4.7717,-4.7615,-4.7511,-4.7389,-4.7345,-4.7302,-4.7302,-4.6996,-4.6593,-4.6409,-4.6016,-4.5766,-4.6104,-4.6229,-4.6181,-4.6174,-4.6052,-4.5768,-4.5125,-4.4708,-4.4406,-4.4293,-4.3964,-4.3886,-4.4456,-4.4572,-4.4357,-4.3727,-4.4158,-4.4572,-4.4572,-4.5152,-4.5645,-4.5946,-4.6007,-4.6146,-4.6498,-4.671,-4.6786,-4.6786,-4.6786,-4.6786,-4.665,-4.6667,-4.6057,-4.474,-4.4608,-4.397,-4.2747,-4.2602,-4.2602,-4.2602,-4.2602,-4.2525,-2.7456,-2.7004,0.0,0.0,-3.0988,-3.3598,-3.4049,-3.6144,-3.7811,-3.7188,-3.7875,-3.8692,-3.9045,-3.8136,-3.7856,0.0,-3.8958,-3.9154,-4.1286,-4.1872,-4.2421,-4.3286,-4.1742,-4.0661,-4.0858,-4.2883,-4.3463,-4.1773,-4.3457,-4.4885,-4.5679,-4.5743,-4.6197,-4.7234,-4.6999,-4.7268,-4.8155,-4.8013,-4.8053,-4.829,-4.829,-4.8038,-4.7518,-4.7542,-4.7389,-4.716,-4.7425,-4.7468,-4.7399,-4.7468,-4.7615,-4.7657,-4.7407,-4.7363,-4.745,-4.7356,-4.7356,-4.7374,-4.716,-4.7053,-4.7098,-4.7116,-4.7007,-4.6898,-4.7007,-4.6898,-4.6806,-4.6934,-4.6934,-4.6888,-4.6998,-4.6731,-4.6381,-4.6119,-4.5751,-4.5337,-4.4708,-4.4502,-4.4411,-4.4499,-4.4361,-4.4473,-4.5202,-4.5334,-4.5235,-4.4937,-4.5135,-4.5334,-4.5334,-4.574,-4.6229,-4.6971,-4.7469,-4.7827,-4.7933,-4.801,-4.8088,-4.8088,-4.8088,-4.7872,-4.7467,-4.7007,-4.6322,-4.5304,-4.4828,-4.4356,-4.3756,-4.3756,-4.3756,-4.3756,-4.3756,-4.3756,-2.8465,0.0,0.0,-3.1532,-3.4035,-3.6486,-3.7727,-3.843,-3.8836,-3.8942,-3.897,-3.9016,-3.9102,-3.8015,-3.7814,-3.9982,-3.9305,-3.9461,-4.2229,-4.2682,-4.2668,-4.26,-4.05,-3.8386,-3.6739,-4.0402,-4.2399,-4.1118,-4.3485,-4.5296,-4.6066,-4.6331,-4.6863,-4.78,-4.7572,-4.7647,-4.8161,-4.7983,-4.782,-4.7715,-4.7715,-4.7524,-4.7223,-4.7276,-4.7232,-4.7116,-4.7425,-4.7443,-4.7205,-4.7468,-4.7615,-4.7675,-4.732,-4.7276,-4.7258,-4.7025,-4.7043,-4.7088,-4.6795,-4.6731,-4.6842,-4.6888,-4.6842,-4.6731,-4.6842,-4.6731,-4.6637,-4.6934,-4.6888,-4.6795,-4.6842,-4.6542,-4.6087,-4.5666,-4.5337,-4.4961,-4.4488,-4.4481,-4.4624,-4.4976,-4.4986,-4.5235,-4.5963,-4.6096,-4.6162,-4.6378,-4.6411,-4.6328,-4.6192,-4.6545,-4.7127,-4.7911,-4.8619,-4.9001,-4.9001,-4.9001,-4.9001,-4.9001,-4.9001,-4.8798,-4.8242,-4.7704,-4.6949,-4.604,-4.5494,-4.5008,-4.4572,-4.4572,-4.4572,-4.4572,-4.4572,-4.4572,0.0,0.0,-2.6912,-3.2428,-3.3913,-3.495,-3.8529,-3.9229,-3.8998,-3.8688,-3.8628,-3.8724,-3.9111,-3.9407,-3.9812,-4.0552,-4.1405,-4.2038,-4.2382,-4.3008,-4.241,-3.9573,-3.9044,-3.6407,0.0,-3.5454,-4.0818,-4.4395,-4.5106,-4.5951,-4.7268,-4.7004,-4.7445,-4.8915,-4.8254,-4.7802,-4.7632,-4.782,-4.7715,-4.7302,-4.7302,-4.745,-4.7675,-4.7407,-4.732,-4.7302,-4.732,-4.745,-4.7657,-4.7407,-4.7468,-4.7657,-4.716,-4.7116,-4.7258,-4.6916,-4.6888,-4.698,-4.6998,-4.6888,-4.6795,-4.6778,-4.6888,-4.6998,-4.698,-4.6998,-4.698,-4.6998,-4.6888,-4.6684,-4.6186,-4.6137,-4.592,-4.4818,-4.4558,-4.4518,-4.467,-4.4716,-4.4931,-4.5616,-4.5765,-4.5997,-4.6742,-4.6874,-4.7106,-4.7835,-4.7934,-4.7751,-4.7245,-4.8077,-4.8719,-4.8736,-4.894,-4.9001,-4.9001,-4.9001,-4.9001,-4.9001,-4.9001,-4.9001,-4.894,-4.894,-4.8242,-4.6828,-4.6742,-4.604,-4.4572,-4.4572,-4.4572,-4.4572,-4.4572,-4.4572,0.0,0.0,-3.0846,-3.2486,-3.4548,-3.6514,-3.7845,-3.8047,-3.8013,-3.8216,-3.752,-3.6936,-3.7186,-3.6224,-3.6248,-3.8825,-3.7305,-3.751,-4.2381,-3.9374,-3.7945,-4.1475,-3.7869,0.0,0.0,0.0,0.0,-3.8608,-4.3027,-4.6286,-4.759,-4.7404,-4.7452,-4.7944,-4.8096,-4.7875,-4.7214,-4.7578,-4.7621,-4.7302,-4.7143,-4.7205,-4.7407,-4.7363,-4.7302,-4.7302,-4.7511,-4.7511,-4.7407,-4.7363,-4.7363,-4.7363,-4.6916,-4.6778,-4.6806,-4.6637,-4.659,-4.6637,-4.6684,-4.6702,-4.6684,-4.6684,-4.6684,-4.6731,-4.6842,-4.6888,-4.6795,-4.6542,-4.6447,-4.6284,-4.57,-4.5284,-4.5101,-4.5185,-4.4901,-4.4747,-4.5313,-4.5417,-4.5632,-4.6378,-4.6527,-4.6758,-4.7504,-4.7636,-4.7719,-4.7968,-4.8001,-4.7983,-4.7847,-4.8286,-4.8627,-4.8786,-4.8894,-4.9001,-4.9001,-4.9001,-4.9001,-4.9001,-4.9001,-4.9001,-4.9001,-4.8513,-4.7836,-4.6811,-4.6324,-4.5567,-4.4572,-4.4572,-4.4572,-4.4572,-4.4572,-4.4572,-2.8098,-3.0514,-3.3212,-3.4088,-3.5901,-3.7522,-3.7721,-3.7685,-3.7793,-3.8222,-3.7703,-3.6944,-3.6286,-3.5232,-3.5318,-3.7945,-3.6164,-3.6516,-4.2411,-3.9384,-3.7747,-4.0977,-3.769,-3.6548,0.0,0.0,0.0,-3.7619,-4.1814,-4.4922,-4.595,-4.5971,-4.6418,-4.7494,-4.7775,-4.7645,-4.6998,-4.7312,-4.7381,-4.7302,-4.7143,-4.7249,-4.745,-4.745,-4.6675,-4.5413,-4.7,-4.6801,-4.5449,-4.6769,-4.7302,-4.7258,-4.687,-4.6684,-4.659,-4.659,-4.6542,-4.6477,-4.659,-4.6637,-4.6684,-4.6684,-4.6684,-4.6731,-4.6842,-4.6731,-4.6542,-4.6284,-4.6213,-4.6169,-4.5574,-4.5358,-4.5358,-4.5614,-4.539,-4.5284,-4.603,-4.6179,-4.6411,-4.7156,-4.7224,-4.7373,-4.7836,-4.7919,-4.7919,-4.7919,-4.7935,-4.8049,-4.8292,-4.8483,-4.869,-4.8832,-4.8956,-4.9001,-4.9001,-4.9001,-4.9001,-4.9001,-4.9001,-4.9001,-4.9001,-4.8306,-4.7556,-4.6811,-4.6056,-4.5348,-4.4572,-4.4572,-4.4572,-4.4572,-4.4572,-4.4572,-3.2522,-3.3516,-3.3974,-3.7001,-3.7774,-3.7844,-3.808,-3.8101,-3.8148,-3.8399,-3.8672,-3.8222,0.0,0.0,-3.6522,-3.779,-3.7587,-3.8545,-4.2214,-4.235,-4.1007,0.0,0.0,0.0,0.0,0.0,0.0,-4.1292,0.0,-4.2322,-4.3007,-4.3213,-4.4649,-4.7643,-4.7475,-4.7187,-4.698,-4.698,-4.7116,-4.7302,-4.7302,-4.745,-4.7717,-4.7717,-4.5635,-4.2322,-4.6051,-4.5544,-4.2358,-4.5858,-4.7302,-4.7258,-4.707,-4.686,-4.6643,-4.6941,-4.6866,-4.6714,-4.6714,-4.6755,-4.6795,-4.6795,-4.6906,-4.7005,-4.7005,-4.6661,-4.6242,-4.6242,-4.6343,-4.6309,-4.5727,-4.6152,-4.6498,-4.5955,-4.5847,-4.6063,-4.6792,-4.6957,-4.7156,-4.7868,-4.7787,-4.7704,-4.7704,-4.7704,-4.7704,-4.7704,-4.7919,-4.8131,-4.842,-4.8627,-4.8832,-4.8956,-4.9001,-4.9001,-4.9001,-4.9001,-4.9001,-4.9001,-4.9035,-4.9035,-4.894,-4.8339,-4.7588,-4.6742,-4.6056,-4.5348,-4.4572,-4.4572,-4.4572,-4.4572,-4.4572,-4.4572,-3.0094,-3.2873,-3.6452,-3.7106,-3.7337,-3.7392,-3.7319,-3.7665,-3.7488,-3.551,-3.4807,-3.371,0.0,0.0,0.0,-3.4438,-3.2357,0.0,-3.8151,-3.663,0.0,-3.7453,0.0,-3.9042,-4.1155,-4.2896,0.0,0.0,-4.3713,-4.5383,-4.6122,-4.5863,-4.606,-4.6863,-4.7169,-4.7098,-4.6702,-4.7053,-4.7232,-4.7302,-4.7511,-4.7615,-4.7717,-4.7717,-4.7156,-4.6232,-4.7265,-4.7138,-4.625,-4.6993,-4.7232,-4.707,-4.6778,-4.6914,-4.7248,-4.7395,-4.7749,-4.8176,-4.8293,-4.7725,-4.6934,-4.6934,-4.7057,-4.7142,-4.7142,-4.7142,-4.7082,-4.6696,-4.6624,-4.6489,-4.5912,-4.5896,-4.6101,-4.654,-4.6609,-4.6808,-4.7342,-4.7506,-4.749,-4.7638,-4.7604,-4.7588,-4.7704,-4.7704,-4.777,-4.8033,-4.8115,-4.8179,-4.8292,-4.842,-4.8627,-4.8832,-4.8956,-4.9001,-4.9001,-4.9001,-4.9001,-4.9001,-4.9509,-4.9354,-4.8258,-4.8563,-4.7828,-4.5985,-4.5769,-4.5348,-4.4572,-4.4572,-4.4572,-4.4572,-4.4572,-4.4572,-3.2446,-3.4746,-3.7354,-3.7241,-3.7241,-3.6993,-3.5764,-3.5756,-3.5425,-3.3277,-3.2679,0.0,0.0,0.0,0.0,0.0,0.0,0.0,-3.6809,-3.5829,-3.5366,0.0,-3.8307,0.0,-4.4044,-4.5133,-4.5045,0.0,-4.3992,-4.4417,-4.4953,-4.476,-4.522,-4.6554,-4.687,-4.6916,-4.6795,-4.7053,-4.7276,-4.745,-4.7425,-4.7486,-4.7717,-4.7572,-4.6657,-4.5222,0.0,-4.6703,-4.5218,-4.6618,-4.7312,-4.7451,-4.7216,-4.7452,-4.7889,-4.7904,-4.8135,-4.8399,-4.833,-4.7804,-4.7219,-4.7452,-4.7467,-4.7317,-4.7317,-4.7251,-4.7107,-4.676,-4.6716,-4.6681,-4.6387,-4.651,-4.6874,-4.7272,-4.7388,-4.7504,-4.777,-4.777,-4.7654,-4.7537,-4.7537,-4.7588,-4.7588,-4.7654,-4.777,-4.7968,-4.8098,-4.8227,-4.8292,-4.85,-4.869,-4.8894,-4.8956,-4.9001,-4.9001,-4.9001,-4.8861,-4.8513,-4.8899,-4.8594,-4.7439,-4.7528,-4.7007,-4.5697,-4.5348,-4.4993,-4.4572,-4.4572,-4.4572,-4.4572,-4.4572,-4.4572,-3.6185,-3.7109,-3.7392,-3.7279,-3.7259,-3.6708,-3.4603,-3.388,-3.3266,-3.1835,0.0,-3.0966,-2.9132,-2.8615,-2.9546,-3.2835,0.0,-3.3519,-3.5847,-3.6985,-3.7565,-3.7501,-3.8673,-4.0955,-4.4729,-4.5414,-4.5782,-4.6186,-4.3792,-4.2353,-4.2546,-4.2615,-4.3837,-4.6501,-4.659,-4.6731,-4.6998,-4.6998,-4.7205,-4.7615,-4.716,-4.7223,-4.7657,-4.7407,-4.5557,-4.2757,-4.6155,-4.5757,-4.2917,-4.5907,-4.754,-4.8206,-4.7984,-4.8164,-4.8505,-4.8505,-4.8346,-4.8144,-4.7851,-4.7739,-4.7705,-4.801,-4.783,-4.7528,-4.7528,-4.7197,-4.6903,-4.6903,-4.6965,-4.704,-4.704,-4.752,-4.8001,-4.8001,-4.8001,-4.8001,-4.7935,-4.7787,-4.7654,-4.7537,-4.7588,-4.7654,-4.7537,-4.7654,-4.7704,-4.777,-4.8033,-4.8292,-4.8547,-4.869,-4.8832,-4.9001,-4.9001,-4.9001,-4.9001,-4.9001,-4.8769,-4.8229,-4.8099,-4.7704,-4.6957,-4.6255,-4.5719,-4.5567,-4.4933,-4.4572,-4.4572,-4.4572,-4.4572,-4.4572,-4.4572,-4.4572,-3.4191,-3.5456,-3.7354,-3.7185,-3.7147,-3.7179,-3.729,-3.5846,0.0,0.0,0.0,-2.9047,-2.9163,-2.8998,0.0,-3.2748,0.0,0.0,0.0,0.0,-3.7101,0.0,0.0,0.0,0.0,0.0,0.0,0.0,0.0,-4.5431,-4.5479,-4.5462,-4.5852,-4.6572,-4.659,-4.6731,-4.6998,-4.6998,-4.7043,-4.7116,-4.7043,-4.7116,-4.7363,-4.7302,-4.7071,-4.6703,-4.7162,0.0,-4.7356,-4.775,-4.8265,-4.8781,-4.8732,-4.8662,-4.8657,-4.8841,-4.8959,-4.9026,-4.9068,-4.8848,-4.8419,-4.7786,-4.7672,-4.764,-4.764,-4.7687,-4.7797,-4.7797,-4.7768,-4.7819,-4.7819,-4.7901,-4.8001,-4.8001,-4.8001,-4.7935,-4.7787,-4.7654,-4.7537,-4.747,-4.7537,-4.7521,-4.7654,-4.7704,-4.7836,-4.8275,-4.842,-4.8547,-4.8877,-4.8832,-4.8832,-4.9001,-4.9001,-4.9001,-4.9001,-4.9001,-4.9193,-4.9721,-4.9142,-4.8444,-4.774,-4.7029,-4.606,-4.4799,-4.4648,-4.4572,-4.4572,-4.4572,-4.4572,-4.4572,-4.4572,-4.4572,-3.4122,-3.5315,-3.7317,-3.7147,-3.7108,-3.6524,-3.4443,0.0,0.0,0.0,-2.6723,-2.6123,-2.6528,0.0,0.0,0.0,0.0,0.0,0.0,0.0,0.0,0.0,0.0,0.0,0.0,0.0,0.0,0.0,0.0,-4.4518,-4.6133,-4.6172,-4.6319,-4.659,-4.659,-4.6731,-4.6998,-4.6998,-4.6998,-4.6998,-4.6842,-4.6962,-4.732,-4.7187,-4.7276,-4.7529,-4.7813,-4.697,-4.552,-4.7654,-4.7731,-4.6714,-4.8207,-4.9,-4.9281,-4.8856,-4.8717,-4.8793,-4.8702,-4.853,-4.8303,-4.7878,-4.7816,-4.7868,-4.7868,-4.7944,-4.8001,-4.8001,-4.8001,-4.8001,-4.8001,-4.8001,-4.8001,-4.8001,-4.8001,-4.7919,-4.777,-4.7721,-4.7737,-4.7588,-4.7671,-4.7803,-4.7853,-4.7902,-4.8033,-4.8292,-4.8483,-4.869,-4.8894,-4.8894,-4.8956,-4.9001,-4.9001,-4.9001,-4.9001,-4.9001,-4.9012,-4.8935,-4.8282,-4.7521,-4.682,-4.604,-4.5319,-4.4572,-4.4572,-4.4572,-4.4572,-4.4572,-4.4572,-4.4572,-4.4572,-4.4572,-3.4907,-3.588,-3.7203,-3.7108,-3.7069,-3.603,-3.1984,-3.0547,0.0,0.0,-2.4109,-2.4078,-2.4976,0.0,0.0,0.0,0.0,0.0,0.0,0.0,0.0,0.0,0.0,0.0,0.0,0.0,0.0,0.0,0.0,0.0,-4.6098,-4.6172,-4.6319,-4.6495,-4.659,-4.6684,-4.6888,-4.6888,-4.6888,-4.6888,-4.6637,-4.6731,-4.7125,-4.698,-4.7114,-4.7501,-4.8074,-4.6257,-4.3245,-4.7381,-4.7188,-4.4659,-4.7783,-4.9182,-4.9385,-4.8652,-4.8289,-4.8177,-4.8049,-4.8001,-4.8001,-4.8001,-4.8001,-4.8001,-4.8001,-4.8001,-4.8001,-4.8001,-4.8001,-4.8001,-4.8001,-4.8001,-4.8001,-4.8001,-4.8001,-4.7935,-4.7787,-4.7853,-4.7919,-4.7787,-4.7853,-4.7935,-4.8066,-4.8115,-4.8227,-4.8308,-4.858,-4.8786,-4.8832,-4.894,-4.9001,-4.9001,-4.9001,-4.9001,-4.9001,-4.9001,-4.8723,-4.8182,-4.7302,-4.6528,-4.5975,-4.5086,-4.4572,-4.4572,-4.4572,-4.4572,-4.4572,-4.4572,-4.4572,-4.4572,-4.4572,-4.4572,-3.616,-3.6949,-3.7108,-3.7009,-3.7009,-3.6496,-3.4614,0.0,0.0,-2.7926,-2.5566,-2.4769,-2.7952,-2.8655,0.0,0.0,0.0,0.0,0.0,0.0,0.0,0.0,0.0,0.0,0.0,0.0,0.0,0.0,0.0,0.0,-4.6221,-4.6172,-4.6221,-4.6221,-4.6447,-4.659,-4.6637,-4.6637,-4.6637,-4.6637,-4.635,-4.6416,-4.6666,-4.6637,-4.7169,-4.8032,-4.7903,-4.6471,0.0,-4.8144,-4.7508,-4.4578,-4.8342,-4.9076,-4.8144,-4.8336,-4.8065,-4.7604,-4.7869,-4.8001,-4.8001,-4.8001,-4.8001,-4.8001,-4.8001,-4.8001,-4.8001,-4.8001,-4.8001,-4.8001,-4.8001,-4.8001,-4.8001,-4.8001,-4.8001,-4.8001,-4.8001,-4.7853,-4.7787,-4.7935,-4.7853,-4.7836,-4.8098,-4.8163,-4.8292,-4.8707,-4.8786,-4.8832,-4.8956,-4.9001,-4.9001,-4.9001,-4.9001,-4.9001,-4.9001,-4.9001,-4.8942,-4.8912,-4.758,-4.6737,-4.6729,-4.5319,-4.4572,-4.4572,-4.4572,-4.4572,-4.4572,-4.4572,-4.4572,-4.4572,-4.4572,-4.4572,-3.2965,-3.4902,-3.7048,-3.7027,-3.7321,-3.6654,-3.2739,0.0,0.0,-2.6003,-2.4436,-2.4218,-2.5745,-2.6223,-2.7333,-3.0326,0.0,0.0,0.0,0.0,0.0,0.0,0.0,0.0,0.0,0.0,0.0,0.0,0.0,0.0,-4.6084,-4.6172,-4.627,-4.6464,-4.6542,-4.659,-4.659,-4.659,-4.6495,-4.6368,-4.627,-4.6368,-4.659,-4.659,-4.7062,-4.7956,-4.8271,-4.5545,0.0,-4.7334,-4.6221,-4.1306,-4.6607,-4.8383,-4.7901,-4.7869,-4.7721,-4.7537,-4.7869,-4.8001,-4.8001,-4.8001,-4.8001,-4.8001,-4.8001,-4.8001,-4.8001,-4.8001,-4.8001,-4.8001,-4.8001,-4.8001,-4.8001,-4.8001,-4.8001,-4.8001,-4.8001,-4.7935,-4.7919,-4.8001,-4.7984,-4.8033,-4.8163,-4.8373,-4.8644,-4.8786,-4.8894,-4.8956,-4.9001,-4.9001,-4.9001,-4.9001,-4.9001,-4.9001,-4.9001,-4.9001,-4.8791,-4.8381,-4.7368,-4.6593,-4.6165,-4.5148,-4.4572,-4.4572,-4.4572,-4.4572,-4.4572,-4.4572,-4.4572,-4.4572,-4.4572,-4.4803,-3.1331,-3.3987,-3.6987,-3.6987,-3.704,-3.5934,0.0,0.0,0.0,-2.4577,-2.3719,-2.3798,-2.404,-2.4339,-2.5505,-2.847,0.0,-3.1261,0.0,0.0,0.0,0.0,0.0,0.0,0.0,0.0,0.0,0.0,0.0,0.0,-4.6147,-4.627,-4.6319,-4.6495,-4.6495,-4.6495,-4.6495,-4.6495,-4.6416,-4.6172,-4.6172,-4.5844,-4.5198,-4.6071,-4.6548,-4.6742,-4.8208,-4.5552,0.0,-4.7209,-4.5866,-4.0153,-4.574,-4.777,-4.7588,-4.7521,-4.7486,-4.7537,-4.7869,-4.8001,-4.8001,-4.8001,-4.8001,-4.8001,-4.8001,-4.8001,-4.8001,-4.8001,-4.8001,-4.8001,-4.8001,-4.8001,-4.8001,-4.8001,-4.7935,-4.7935,-4.8001,-4.7935,-4.7869,-4.8001,-4.8066,-4.8163,-4.8292,-4.8564,-4.8832,-4.8832,-4.8956,-4.9001,-4.9001,-4.9001,-4.9001,-4.9001,-4.9001,-4.9001,-4.9001,-4.8798,-4.837,-4.7622,-4.6864,-4.6111,-4.5421,-4.4858,-4.4572,-4.4572,-4.4572,-4.4572,-4.4572,-4.4572,-4.4679,-4.488,-4.488,-4.5341,-3.2669,-3.5197,-3.6987,-3.6987,-3.5846,-3.4091,0.0,0.0,0.0,-2.4837,-2.4055,-2.3858,-2.4059,-2.4374,-2.563,-2.8769,-2.9181,0.0,0.0,0.0,0.0,0.0,0.0,0.0,0.0,0.0,0.0,0.0,0.0,0.0,-4.6381,-4.6398,-4.635,-4.6221,-4.6221,-4.6221,-4.6221,-4.6221,-4.6221,-4.6172,-4.6172,-4.4624,-4.1851,-4.4817,-4.5378,-4.4208,-4.7421,-4.7017,0.0,-4.8453,-4.6941,-4.2515,-4.638,-4.7505,-4.6961,-4.7319,-4.7486,-4.7537,-4.7869,-4.8001,-4.8001,-4.8001,-4.8001,-4.8001,-4.8001,-4.8001,-4.8001,-4.8001,-4.8001,-4.8001,-4.8001,-4.8001,-4.8001,-4.8001,-4.7853,-4.777,-4.7935,-4.7737,-4.7604,-4.7935,-4.8001,-4.8131,-4.842,-4.8707,-4.8849,-4.9001,-4.9001,-4.9001,-4.9001,-4.9001,-4.9001,-4.9001,-4.9001,-4.9001,-4.9001,-4.8306,-4.7622,-4.688,-4.6111,-4.5348,-4.4648,-4.4572,-4.4572,-4.4572,-4.4572,-4.4572,-4.4572,-4.4572,-4.4926,-4.5572,-4.5572,-4.6296,-2.7198,-2.9653,-3.2019,-3.0933,-3.188,-3.209,-2.8049,0.0,0.0,-2.4569,-2.3979,-2.4079,-2.432,-2.4513,-2.5665,-2.8851,-2.933,0.0,0.0,0.0,0.0,0.0,0.0,0.0,0.0,0.0,0.0,0.0,0.0,0.0,-4.6275,-4.6301,-4.627,-4.635,-4.635,-4.6301,-4.6172,-4.6172,-4.6172,-4.6172,-4.6172,-4.4606,-4.1816,-4.5409,-4.5967,-4.4311,-4.7387,-4.7054,-4.456,-4.7446,-4.6085,-4.2506,-4.5914,-4.715,-4.7115,-4.7403,-4.7537,-4.7654,-4.7935,-4.8001,-4.8001,-4.8001,-4.8001,-4.8001,-4.8001,-4.8001,-4.8001,-4.8001,-4.8001,-4.8001,-4.8001,-4.8001,-4.8001,-4.8001,-4.7935,-4.7919,-4.8001,-4.7935,-4.7869,-4.8001,-4.8179,-4.8356,-4.8483,-4.8753,-4.8956,-4.9001,-4.9001,-4.9001,-4.9001,-4.9001,-4.9001,-4.9001,-4.9001,-4.9001,-4.9001,-4.8798,-4.8113,-4.688,-4.6604,-4.5913,-4.4648,-4.4572,-4.4572,-4.4572,-4.4572,-4.4803,-4.5264,-4.5264,-4.5618,-4.628,-4.6742,-4.7188,0.0,-2.7151,-2.9453,-2.8438,-2.9211,0.0,0.0,0.0,0.0,0.0,-2.5105,-2.5646,-2.4684,-2.559,-2.6728,-2.7475,-2.9675,0.0,0.0,0.0,0.0,0.0,0.0,0.0,0.0,0.0,0.0,0.0,0.0,0.0,-4.6436,-4.6447,-4.6447,-4.6477,-4.6398,-4.6301,-4.627,-4.6221,-4.627,-4.6368,-4.627,-4.4653,-4.1903,-4.5443,-4.5865,-4.4015,-4.7188,-4.7523,0.0,-4.7553,-4.648,-4.4197,-4.6204,-4.7098,-4.7251,-4.7403,-4.7588,-4.7704,-4.7935,-4.8001,-4.8001,-4.8001,-4.8001,-4.8001,-4.8001,-4.8001,-4.8001,-4.8001,-4.8001,-4.8001,-4.8001,-4.8001,-4.8001,-4.8001,-4.7935,-4.7919,-4.8001,-4.7935,-4.7919,-4.8049,-4.8308,-4.8547,-4.8627,-4.8815,-4.9001,-4.9001,-4.9001,-4.9001,-4.9001,-4.9001,-4.9001,-4.9001,-4.9001,-4.9001,-4.9001,-4.8467,-4.777,-4.688,-4.6253,-4.5567,-4.4648,-4.4572,-4.4572,-4.4572,-4.4833,-4.5172,-4.5588,-4.6095,-4.6573,-4.6988,-4.7665,-4.7989,0.0,0.0,0.0,0.0,0.0,0.0,0.0,0.0,0.0,0.0,0.0,0.0,0.0,-2.7643,-2.8876,-2.5495,-3.0271,0.0,0.0,0.0,0.0,0.0,0.0,0.0,0.0,0.0,0.0,0.0,0.0,0.0,-4.6795,-4.6795,-4.6731,-4.6637,-4.635,-4.6253,-4.6381,-4.627,-4.6244,-4.6271,-4.6262,-4.456,-4.1637,-4.4937,-4.5269,0.0,-4.6713,-4.8129,-4.8242,-4.84,-4.7885,-4.6961,-4.7098,-4.7183,-4.7251,-4.7403,-4.7588,-4.7787,-4.7935,-4.8001,-4.8001,-4.8001,-4.8001,-4.8001,-4.8001,-4.8001,-4.8001,-4.8001,-4.8001,-4.8001,-4.8001,-4.8001,-4.8001,-4.8001,-4.7853,-4.777,-4.7935,-4.7853,-4.7836,-4.8163,-4.8356,-4.8564,-4.8769,-4.8894,-4.9001,-4.9001,-4.9001,-4.9001,-4.9001,-4.9001,-4.9001,-4.9001,-4.9001,-4.9018,-4.9069,-4.7853,-4.6929,-4.6811,-4.5526,-4.477,-4.4572,-4.4633,-4.4649,-4.4649,-4.5357,-4.5726,-4.5741,-4.7034,-4.7681,-4.7696,-4.8327,-4.862,-2.1036,0.0,-2.2423,-2.1201,-2.2428,0.0,0.0,0.0,0.0,0.0,0.0,0.0,0.0,0.0,0.0,0.0,0.0,0.0,0.0,0.0,0.0,0.0,0.0,0.0,0.0,0.0,0.0,0.0,0.0,-4.6637,-4.6795,-4.6684,-4.6684,-4.6731,-4.659,-4.6495,-4.6381,-4.6495,-4.534,-4.305,-4.5393,-4.3399,-3.7808,-4.3965,-4.5304,-4.2929,-4.6043,-4.7776,-4.8463,-4.7787,-4.7437,-4.7335,-4.7251,-4.7386,-4.7588,-4.7537,-4.7671,-4.7935,-4.8001,-4.8001,-4.8001,-4.8001,-4.8001,-4.8001,-4.8001,-4.8001,-4.8001,-4.8001,-4.8001,-4.8001,-4.8001,-4.8001,-4.8001,-4.8001,-4.7935,-4.7935,-4.8001,-4.8049,-4.8098,-4.8163,-4.85,-4.8769,-4.8769,-4.8894,-4.9001,-4.9001,-4.9001,-4.9001,-4.9001,-4.9001,-4.9001,-4.9001,-4.9001,-4.9221,-4.9779,-4.9544,-4.8629,-4.6913,-4.7033,-4.638,-4.4663,-4.5064,-4.5341,-4.5341,-4.6526,-4.7127,-4.7127,-4.7973,-4.8373,-4.8389,-4.8543,-4.862,-1.9279,-2.007,-2.0925,-2.1105,-2.1896,-2.2717,0.0,0.0,0.0,0.0,0.0,0.0,0.0,0.0,0.0,0.0,0.0,0.0,0.0,0.0,0.0,0.0,0.0,0.0,0.0,0.0,0.0,0.0,0.0,-4.6731,-4.6888,-4.6842,-4.6795,-4.6795,-4.6795,-4.6731,-4.659,-4.659,-4.506,-4.2097,-4.49,-4.3535,-3.8773,-4.3769,-4.5486,-4.441,-4.4415,-4.5839,-4.8028,-4.5892,-4.5963,-4.7335,-4.7335,-4.7454,-4.7588,-4.7537,-4.7737,-4.8001,-4.8001,-4.8001,-4.8001,-4.8001,-4.8001,-4.8001,-4.8001,-4.8001,-4.8001,-4.8001,-4.8001,-4.8001,-4.8001,-4.8001,-4.8001,-4.8001,-4.8001,-4.8001,-4.8049,-4.8179,-4.8227,-4.8436,-4.8644,-4.8832,-4.8894,-4.8956,-4.9001,-4.9001,-4.9001,-4.9001,-4.9001,-4.9001,-4.9001,-4.9001,-4.9306,-4.9661,-5.005,-5.0116,-4.9294,-4.7399,-4.671,-4.6013,-4.5126,-4.5403,-4.588,-4.6496,-4.7234,-4.7758,-4.8065,-4.8435,-4.862,-4.862,-4.862,-4.862,-1.8763,-1.9772,-2.1348,-2.3622,-2.3129,-2.2688,0.0,0.0,0.0,0.0,0.0,0.0,0.0,0.0,0.0,0.0,0.0,0.0,0.0,0.0,0.0,0.0,0.0,0.0,0.0,0.0,0.0,0.0,0.0,-4.6888,-4.698,-4.6998,-4.6934,-4.6842,-4.6842,-4.6842,-4.6684,-4.6684,-4.5169,-4.2199,-4.4711,-4.4167,-4.1128,-4.3775,-4.5513,-4.6183,0.0,0.0,-4.7539,-4.45,-4.4874,-4.7319,-4.747,-4.7537,-4.7537,-4.747,-4.7737,-4.8001,-4.8001,-4.8001,-4.8001,-4.8001,-4.8001,-4.8001,-4.8001,-4.8001,-4.8001,-4.8001,-4.8001,-4.8001,-4.8001,-4.8001,-4.8001,-4.8001,-4.8001,-4.8001,-4.8163,-4.8227,-4.8356,-4.8707,-4.8769,-4.8894,-4.9001,-4.9001,-4.9001,-4.9001,-4.9001,-4.9001,-4.9001,-4.9001,-4.9001,-4.9001,-4.9661,-5.0021,-4.994,-4.9909,-4.9362,-4.7971,-4.6123,-4.5326,-4.5865,-4.5895,-4.648,-4.7727,-4.7758,-4.8035,-4.862,-4.862,-4.862,-4.862,-4.862,-4.862,-1.9493,-1.9808,-2.0449,-2.274,-2.2676,-2.2735,-2.5176,0.0,0.0,0.0,0.0,0.0,0.0,0.0,0.0,0.0,0.0,0.0,0.0,0.0,0.0,0.0,0.0,0.0,0.0,0.0,0.0,0.0,-4.6888,-4.698,-4.6998,-4.6998,-4.6998,-4.698,-4.6542,-4.6332,-4.6284,-4.6731,-4.5169,-4.1648,-4.4711,-4.3885,-3.9866,-4.3141,-4.5027,-4.5719,0.0,-4.6005,-4.7886,-4.7177,-4.721,-4.7638,-4.7537,-4.7604,-4.7654,-4.7537,-4.7737,-4.8001,-4.8001,-4.8001,-4.8001,-4.8001,-4.8001,-4.8001,-4.8001,-4.8001,-4.8001,-4.8001,-4.8001,-4.8001,-4.8001,-4.8001,-4.8001,-4.8001,-4.8001,-4.8001,-4.8001,-4.8244,-4.8483,-4.8547,-4.8753,-4.8956,-4.9001,-4.9001,-4.9001,-4.9001,-4.9001,-4.9001,-4.9001,-4.9001,-4.9001,-4.9001,-4.9661,-4.9877,-4.9194,-4.9145,-4.8707,-4.7877,-4.7482,-4.7308,-4.7265,-4.7296,-4.7665,-4.845,-4.8466,-4.8512,-4.862,-4.862,-4.862,-4.862,-4.862,-4.862,-1.8977,-1.9452,-2.0639,-2.4594,-2.3837,-2.3594,-2.9324,0.0,0.0,0.0,0.0,0.0,0.0,0.0,0.0,0.0,0.0,0.0,0.0,0.0,0.0,0.0,0.0,0.0,0.0,0.0,0.0,0.0,-4.6637,-4.659,-4.659,-4.6266,-4.6084,-4.6084,-4.5835,-4.5683,-4.5683,-4.5953,-4.4397,-4.1071,-4.3939,-4.3285,-3.9744,-4.2652,-4.443,-4.5135,0.0,-4.4572,-4.74,-4.5619,-4.6005,-4.7704,-4.7654,-4.7654,-4.7704,-4.7737,-4.7869,-4.8001,-4.8001,-4.8001,-4.8001,-4.8001,-4.8001,-4.8001,-4.8001,-4.8066,-4.8115,-4.8115,-4.8115,-4.8115,-4.8001,-4.8049,-4.8115,-4.8001,-4.8001,-4.8066,-4.8244,-4.8356,-4.8547,-4.8753,-4.8877,-4.9001,-4.9001,-4.9001,-4.9001,-4.9001,-4.9001,-4.9001,-4.9001,-4.9001,-4.9154,-4.9543,-5.0253,-5.057,-5.0189,-4.972,-4.8791,-4.7262,-4.7512,-4.7634,-4.7588,-4.7958,-4.8296,-4.8604,-4.862,-4.862,-4.862,-4.862,-4.862,-4.862,-4.862,-4.862,-1.8639,-1.9167,-2.0622,-2.5657,0.0,-2.4327,-3.2774,0.0,0.0,0.0,0.0,0.0,0.0,0.0,0.0,0.0,0.0,0.0,0.0,0.0,0.0,0.0,0.0,0.0,0.0,0.0,0.0,-4.6684,-4.6381,-4.6137,-4.602,-4.5528,-4.5303,-4.5303,-4.5161,-4.5108,-4.5108,-4.4984,-4.3784,-4.1526,-4.3549,-4.3153,-4.0782,-4.2717,-4.4085,-4.477,-4.2593,-4.3747,-4.6962,-4.4699,-4.5326,-4.7704,-4.7704,-4.7704,-4.7704,-4.7935,-4.8001,-4.8001,-4.8001,-4.8001,-4.8001,-4.8001,-4.8001,-4.8001,-4.8066,-4.8115,-4.8227,-4.8292,-4.8292,-4.8308,-4.8196,-4.8179,-4.8163,-4.8049,-4.8066,-4.8115,-4.8356,-4.8483,-4.8627,-4.8877,-4.9001,-4.9001,-4.9001,-4.9001,-4.9001,-4.9001,-4.9001,-4.9001,-4.9001,-4.9001,-4.9272,-5.0016,-5.076,-5.1145,-5.1102,-5.005,-4.8758,-4.7161,-4.7404,-4.7681,-4.7835,-4.8343,-4.862,-4.862,-4.862,-4.862,-4.862,-4.862,-4.862,-4.862,-4.862,-4.862,-1.9369,-1.9202,-1.9559,-2.3548,-2.3316,0.0,-3.2774,0.0,0.0,0.0,0.0,0.0,0.0,0.0,0.0,0.0,0.0,0.0,0.0,0.0,0.0,0.0,0.0,0.0,0.0,0.0,-4.6795,-4.6284,-4.6235,-4.597,-4.5407,-4.5303,-4.5303,-4.5303,-4.4801,-4.4558,-4.4558,-4.4006,-4.3905,-4.4236,-4.4401,-4.4061,-4.3313,-4.3529,-4.4085,-4.4903,-4.5263,-4.6072,-4.7162,-4.7469,-4.7622,-4.7704,-4.7704,-4.7704,-4.7704,-4.7935,-4.8001,-4.8001,-4.8001,-4.8001,-4.8001,-4.8001,-4.8001,-4.8001,-4.8179,-4.8163,-4.8227,-4.842,-4.8627,-4.8707,-4.8483,-4.8356,-4.8227,-4.8163,-4.8163,-4.8163,-4.8227,-4.85,-4.8786,-4.8786,-4.8894,-4.9001,-4.9001,-4.9001,-4.9001,-4.9001,-4.9001,-4.9001,-4.9001,-4.9001,-4.9272,-5.0016,-5.076,-5.1145,-5.1099,-4.9095,-4.7997,-4.8435,-4.7927,-4.7881,-4.8512,-4.8589,-4.862,-4.862,-4.862,-4.862,-4.862,-4.862,-4.862,-4.862,-4.862,-4.862,-1.8657,-1.8794,-1.9766,-2.5085,0.0,0.0,0.0,0.0,0.0,0.0,0.0,0.0,0.0,0.0,0.0,0.0,0.0,0.0,0.0,0.0,0.0,0.0,0.0,0.0,0.0,0.0,-4.6217,-4.5597,-4.5284,-4.5018,-4.4801,-4.4429,-4.4259,-4.4259,-4.4047,-4.3948,-4.3948,-4.373,-4.373,-4.3948,-4.3948,-4.3848,-4.3628,-4.3628,-4.3896,-4.4432,-4.4986,-4.5779,-4.6653,-4.7198,-4.7635,-4.7853,-4.7853,-4.7853,-4.7935,-4.8001,-4.8001,-4.8001,-4.8001,-4.8049,-4.8115,-4.8115,-4.8244,-4.8292,-4.8356,-4.8483,-4.8564,-4.8644,-4.9152,-4.9388,-4.8537,-4.8436,-4.85,-4.8227,-4.8292,-4.842,-4.858,-4.8707,-4.8832,-4.8894,-4.8956,-4.9001,-4.9001,-4.9001,-4.9001,-4.9001,-4.9001,-4.9001,-4.9001,-4.9001,-4.9458,-5.0659,-5.1008,-5.1146,-5.1096,-4.9299,-4.8343,-4.8604,-4.8373,-4.8358,-4.8604,-4.862,-4.862,-4.862,-4.862,-4.862,-4.862,-4.862,-4.862,-4.862,-4.862,-4.862,-1.8178,-1.8582,-1.977,0.0,0.0,0.0,0.0,0.0,0.0,0.0,0.0,0.0,0.0,0.0,0.0,0.0,0.0,0.0,0.0,0.0,0.0,0.0,0.0,0.0,0.0,-4.587,-4.5649,-4.4947,-4.4652,-4.439,-4.4236,-4.3848,-4.3628,-4.3628,-4.3628,-4.3628,-4.3628,-4.3628,-4.3628,-4.3628,-4.3628,-4.3628,-4.3628,-4.3628,-4.3805,-4.4147,-4.469,-4.544,-4.633,-4.6891,-4.745,-4.8001,-4.8001,-4.8001,-4.8001,-4.8001,-4.8001,-4.8001,-4.8066,-4.8115,-4.8227,-4.8292,-4.842,-4.8483,-4.8564,-4.8707,-4.8786,-4.8832,-4.948,-4.9852,-4.8684,-4.8748,-4.9009,-4.8487,-4.8483,-4.8627,-4.8769,-4.8832,-4.8894,-4.9001,-4.9001,-4.9001,-4.9001,-4.9001,-4.9001,-4.9001,-4.9001,-4.9001,-4.9001,-4.9204,-4.9852,-5.1043,-5.1158,-5.0995,-5.0767,-4.939,-4.862,-4.862,-4.862,-4.862,-4.862,-4.862,-4.862,-4.862,-4.862,-4.862,-4.862,-4.862,-4.862,-4.862,-4.862,-4.862,-1.8214,-1.8617,0.0,0.0,0.0,0.0,0.0,0.0,0.0,0.0,0.0,0.0,0.0,0.0,0.0,0.0,0.0,0.0,0.0,0.0,0.0,0.0,0.0,0.0,0.0,-4.5197,-4.5054,-4.4558,-4.4502,-4.4236,-4.3611,-4.3628,-4.3628,-4.3628,-4.3628,-4.3628,-4.3628,-4.3628,-4.3628,-4.3628,-4.3628,-4.3628,-4.3628,-4.3628,-4.3805,-4.4147,-4.4673,-4.5424,-4.6313,-4.6891,-4.745,-4.8001,-4.8001,-4.8001,-4.8001,-4.8001,-4.8001,-4.8001,-4.8163,-4.8227,-4.8227,-4.842,-4.8483,-4.8547,-4.8769,-4.8786,-4.8832,-4.8956,-4.9543,-4.9932,-4.9034,-4.9342,-4.9712,-4.8955,-4.8786,-4.8786,-4.8786,-4.8894,-4.9001,-4.9001,-4.9001,-4.9001,-4.9001,-4.9001,-4.9001,-4.9001,-4.9001,-4.9001,-4.9018,-4.9644,-5.0385,-5.1052,-5.1075,-5.0767,-4.9947,-4.9081,-4.862,-4.862,-4.862,-4.862,-4.862,-4.862,-4.862,-4.862,-4.862,-4.862,-4.862,-4.862,-4.862,-4.862,-4.862,-4.862,-2.1029,0.0,0.0,0.0,0.0,0.0,0.0,0.0,0.0,0.0,0.0,0.0,0.0,0.0,0.0,0.0,0.0,0.0,0.0,0.0,0.0,0.0,0.0,0.0,-4.4708,-4.4691,-4.4485,-4.3889,-4.3848,-4.3789,-4.3628,-4.3628,-4.3628,-4.3628,-4.3628,-4.3628,-4.3628,-4.3628,-4.3628,-4.3628,-4.3628,-4.3628,-4.3628,-4.3628,-4.3747,-4.3956,-4.4215,-4.4792,-4.5594,-4.6674,-4.745,-4.8001,-4.8001,-4.8001,-4.8001,-4.8001,-4.8049,-4.8179,-4.8163,-4.8373,-4.8644,-4.8707,-4.8753,-4.8877,-4.894,-4.8956,-4.9058,-4.9627,-5.0304,-5.071,-4.9902,-5.0274,-5.0463,-4.9135,-4.8894,-4.8956,-4.8956,-4.894,-4.9001,-4.9001,-4.9001,-4.9001,-4.9001,-4.9001,-4.9001,-4.9001,-4.9001,-4.9187,-4.9712,-5.0374,-5.0874,-5.1082,-5.0633,-5.0182,-4.9947,-4.9081,-4.862,-4.862,-4.862,-4.862,-4.862,-4.862,-4.862,-4.862,-4.9112,-4.9127,-4.862,-4.8929,-4.8913,-4.862,-4.8944,-4.9174,-2.2202,0.0,0.0,0.0,0.0,0.0,0.0,0.0,0.0,0.0,0.0,0.0,0.0,0.0,0.0,0.0,0.0,0.0,0.0,0.0,0.0,0.0,0.0,0.0,-4.4162,-4.4121,-4.4006,-4.3628,-4.3628,-4.3628,-4.3628,-4.3628,-4.3628,-4.3628,-4.3628,-4.3628,-4.3628,-4.3628,-4.3628,-4.3628,-4.3628,-4.3628,-4.3628,-4.3628,-4.3704,-4.3914,-4.4357,-4.4968,-4.5694,-4.6708,-4.745,-4.8001,-4.8001,-4.8001,-4.8001,-4.8049,-4.8115,-4.8227,-4.8373,-4.858,-4.8786,-4.8832,-4.894,-4.9001,-4.9001,-4.9204,-4.9526,-4.9965,-5.0845,-5.1403,-5.0355,-5.0659,-5.0781,-4.9249,-4.8956,-4.9001,-4.9001,-4.9001,-4.9001,-4.9001,-4.9001,-4.9001,-4.9001,-4.9001,-4.9001,-4.9001,-4.9255,-4.9813,-5.0828,-5.1027,-5.1107,-5.1103,-5.0358,-4.9789,-4.939,-4.8934,-4.862,-4.862,-4.862,-4.862,-4.862,-4.862,-4.8743,-4.9035,-4.9382,-4.942,-4.9251,-4.9494,-4.9392,-4.9081,-4.9408,-4.9606,0.0,0.0,0.0,0.0,0.0,0.0,0.0,0.0,0.0,0.0,0.0,0.0,0.0,0.0,0.0,0.0,0.0,0.0,0.0,0.0,0.0,0.0,0.0,-4.408,-4.3628,-4.3628,-4.3628,-4.3628,-4.3628,-4.3628,-4.3628,-4.3628,-4.3628,-4.3628,-4.3628,-4.3628,-4.3628,-4.3628,-4.3628,-4.3628,-4.3628,-4.3628,-4.3628,-4.3628,-4.3704,-4.3989,-4.4775,-4.5537,-4.6229,-4.6808,-4.7334,-4.7918,-4.7968,-4.8001,-4.8001,-4.8179,-4.8227,-4.8292,-4.8644,-4.8786,-4.8832,-4.894,-4.9001,-4.9001,-4.9001,-4.9509,-5.0101,-5.0168,-5.12,-5.1978,-5.0557,-5.071,-5.0845,-4.9357,-4.9001,-4.9001,-4.9001,-4.9001,-4.9001,-4.9001,-4.9001,-4.9001,-4.9001,-4.9001,-4.9018,-4.9086,-4.9779,-5.0777,-5.2048,-5.156,-5.1054,-5.1005,-5.0245,-4.9486,-4.8702,-4.862,-4.862,-4.862,-4.862,-4.862,-4.862,-4.8681,-4.902,-4.9682,-4.9549,-4.9769,-5.0289,-5.0087,-4.991,-4.9849,-4.9925,-4.9955,0.0,0.0,0.0,0.0,0.0,0.0,0.0,0.0,0.0,0.0,0.0,0.0,0.0,0.0,0.0,0.0,0.0,0.0,0.0,0.0,0.0,0.0,0.0,-4.373,-4.3628,-4.3628,-4.3628,-4.3628,-4.3628,-4.3628,-4.3628,-4.3628,-4.3628,-4.3628,-4.3628,-4.3628,-4.3628,-4.3628,-4.3628,-4.3628,-4.3628,-4.3628,-4.3628,-4.3628,-4.3747,-4.4056,-4.4281,-4.4767,-4.552,-4.6196,-4.6729,-4.7189,-4.7769,-4.8001,-4.8001,-4.8179,-4.8292,-4.8483,-4.8707,-4.8894,-4.894,-4.9001,-4.9001,-4.9001,-4.9001,-4.9509,-5.0219,-5.0811,-5.1623,-5.2097,-5.12,-5.1099,-5.0845,-4.9357,-4.9001,-4.9001,-4.9001,-4.9001,-4.9001,-4.9001,-4.9001,-4.9001,-4.9001,-4.9001,-4.9204,-4.9779,-5.098,-5.1713,-5.1391,-5.1218,-5.0892,-5.0229,-4.939,-4.8769,-4.862,-4.862,-4.862,-4.862,-4.862,-4.862,-4.862,-4.9158,-4.9528,-4.9682,-5.0437,-5.0686,-5.0289,-5.0395,-5.029,-4.988,-5.032,-5.0577,0.0,0.0,0.0,0.0,0.0,0.0,0.0,0.0,0.0,0.0,0.0,0.0,0.0,0.0,0.0,0.0,0.0,0.0,0.0,0.0,0.0,0.0,-4.373,-4.3628,-4.3628,-4.3628,-4.3628,-4.3628,-4.3628,-4.3628,-4.3628,-4.3628,-4.3628,-4.3628,-4.3628,-4.3628,-4.3628,-4.3628,-4.3628,-4.3628,-4.3628,-4.3628,-4.3628,-4.3628,-4.3805,-4.4097,-4.4097,-4.4532,-4.5286,-4.5979,-4.6512,-4.6974,-4.7719,-4.8066,-4.8115,-4.8292,-4.8483,-4.869,-4.8832,-4.8956,-4.9001,-4.9001,-4.9001,-4.9069,-4.9424,-5.0033,-5.0777,-5.1522,-5.2283,-5.2621,-5.1505,-5.1217,-5.0845,-4.9357,-4.9001,-4.9001,-4.9001,-4.9001,-4.9001,-4.9001,-4.9001,-4.9001,-4.9001,-4.9289,-4.9898,-5.098,-5.1446,-5.1712,-5.1645,-5.0992,-5.04,-4.9947,-4.9081,-4.862,-4.862,-4.862,-4.862,-4.862,-4.862,-4.8773,-4.9112,-4.9789,-5.0159,-4.9972,-5.072,-5.1029,-5.0909,-5.0894,-5.0802,-5.0547,-5.0541,-5.072,0.0,0.0,0.0,0.0,0.0,0.0,0.0,0.0,0.0,0.0,0.0,0.0,0.0,0.0,0.0,0.0,0.0,0.0,0.0,0.0,0.0,0.0,-4.3509,-4.3628,-4.3628,-4.3628,-4.3628,-4.3628,-4.3628,-4.3628,-4.3628,-4.3628,-4.3628,-4.3628,-4.3628,-4.3628,-4.3628,-4.3628,-4.3628,-4.3628,-4.3628,-4.3628,-4.3628,-4.3628,-4.3747,-4.4056,-4.4097,-4.4449,-4.5042,-4.5912,-4.6429,-4.6792,-4.7669,-4.8049,-4.8163,-4.842,-4.8627,-4.8769,-4.894,-4.9001,-4.9001,-4.9001,-4.9086,-4.9306,-4.9898,-5.071,-5.1539,-5.2131,-5.279,-5.2976,-5.1572,-5.1116,-5.0676,-4.9323,-4.9001,-4.9001,-4.9001,-4.9001,-4.9001,-4.9001,-4.9103,-4.9187,-4.9187,-4.9898,-5.0879,-5.2114,-5.1764,-5.1491,-5.1993,-5.0783,-4.9868,-4.971,-4.9,-4.862,-4.862,-4.862,-4.862,-4.862,-4.862,-4.8943,-4.9651,-5.0328,-5.0657,-5.0384,-5.0908,-5.1334,-5.1587,-5.1214,-5.1041,-5.1041,-5.0677,-5.0677,0.0,0.0,0.0,0.0,0.0,0.0,0.0,0.0,0.0,0.0,0.0,0.0,0.0,0.0,0.0,0.0,0.0,0.0,0.0,0.0,0.0,0.0,-4.3568,-4.3628,-4.3628,-4.3628,-4.3628,-4.3628,-4.3628,-4.3628,-4.3628,-4.3628,-4.3628,-4.3628,-4.3628,-4.3628,-4.3628,-4.3628,-4.3628,-4.3628,-4.3628,-4.3628,-4.3628,-4.3628,-4.3687,-4.3956,-4.4056,-4.4106,-4.4206,-4.5694,-4.6191,-4.6079,-4.7454,-4.8001,-4.8066,-4.8356,-4.8547,-4.8547,-4.8877,-4.9001,-4.9001,-4.9001,-4.9424,-4.9965,-5.005,-5.1048,-5.2181,-5.2266,-5.2384,-5.2283,-5.1437,-5.0727,-5.0033,-4.9204,-4.9001,-4.9001,-4.9001,-4.9001,-4.9001,-4.9001,-4.9509,-4.9949,-4.9949,-5.1082,-5.208,-5.2266,-5.2232,-5.196,-5.1369,-5.0477,-4.963,-4.8852,-4.8687,-4.862,-4.862,-4.862,-4.862,-4.862,-4.862,-4.8943,-4.9651,-5.0328,-5.08,-5.0938,-5.1516,-5.1804,-5.1587,-5.0947,-5.0581,-5.0581,-5.0501,-5.0501,0.0,0.0,0.0,0.0,0.0,0.0,0.0,0.0,0.0,0.0,0.0,0.0,0.0,0.0,0.0,0.0,0.0,0.0,0.0,0.0,0.0,0.0,-4.338,-4.3628,-4.3628,-4.3628,-4.3628,-4.3628,-4.3628,-4.3628,-4.3628,-4.3628,-4.3628,-4.3628,-4.3628,-4.3628,-4.3628,-4.3628,-4.3628,-4.3628,-4.3628,-4.3628,-4.3628,-4.3628,-4.3704,-4.3898,-4.4056,-4.3998,-4.4014,-4.5661,-4.6124,-4.5947,-4.7421,-4.8115,-4.8308,-4.842,-4.861,-4.8815,-4.894,-4.9001,-4.9001,-4.9001,-4.9492,-5.0168,-5.0591,-5.1471,-5.2384,-5.2858,-5.2655,-5.2131,-5.1403,-5.0659,-4.9898,-4.9187,-4.9001,-4.9001,-4.9001,-4.9001,-4.9001,-4.9001,-4.9593,-5.0219,-5.0659,-5.1606,-5.2302,-5.2317,-5.1933,-5.1311,-5.0554,-4.971,-4.9,-4.8604,-4.862,-4.862,-4.862,-4.862,-4.862,-4.862,-4.8989,-4.9528,-5.022,-5.0897,-5.1398,-5.1698,-5.1926,-5.1787,-5.1401,-5.0772,-5.0692,-5.0852,-5.0279,-5.0198,0.0,0.0,0.0,0.0,0.0,0.0,0.0,0.0,0.0,0.0,0.0,0.0,0.0,0.0,0.0,0.0,0.0,0.0,0.0,0.0,0.0,0.0,-4.3015,-4.3413,-4.3611,-4.3628,-4.3628,-4.3628,-4.3628,-4.3628,-4.3628,-4.3628,-4.3628,-4.3628,-4.3628,-4.3628,-4.3628,-4.3628,-4.3628,-4.3628,-4.3628,-4.3628,-4.3628,-4.3628,-4.3687,-4.3822,-4.3998,-4.3981,-4.3939,-4.5601,-4.6124,-4.5947,-4.7421,-4.8179,-4.842,-4.8483,-4.8673,-4.894,-4.9001,-4.9001,-4.9035,-4.9221,-4.9779,-5.0524,-5.1268,-5.2012,-5.2739,-5.3331,-5.279,-5.1894,-5.1352,-5.0524,-4.9678,-4.9137,-4.9001,-4.9001,-4.9001,-4.9001,-4.9069,-4.9238,-4.9881,-5.0608,-5.1352,-5.2114,-5.2522,-5.2295,-5.1606,-5.0767,-5.0026,-4.9163,-4.862,-4.862,-4.862,-4.862,-4.862,-4.862,-4.8696,-4.8881,-4.9389,-5.0066,-5.0913,-5.1436,-5.1917,-5.2291,-5.2063,-5.1803,-5.1308,-5.0662,-5.0581,-5.1041,-4.9975,-4.9781,0.0,0.0,0.0,0.0,0.0,0.0,0.0,0.0,0.0,0.0,0.0,0.0,0.0,0.0,0.0,0.0,0.0,0.0,0.0,0.0,0.0,-4.2591,-4.2593,-4.285,-4.3562,-4.3628,-4.3628,-4.3628,-4.3628,-4.3628,-4.3628,-4.3628,-4.3628,-4.3628,-4.3628,-4.3628,-4.3628,-4.3628,-4.3628,-4.3628,-4.3628,-4.3628,-4.3628,-4.3628,-4.3628,-4.3628,-4.3981,-4.3923,-4.3744,-4.554,-4.6124,-4.5947,-4.7421,-4.8115,-4.8227,-4.842,-4.8627,-4.8832,-4.8956,-4.9001,-4.912,-4.9813,-5.0541,-5.1302,-5.2029,-5.2807,-5.345,-5.3501,-5.2435,-5.1268,-5.1234,-5.0135,-4.9052,-4.9018,-4.9001,-4.9001,-4.9001,-4.9001,-4.9204,-4.9898,-5.0642,-5.1386,-5.2131,-5.2909,-5.3162,-5.2449,-5.1606,-5.0767,-5.0026,-4.9163,-4.862,-4.862,-4.862,-4.862,-4.862,-4.862,-4.8912,-4.9589,-4.9666,-5.0282,-5.159,-5.1682,-5.1917,-5.2291,-5.2063,-5.1895,-5.1587,-5.0346,-4.999,-5.0501,-4.9404,-4.9192,0.0,0.0,0.0,0.0,0.0,0.0,0.0,0.0,0.0,0.0,0.0,0.0,0.0,0.0,0.0,0.0,0.0,0.0,0.0,0.0,0.0,-4.1481,-4.2295,-4.2906,-4.3189,-4.3639,-4.3881,-4.3822,-4.2059,-4.1793,-4.3529,-4.1896,-4.1747,-4.3562,-4.3628,-4.3628,-4.3628,-4.3628,-4.3628,-4.3628,-4.3628,-4.3628,-4.3628,-4.3628,-4.3628,-4.3628,-4.3981,-4.3998,-4.3939,-4.5601,-4.6124,-4.6038,-4.7486,-4.8179,-4.842,-4.8483,-4.8673,-4.8956,-4.9001,-4.9001,-4.912,-4.9847,-5.0608,-5.1352,-5.208,-5.2858,-5.3399,-5.2892,-5.1995,-5.1099,-5.0625,-4.9746,-4.9001,-4.9001,-4.9001,-4.9001,-4.9001,-4.9373,-4.9779,-5.0033,-5.1082,-5.1995,-5.2249,-5.2521,-5.2449,-5.168,-5.0859,-5.001,-4.9163,-4.8769,-4.862,-4.862,-4.862,-4.862,-4.862,-4.862,-4.8912,-4.9635,-5.0082,-5.0743,-5.1667,-5.2113,-5.2378,-5.2503,-5.1849,-5.1386,-5.1105,-5.0456,-5.0294,-5.0501,-4.9781,-4.9488,0.0,0.0,0.0,0.0,0.0,0.0,0.0,0.0,0.0,0.0,0.0,0.0,0.0,0.0,0.0,0.0,0.0,0.0,0.0,0.0,0.0,-4.0819,-4.1707,-4.244,-4.2925,-4.3427,-4.3772,-4.3981,-4.2217,0.0,-4.3588,-4.1903,-4.1737,-4.3562,-4.3628,-4.3628,-4.3628,-4.3628,-4.3628,-4.3628,-4.3628,-4.3628,-4.3568,-4.3372,-4.3235,-4.3295,-4.3339,-4.3476,-4.3701,-4.5324,-4.5844,-4.5835,-4.7193,-4.7968,-4.842,-4.8483,-4.8673,-4.8956,-4.9001,-4.9171,-4.9492,-5.0236,-5.098,-5.1725,-5.2469,-5.3078,-5.3331,-5.2536,-5.1775,-5.1048,-5.0287,-4.9543,-4.9001,-4.9001,-4.9001,-4.9069,-4.9323,-4.9746,-5.0168,-5.0422,-5.1454,-5.2318,-5.2287,-5.2327,-5.1931,-5.0843,-5.0245,-4.9566,-4.8687,-4.862,-4.862,-4.862,-4.862,-4.862,-4.862,-4.8835,-4.9266,-4.9974,-5.0651,-5.1344,-5.2021,-5.2467,-5.2624,-5.2608,-5.1849,-5.1184,-5.0508,-5.0361,-5.0294,-5.0501,-4.9892,-4.9603,0.0,0.0,0.0,0.0,0.0,0.0,0.0,0.0,0.0,0.0,0.0,0.0,0.0,0.0,0.0,0.0,0.0,0.0,0.0,0.0,0.0,-4.0894,-4.0889,-4.1352,-4.2775,-4.3015,-4.3294,-4.4013,-4.4013,-4.3956,-4.3898,-4.3898,-4.3822,-4.3628,-4.3628,-4.3628,-4.3628,-4.3628,-4.3628,-4.3628,-4.3628,-4.3628,-4.3568,-4.2912,-4.2585,-4.2585,-4.2205,-4.2317,-4.303,-4.4716,-4.5226,-4.5179,-4.6548,-4.7605,-4.8227,-4.842,-4.8627,-4.8832,-4.894,-4.9475,-5.0219,-5.098,-5.1708,-5.2452,-5.3264,-5.3484,-5.3298,-5.2503,-5.1742,-5.1014,-5.0253,-4.9543,-4.9001,-4.9001,-4.9001,-4.9204,-4.9932,-5.0101,-5.0338,-5.1034,-5.1761,-5.2287,-5.2246,-5.2236,-5.1696,-5.0104,-4.9868,-4.9566,-4.8687,-4.862,-4.862,-4.862,-4.862,-4.862,-4.8635,-4.9281,-4.9989,-5.0682,-5.1344,-5.2006,-5.2683,-5.2713,-5.2608,-5.2306,-5.2063,-5.1308,-5.0028,-4.9863,-4.9975,-5.0405,-4.9727,-4.958,-1.8843,0.0,0.0,0.0,0.0,0.0,0.0,0.0,0.0,0.0,0.0,0.0,0.0,0.0,0.0,0.0,0.0,0.0,0.0,0.0,0.0,-4.0324,-4.0779,-4.1268,-4.1673,-4.2686,-4.3339,0.0,-4.2075,-4.2001,-4.3781,-4.3763,-4.3628,-4.3628,-4.3628,-4.3628,-4.3628,-4.3628,-4.3628,-4.3628,-4.3628,-4.3628,-4.3568,-4.2912,-4.2664,-4.2821,-4.2221,-4.2204,-4.2595,-4.4529,-4.5306,-4.539,-4.7062,-4.8033,-4.842,-4.8483,-4.869,-4.8956,-4.9001,-4.9475,-5.0219,-5.098,-5.1279,-5.1712,-5.3112,-5.2655,-5.1745,-5.1577,-5.098,-5.0236,-4.9509,-4.9154,-4.9001,-4.9001,-4.9001,-4.9204,-4.9932,-5.0087,-5.0259,-5.0992,-5.1758,-5.213,-5.15,-5.0935,-5.04,-4.9947,-4.9405,-4.8852,-4.862,-4.862,-4.862,-4.862,-4.862,-4.8835,-4.9343,-4.9574,-5.0174,-5.1344,-5.1605,-5.2006,-5.2683,-5.2713,-5.2608,-5.2306,-5.1356,-5.0698,-5.0302,-5.0427,-5.0154,-4.9614,-5.0064,-5.0168,0.0,0.0,0.0,0.0,0.0,0.0,-1.9241,-2.3755,0.0,0.0,0.0,0.0,0.0,0.0,0.0,0.0,0.0,0.0,0.0,0.0,0.0,0.0,-4.046,-4.0849,-4.117,-4.1982,-4.2689,-4.3221,-4.2165,-4.221,-4.3881,-4.3747,-4.3628,-4.3628,-4.3628,-4.3628,-4.3628,-4.3628,-4.3628,-4.3628,-4.3312,-4.3174,-4.3174,-4.219,-4.1803,-4.1948,-4.1393,-4.1414,-4.1992,-4.3802,-4.4669,-4.5056,-4.6694,-4.7404,-4.7655,-4.8,-4.8258,-4.845,-4.8861,-4.9678,-5.0561,-5.0658,-5.1143,-5.1781,-5.2683,-5.2127,-5.1121,-5.1208,-5.0456,-4.9543,-4.912,-4.9001,-4.9001,-4.9001,-4.9238,-4.9598,-4.997,-5.0292,-5.0565,-5.1048,-5.146,-5.1533,-5.0783,-5.0245,-4.9805,-4.9405,-4.8934,-4.862,-4.862,-4.862,-4.862,-4.862,-4.8881,-4.9235,-4.9651,-5.0205,-5.0867,-5.1652,-5.1959,-5.2298,-5.2698,-5.2713,-5.2518,-5.2033,-5.1278,-5.0698,-5.0235,-5.025,-5.0106,-5.0006,-5.0566,-5.0917,0.0,0.0,0.0,0.0,0.0,0.0,-1.9614,-2.4975,-2.9867,0.0,0.0,0.0,0.0,0.0,0.0,0.0,0.0,0.0,0.0,0.0,0.0,0.0,-3.9817,-4.0341,-4.1018,-4.1153,-4.1796,-4.3183,-4.3399,-4.3676,-4.4064,-4.3805,-4.3628,-4.3628,-4.3628,-4.3628,-4.3628,-4.3628,-4.3552,-4.3492,-4.2896,-4.2585,-4.2443,-4.1142,-4.06,-4.0737,-4.0261,-4.0563,-4.1582,-4.2833,-4.3827,-4.4519,-4.5785,-4.6285,-4.6426,-4.7288,-4.7572,-4.7638,-4.8614,-4.9843,-5.0875,-5.0171,-5.0938,-5.2059,-5.2137,-5.1487,-5.0711,-5.0841,-4.989,-4.8861,-4.8861,-4.894,-4.894,-4.8798,-4.9354,-4.9934,-4.9906,-5.041,-5.0867,-5.0949,-5.0986,-5.0691,-4.9868,-4.9805,-4.947,-4.8687,-4.862,-4.862,-4.862,-4.862,-4.862,-4.862,-4.9251,-4.9712,-4.9789,-5.0974,-5.1744,-5.1821,-5.2375,-5.2713,-5.2624,-5.2624,-5.2246,-5.1494,-5.1494,-5.0962,-5.0092,-4.9603,-4.9991,-5.0953,-5.1084,-5.167,0.0,0.0,0.0,0.0,0.0,0.0,-2.1348,-2.2823,-2.4684,0.0,0.0,0.0,0.0,0.0,0.0,0.0,0.0,0.0,0.0,0.0,0.0,0.0,-3.8309,-4.0138,-4.029,-4.0849,-4.1576,-4.2439,-4.3418,-4.4004,-4.4097,-4.3805,-4.3628,-4.3628,-4.3628,-4.3628,-4.3628,-4.3628,-4.3312,-4.2772,-4.2648,-4.2317,-4.1722,-4.0992,-4.0737,-4.094,-4.0455,-4.1051,-4.2402,-4.3106,-4.3827,-4.4519,-4.5785,-4.634,-4.6518,-4.7288,-4.7304,-4.7167,-4.8498,-4.9123,-4.9442,-4.9798,-5.0134,-5.0518,-5.1103,-4.9968,-4.8416,-4.853,-4.8312,-4.8096,-4.8096,-4.8593,-4.8736,-4.7489,-4.8182,-4.9093,-4.911,-4.9174,-4.9337,-5.0003,-5.0149,-4.9868,-4.9,-4.8852,-4.8769,-4.862,-4.862,-4.862,-4.862,-4.862,-4.862,-4.862,-4.9251,-4.9897,-5.0451,-5.1236,-5.1929,-5.2483,-5.2637,-5.2533,-5.217,-5.217,-5.1772,-5.0996,-5.0552,-5.0335,-5.0268,-5.0168,-5.034,-5.0784,-5.1817,-5.2427,0.0,0.0,0.0,-2.088,0.0,0.0,0.0,-2.3388,-2.4969,-2.536,-2.672,0.0,0.0,0.0,0.0,0.0,0.0,0.0,0.0,0.0,0.0,0.0,-3.8986,-4.007,-4.007,-4.0409,-4.1102,-4.2202,-4.3132,-4.3769,-4.408,-4.3881,-4.3687,-4.3628,-4.3628,-4.3628,-4.3628,-4.3628,-4.3235,-4.2585,-4.2253,-4.1722,-4.106,-4.0478,-4.0355,-4.0662,-4.0754,-4.1505,-4.2633,-4.3273,-4.3858,-4.4584,-4.5498,-4.5697,-4.5624,-4.6394,-4.6464,-4.642,-4.7899,-4.86,-4.8957,-4.9224,-4.9578,-4.9883,-4.9957,-4.8932,-4.7742,-4.7447,-4.7355,-4.7355,-4.7355,-4.7638,-4.7787,-4.7403,-4.816,-4.886,-4.8775,-4.9056,-4.9284,-4.9247,-4.9244,-4.9081,-4.8702,-4.862,-4.862,-4.862,-4.862,-4.862,-4.862,-4.862,-4.8743,-4.9112,-4.9774,-5.0466,-5.1144,-5.1821,-5.2344,-5.2698,-5.2443,-5.2261,-5.2002,-5.171,-5.1323,-5.0618,-5.0491,-5.0435,-5.0471,-5.1092,-5.1512,-5.1628,-5.2267,-5.2731,0.0,0.0,0.0,0.0,0.0,-2.2253,0.0,0.0,0.0,-2.4304,0.0,0.0,0.0,0.0,0.0,0.0,0.0,0.0,0.0,0.0,0.0,0.0,-3.7648,-3.799,-3.8142,-3.8802,-4.007,-4.2134,-4.285,-4.348,-4.4105,-4.3998,-4.3839,-4.3628,-4.3628,-4.3628,-4.3628,-4.3509,-4.3113,-4.2443,-4.1722,-4.1142,-4.0547,-4.0021,-3.998,-4.0307,-4.1066,-4.1812,-4.2663,-4.331,-4.3972,-4.4648,-4.5052,-4.4993,-4.4723,-4.5421,-4.5719,-4.5851,-4.7261,-4.8168,-4.8653,-4.8685,-4.9064,-4.9331,-4.845,-4.7872,-4.7313,-4.6765,-4.6604,-4.6604,-4.6604,-4.6673,-4.692,-4.7277,-4.8055,-4.8673,-4.8497,-4.9143,-4.947,-4.8769,-4.862,-4.862,-4.862,-4.862,-4.862,-4.862,-4.862,-4.862,-4.862,-4.8727,-4.9035,-4.962,-5.0405,-5.1113,-5.1652,-5.2239,-5.2624,-5.2713,-5.217,-5.1803,-5.1803,-5.1214,-5.0742,-5.025,-5.0519,-5.0743,-5.0859,-5.2006,-5.2572,-5.2572,-5.2702,-5.3022,0.0,0.0,0.0,0.0,-2.2422,0.0,0.0,0.0,-2.1684,-2.1024,0.0,0.0,0.0,0.0,0.0,0.0,0.0,0.0,0.0,0.0,0.0,-2.6368,-2.8655,-3.0514,-3.1173,-3.4201,-3.7838,-4.1982,-4.285,-4.3536,-4.4259,-4.4056,-4.3898,-4.3898,-4.3687,-4.3628,-4.3628,-4.3207,-4.2618,-4.1852,-4.1327,-4.0684,-4.0066,-4.0207,-4.0277,-4.0377,-4.1223,-4.1986,-4.2663,-4.331,-4.3972,-4.4572,-4.4648,-4.4648,-4.4723,-4.5421,-4.5665,-4.5773,-4.7193,-4.773,-4.7815,-4.843,-4.8339,-4.7725,-4.6377,-4.5934,-4.5936,-4.5857,-4.5841,-4.5841,-4.5841,-4.6324,-4.6641,-4.5999,-4.6899,-4.7804,-4.7756,-4.8291,-4.8687,-4.862,-4.862,-4.862,-4.862,-4.862,-4.862,-4.862,-4.862,-4.862,-4.862,-4.9174,-4.9589,-4.9682,-5.0836,-5.1621,-5.1698,-5.197,-5.2261,-5.2713,-5.1787,-5.1323,-5.1323,-5.0346,-4.9863,-4.9766,-5.0435,-5.0946,-5.1512,-5.2223,-5.2572,-5.2586,-5.3152,-5.3442,0.0,0.0,0.0,0.0,0.0,0.0,-2.5762,0.0,-2.2293,0.0,0.0,0.0,0.0,0.0,0.0,0.0,-1.9266,0.0,0.0,0.0,0.0,0.0,0.0,0.0,-3.3119,-3.278,-3.4269,-3.8751,-3.975,-4.039,-4.1079,-4.2942,-4.3998,-4.3898,-4.3687,-4.3449,-4.3207,-4.3023,-4.2349,-4.1327,-4.1142,-4.0699,-4.0207,-4.0277,-4.0561,-4.1131,-4.1878,-4.2556,-4.3217,-4.3879,-4.4326,-4.4572,-4.4572,-4.4572,-4.4648,-4.4933,-4.5292,-4.5758,-4.6718,-4.7338,-4.765,-4.7942,-4.7336,-4.6392,-4.5742,-4.5325,-4.5067,-4.5067,-4.5067,-4.5067,-4.5067,-4.5571,-4.6116,-4.6159,-4.6903,-4.7743,-4.8116,-4.8419,-4.862,-4.862,-4.862,-4.862,-4.862,-4.862,-4.862,-4.862,-4.862,-4.8758,-4.9174,-4.9497,-4.9989,-5.0774,-5.1359,-5.1778,-5.1894,-5.1926,-5.1987,-5.188,-5.112,-5.0632,-5.0346,-4.996,-4.9857,-5.0249,-5.0888,-5.1541,-5.218,-5.2804,-5.3109,-5.3123,-5.3384,-5.3515,-2.7976,0.0,0.0,0.0,0.0,0.0,0.0,0.0,0.0,0.0,0.0,0.0,0.0,0.0,-1.8961,-1.9157,0.0,-2.039,0.0,0.0,0.0,0.0,0.0,0.0,0.0,-3.119,-3.163,-3.5328,-3.7009,-3.8179,-3.8823,-4.2215,-4.4056,-4.3956,-4.3568,-4.3267,-4.2899,-4.2634,-4.2029,-4.1075,-4.094,-4.0699,-4.0331,-4.0331,-4.0784,-4.1632,-4.2309,-4.2971,-4.3618,-4.4295,-4.4572,-4.4572,-4.4572,-4.4572,-4.4603,-4.4787,-4.528,-4.5957,-4.6634,-4.7188,-4.7573,-4.7388,-4.6542,-4.5557,-4.5372,-4.4972,-4.4572,-4.4572,-4.4572,-4.4572,-4.4572,-4.508,-4.5757,-4.6434,-4.7111,-4.7788,-4.8466,-4.862,-4.862,-4.862,-4.862,-4.862,-4.862,-4.862,-4.862,-4.862,-4.8789,-4.902,-4.9358,-4.9897,-5.0543,-5.1344,-5.1759,-5.1996,-5.2215,-5.2078,-5.171,-5.1041,-5.0742,-5.0346,-4.9781,-4.9857,-5.0177,-5.067,-5.1468,-5.2107,-5.2572,-5.321,-5.3515,-5.3515,-5.3515,-5.3515,0.0,0.0,0.0,-2.8312,0.0,0.0,0.0,0.0,-2.0887,0.0,0.0,0.0,0.0,-1.838,-1.9147,-1.9858,-2.0627,0.0,0.0,0.0,0.0,0.0,0.0,0.0,0.0,-2.8522,-3.0768,-3.2422,-3.5887,-3.8227,-3.8954,-4.2253,-4.4097,-4.4097,-4.3328,-4.2899,-4.2899,-4.1851,-4.1323,-4.1256,-4.0783,-4.0524,-4.0455,-4.0455,-4.0924,-4.1632,-4.2309,-4.2971,-4.3618,-4.4295,-4.4572,-4.4572,-4.4572,-4.4572,-4.4664,-4.5311,-4.5972,-4.6665,-4.7342,-4.7588,-4.7496,-4.6834,-4.6157,-4.5464,-4.4803,-4.4603,-4.4572,-4.4572,-4.4572,-4.4572,-4.4572,-4.508,-4.5757,-4.6434,-4.7111,-4.7788,-4.8466,-4.862,-4.862,-4.862,-4.862,-4.862,-4.862,-4.862,-4.862,-4.862,-4.9204,-4.9404,-4.8727,-5.0405,-5.1405,-5.079,-5.1898,-5.2683,-5.2713,-5.2261,-5.1617,-5.0596,-5.0947,-5.0742,-4.9766,-5.0293,-5.0656,-5.067,-5.1904,-5.2543,-5.2572,-5.321,-5.3515,-5.3515,-5.3515,-5.3515,0.0,0.0,-3.3948,-3.3019,0.0,0.0,0.0,0.0,0.0,0.0,0.0,0.0,0.0,-1.9799,-1.9866,-2.0686,-2.1431,-2.2023,0.0,0.0,0.0,0.0,0.0,0.0,0.0,0.0,0.0,-2.8418,-3.0243,-3.1343,-3.1579,-3.7196,-4.0217,-3.9896,-4.1808,-4.2571,-4.1851,-4.1456,-4.1122,-4.0799,-4.0593,-4.0524,-4.0539,-4.1032,-4.1617,-4.2309,-4.2956,-4.3618,-4.4249,-4.4495,-4.4572,-4.4572,-4.4572,-4.4849,-4.528,-4.5511,-4.6018,-4.6696,-4.7373,-4.7311,-4.6819,-4.6142,-4.5464,-4.488,-4.4649,-4.4572,-4.4572,-4.4572,-4.4572,-4.4679,-4.5126,-4.5757,-4.6419,-4.7096,-4.7773,-4.8327,-4.8558,-4.862,-4.862,-4.862,-4.862,-4.862,-4.862,-4.9004,-4.9328,-4.9328,-4.9127,-4.9389,-5.0513,-5.0882,-5.1282,-5.1959,-5.2167,-5.2078,-5.1787,-5.0917,-5.0346,-4.9975,-5.0168,-5.0057,-4.9669,-5.0322,-5.0873,-5.1294,-5.2136,-5.2775,-5.3196,-5.3413,-5.3515,-5.3515,-5.3515,-5.3515,-3.6688,-3.7165,0.0,-3.5814,-3.4279,0.0,-3.1628,0.0,-2.5833,0.0,0.0,0.0,0.0,-2.2147,-2.1809,-2.1252,-2.1792,-2.231,0.0,-2.2338,0.0,0.0,0.0,0.0,0.0,0.0,-2.374,-2.5065,-2.6793,-2.7789,0.0,-3.4447,-3.806,-3.7711,-4.0739,-4.198,-4.1323,-4.1122,-4.0851,-4.0524,-4.0524,-4.0524,-4.0555,-4.1278,-4.1971,-4.2648,-4.3294,-4.3956,-4.4572,-4.4572,-4.4572,-4.4603,-4.4849,-4.5203,-4.5618,-4.5849,-4.6372,-4.7019,-4.745,-4.7004,-4.6157,-4.5726,-4.5126,-4.4572,-4.4572,-4.4572,-4.4633,-4.4864,-4.4941,-4.5095,-4.5772,-4.6449,-4.7065,-4.7511,-4.8127,-4.862,-4.862,-4.862,-4.862,-4.862,-4.862,-4.862,-4.862,-4.9004,-4.9389,-4.9651,-4.9497,-4.9835,-5.1174,-5.1174,-5.1287,-5.1968,-5.2018,-5.1803,-5.1229,-5.0647,-5.0168,-4.999,-4.9975,-4.998,-5.0017,-5.067,-5.1309,-5.1947,-5.2572,-5.3109,-5.3515,-5.3515,-5.3515,-5.3515,-5.3515,-5.3515]}]]